[[{"header":{"parameterUnit":"m.s-1","parameterCategory":1,"la1":30.6,"la2":29.2853,"lo1":-89.7004,"lo2":-87.6739,"dy":0.0162,"dx":0.0183,"nx":112,"ny":82,"refTime":"2024-08-18T12:00:00:Z","depth":0,"parameterNumber":2,"parameterNumberName":"U-component_of_WINDS"},"data":[0.0,0.0,0.0,0.0,0.0,0.0,0.0,0.0,0.0,0.0,0.0,0.0,0.0,0.0,0.0,0.0,0.0,0.0,0.0,0.0,0.0,0.0,0.0,0.0,0.0,0.0,0.0,0.0,0.0,0.0,0.0,0.0,0.0,0.0,0.0,0.0,0.0,0.0,0.0,0.0,0.0,0.0,0.0,0.0,0.0,0.0,0.0,0.0,0.0,0.0,0.0,0.0,0.0,0.0,0.0,0.0,0.0,0.0,0.0,0.0,0.0,0.0,0.0,0.0,0.0,0.0,0.0,0.0,0.0,0.0,0.0,0.0,0.0,0.0,0.0,0.0,0.0,0.0,0.0,0.0,0.0,0.0,0.0,0.0,0.0,0.0,0.0,0.0,0.0,0.0,-0.3285,-0.3831,-0.4363,-0.4708,-0.4708,-0.4572,-0.4262,-0.3631,0.0,0.0,0.0,0.0,0.0,0.0,0.0,0.0,0.0,0.0,0.0,0.0,0.0,0.0,0.0,0.0,0.0,0.0,0.0,0.0,0.0,0.0,0.0,0.0,0.0,0.0,0.0,0.0,0.0,0.0,0.0,0.0,0.0,0.0,0.0,0.0,0.0,0.0,0.0,0.0,0.0,0.0,0.0,0.0,0.0,0.0,0.0,0.0,0.0,0.0,0.0,0.0,0.0,0.0,0.0,0.0,0.0,0.0,0.0,0.0,0.0,0.0,0.0,0.0,0.0,0.0,0.0,0.0,0.0,0.0,0.0,0.0,0.0,0.0,0.0,0.0,0.0,0.0,0.0,0.0,0.0,0.0,0.0,0.0,0.0,0.0,0.0,0.0,0.0,0.0,0.0,0.0,0.0,0.0,0.0,0.0,0.0,0.0,0.0,0.0,0.0,0.0,0.0,0.0,-0.3379,-0.4136,-0.4512,-0.4708,-0.4708,-0.4124,-0.3721,-0.3618,0.0,0.0,0.0,0.0,0.0,0.0,0.0,0.0,0.0,0.0,0.0,0.0,0.0,0.0,0.0,0.0,0.0,0.0,0.0,0.0,0.0,0.0,0.0,0.0,0.0,0.0,0.0,0.0,0.0,0.0,0.0,0.0,0.0,0.0,0.0,0.0,0.0,0.0,0.0,0.0,0.0,0.0,0.0,0.0,0.0,0.0,0.0,0.0,0.0,0.0,0.0,0.0,0.0,0.0,0.0,0.0,0.0,0.0,0.0,0.0,0.0,0.0,0.0,0.0,0.0,0.0,0.0,0.0,0.0,0.0,0.0,0.0,0.0,0.0,0.0,0.0,0.0,0.0,0.0,0.0,0.0,0.0,0.0,0.0,0.0,0.0,0.0,0.0,0.0,0.0,0.0,0.0,0.0,0.0,0.0,0.0,0.0,0.0,0.0,0.0,0.0,0.0,0.0,-0.3329,-0.3671,-0.4238,-0.45,-0.4614,-0.4565,-0.4178,-0.3829,-0.3548,-0.3331,0.0,0.0,0.0,0.0,0.0,0.0,0.0,0.0,0.0,0.0,0.0,0.0,0.0,0.0,0.0,0.0,0.0,0.0,0.0,0.0,0.0,0.0,0.0,0.0,0.0,0.0,0.0,0.0,0.0,0.0,0.0,0.0,0.0,0.0,0.0,0.0,0.0,0.0,0.0,0.0,0.0,0.0,0.0,0.0,0.0,0.0,0.0,0.0,0.0,0.0,0.0,0.0,0.0,0.0,0.0,0.0,0.0,0.0,0.0,0.0,0.0,0.0,0.0,0.0,0.0,0.0,0.0,0.0,0.0,0.0,0.0,0.0,0.0,0.0,0.0,0.0,0.0,0.0,0.0,0.0,0.0,0.0,0.0,0.0,0.0,0.0,0.0,0.0,0.0,0.0,0.0,0.0,0.0,0.0,0.0,0.0,0.0,0.0,0.0,0.0,0.0,0.0,-0.3646,-0.3958,-0.4234,-0.4432,-0.4504,-0.4366,-0.4134,-0.3842,-0.3495,-0.3039,0.0,0.0,0.0,0.0,0.0,0.0,0.0,0.0,0.0,0.0,0.0,0.0,0.0,0.0,0.0,0.0,0.0,0.0,0.0,0.0,0.0,0.0,0.0,0.0,0.0,0.0,0.0,0.0,0.0,0.0,0.0,0.0,0.0,0.0,0.0,0.0,0.0,0.0,0.0,0.0,0.0,0.0,0.0,0.0,0.0,0.0,0.0,0.0,0.0,0.0,0.0,0.0,0.0,0.0,0.0,0.0,0.0,0.0,0.0,0.0,0.0,0.0,0.0,0.0,0.0,0.0,0.0,0.0,0.0,0.0,0.0,0.0,0.0,0.0,0.0,0.0,0.0,0.0,0.0,0.0,0.0,0.0,0.0,0.0,0.0,0.0,0.0,0.0,0.0,0.0,0.0,0.0,0.0,0.0,0.0,0.0,0.0,0.0,0.0,0.0,0.0,0.0,-0.3624,-0.3965,-0.4204,-0.434,-0.4408,-0.4316,-0.3685,-0.329,-0.3395,-0.2554,0.0,0.0,0.0,0.0,0.0,0.0,0.0,0.0,0.0,0.0,0.0,0.0,0.0,0.0,0.0,0.0,0.0,0.0,0.0,0.0,0.0,0.0,0.0,0.0,0.0,0.0,0.0,0.0,0.0,0.0,0.0,0.0,0.0,0.0,0.0,0.0,0.0,0.0,0.0,0.0,0.0,0.0,0.0,0.0,0.0,0.0,0.0,0.0,0.0,0.0,0.0,0.0,0.0,0.0,0.0,0.0,0.0,0.0,0.0,0.0,0.0,0.0,0.0,0.0,0.0,0.0,0.0,0.0,0.0,0.0,0.0,0.0,0.0,0.0,0.0,0.0,0.0,0.0,0.0,0.0,0.0,0.0,0.0,0.0,0.0,0.0,0.0,0.0,0.0,0.0,0.0,0.0,0.0,0.0,0.0,0.0,0.0,0.0,0.0,0.0,0.0,0.0,-0.3485,-0.3701,0.0,-0.3804,-0.3733,-0.3346,-0.2977,-0.2801,-0.2886,0.0,0.0,0.0,0.0,0.0,0.0,0.0,0.0,0.0,0.0,0.0,0.0,0.0,0.0,0.0,0.0,0.0,0.0,0.0,0.0,0.0,0.0,0.0,0.0,0.0,0.0,0.0,0.0,0.0,0.0,0.0,0.0,0.0,0.0,0.0,0.0,0.0,0.0,0.0,0.0,0.0,0.0,0.0,0.0,0.0,0.0,0.0,0.0,0.0,0.0,0.0,0.0,0.0,0.0,0.0,0.0,0.0,0.0,0.0,0.0,0.0,0.0,0.0,0.0,0.0,0.0,0.0,0.0,0.0,0.0,0.0,0.0,0.0,0.0,0.0,0.0,0.0,0.0,0.0,0.0,0.0,0.0,0.0,0.0,0.0,0.0,0.0,0.0,0.0,0.0,0.0,0.0,0.0,0.0,0.0,0.0,0.0,0.0,0.0,0.0,0.0,0.0,-0.3215,-0.3381,-0.3448,0.0,-0.3377,-0.3192,-0.2717,-0.2546,-0.2471,-0.2436,0.0,0.0,0.0,0.0,0.0,0.0,0.0,0.0,0.0,0.0,0.0,0.0,0.0,0.0,0.0,0.0,0.0,0.0,0.0,0.0,0.0,0.0,0.0,0.0,0.0,0.0,0.0,0.0,0.0,0.0,0.0,0.0,0.0,0.0,0.0,0.0,0.0,0.0,0.0,0.0,0.0,0.0,0.0,0.0,0.0,0.0,0.0,0.0,0.0,0.0,0.0,0.0,0.0,0.0,0.0,0.0,0.0,0.0,0.0,0.0,0.0,0.0,0.0,0.0,0.0,0.0,0.0,0.0,0.0,0.0,0.0,0.0,0.0,0.0,0.0,0.0,0.0,0.0,0.0,0.0,0.0,0.0,0.0,0.0,0.0,0.0,0.0,0.0,0.0,0.0,0.0,0.0,0.0,0.0,0.0,0.0,0.0,0.0,0.0,0.0,0.0,0.0,-0.3352,-0.3291,-0.3263,-0.3457,-0.3142,-0.282,-0.2703,-0.2487,-0.2319,0.0,0.0,0.0,0.0,0.0,0.0,0.0,0.0,0.0,0.0,0.0,0.0,0.0,0.0,0.0,0.0,0.0,0.0,0.0,0.0,0.0,0.0,0.0,0.0,0.0,0.0,0.0,0.0,0.0,0.0,0.0,0.0,0.0,0.0,0.0,0.0,0.0,0.0,0.0,0.0,0.0,0.0,0.0,0.0,0.0,0.0,0.0,0.0,0.0,0.0,0.0,0.0,0.0,0.0,0.0,0.0,0.0,0.0,0.0,0.0,0.0,0.0,0.0,0.0,0.0,0.0,0.0,0.0,0.0,0.0,0.0,0.0,0.0,0.0,0.0,0.0,0.0,0.0,0.0,0.0,0.0,0.0,0.0,0.0,0.0,0.0,0.0,0.0,0.0,0.0,0.0,0.0,0.0,0.0,0.0,0.0,0.0,0.0,0.0,0.0,0.0,0.0,0.0,-0.2795,-0.2795,-0.2687,-0.2464,-0.2436,-0.2218,-0.1811,-0.1699,-0.1651,-0.1755,0.0,0.0,0.0,0.0,0.0,0.0,0.0,0.0,0.0,0.0,0.0,0.0,0.0,0.0,0.0,0.0,0.0,0.0,0.0,0.0,0.0,0.0,0.0,0.0,0.0,0.0,0.0,0.0,0.0,0.0,0.0,0.0,0.0,0.0,0.0,0.0,0.0,0.0,0.0,0.0,0.0,0.0,0.0,0.0,0.0,0.0,0.0,0.0,0.0,0.0,0.0,0.0,0.0,0.0,0.0,0.0,0.0,0.0,0.0,0.0,0.0,0.0,0.0,0.0,0.0,0.0,0.0,0.0,0.0,0.0,0.0,0.0,0.0,0.0,0.0,0.0,0.0,0.0,0.0,0.0,0.0,0.0,0.0,0.0,0.0,0.0,0.0,0.0,0.0,0.0,0.0,0.0,0.0,0.0,0.0,0.0,0.0,0.0,0.0,0.0,0.0,0.0,-0.263,-0.2486,-0.2306,-0.2103,-0.1959,-0.1734,-0.1436,-0.132,-0.1341,-0.1388,0.0,0.0,0.0,0.0,0.0,0.0,0.0,0.0,0.0,0.0,0.0,0.0,0.0,0.0,0.0,0.0,0.0,0.0,0.0,0.0,0.0,0.0,0.0,0.0,0.0,0.0,0.0,0.0,0.0,0.0,0.0,0.0,0.0,0.0,0.0,0.0,0.0,0.0,0.0,0.0,0.0,0.0,0.0,0.0,0.0,0.0,0.0,0.0,0.0,0.0,0.0,0.0,0.0,0.0,0.0,0.0,0.0,0.0,0.0,0.0,0.0,0.0,0.0,0.0,0.0,0.0,0.0,0.0,0.0,0.0,0.0,0.0,0.0,0.0,0.0,0.0,0.0,0.0,0.0,0.0,0.0,0.0,0.0,0.0,0.0,0.0,0.0,0.0,0.0,0.0,0.0,0.0,0.0,0.0,0.0,0.0,0.0,0.0,0.0,0.0,0.0,0.0,-0.2658,-0.2263,-0.1967,-0.2099,-0.1705,-0.1379,-0.1393,-0.1336,-0.1241,-0.1132,0.0,0.0,0.0,0.0,0.0,0.0,0.0,0.0,0.0,0.0,0.0,0.0,0.0,0.0,0.0,0.0,0.0,0.0,0.0,0.0,0.0,0.0,0.0,0.0,0.0,0.0,0.0,0.0,0.0,0.0,0.0,0.0,0.0,0.0,0.0,0.0,0.0,0.0,0.0,0.0,0.0,0.0,0.0,0.0,0.0,0.0,0.0,0.0,0.0,0.0,0.0,0.0,0.0,0.0,0.0,0.0,0.0,0.0,0.0,0.0,-0.6635,0.0,0.0,0.0,0.0,0.0,0.0,0.0,0.0,0.0,0.0,0.0,0.0,0.0,0.0,0.0,0.0,0.0,0.0,0.0,0.0,0.0,0.0,0.0,0.0,0.0,0.0,0.0,0.0,0.0,0.0,0.0,0.0,0.0,0.0,0.0,0.0,0.0,0.0,0.0,0.0,0.0,-0.187,-0.163,-0.1498,-0.1563,-0.148,-0.1379,-0.1393,-0.1336,-0.1269,-0.1187,-0.1,0.0,0.0,0.0,0.0,0.0,0.0,0.0,0.0,0.0,0.0,0.0,0.0,0.0,0.0,0.0,0.0,0.0,0.0,0.0,0.0,0.0,0.0,0.0,0.0,0.0,0.0,0.0,0.0,0.0,0.0,0.0,0.0,0.0,0.0,0.0,0.0,0.0,0.0,0.0,0.0,0.0,0.0,0.0,0.0,0.0,0.0,0.0,0.0,0.0,0.0,0.0,0.0,0.0,0.0,0.0,0.0,0.0,0.0,0.0,0.0,-0.7046,0.0,0.0,0.0,0.0,0.0,0.0,0.0,0.0,0.0,0.0,0.0,0.0,0.0,0.0,0.0,0.0,0.0,0.0,0.0,0.0,0.0,0.0,0.0,0.0,0.0,0.0,0.0,0.0,0.0,0.0,0.0,0.0,0.0,0.0,0.0,0.0,0.0,0.0,0.0,0.0,-0.1588,-0.1445,-0.1342,-0.1385,-0.1391,-0.1384,-0.1413,-0.137,-0.1319,-0.1259,-0.1105,0.0,0.0,0.0,0.0,0.0,0.0,0.0,0.0,0.0,0.0,0.0,0.0,0.0,0.0,0.0,0.0,0.0,0.0,0.0,0.0,0.0,0.0,0.0,0.0,0.0,0.0,0.0,0.0,0.0,0.0,0.0,0.0,0.0,0.0,0.0,0.0,0.0,0.0,0.0,0.0,0.0,0.0,0.0,0.0,0.0,0.0,0.0,0.0,0.0,0.0,0.0,0.0,0.0,-0.8163,-0.8445,-0.8798,-0.8827,-0.8892,-0.888,-0.7966,-0.7664,-0.7797,-0.7398,0.0,0.0,0.0,0.0,0.0,0.0,0.0,0.0,0.0,0.0,0.0,0.0,0.0,0.0,0.0,0.0,0.0,0.0,0.0,0.0,0.0,0.0,0.0,0.0,-0.5759,-0.5793,0.0,0.0,0.0,0.0,0.0,0.0,0.0,0.0,0.0,0.0,0.0,0.0,-0.155,-0.1471,-0.1401,-0.1387,-0.1391,-0.1391,-0.1391,-0.1408,-0.1369,-0.1321,-0.1256,-0.1175,0.0,0.0,0.0,0.0,0.0,0.0,0.0,0.0,0.0,0.0,0.0,0.0,0.0,0.0,0.0,0.0,0.0,0.0,0.0,0.0,0.0,0.0,0.0,0.0,0.0,0.0,0.0,0.0,0.0,0.0,0.0,0.0,-0.6238,-0.6615,0.0,0.0,0.0,0.0,0.0,0.0,0.0,0.0,0.0,0.0,0.0,0.0,0.0,-0.7924,-0.8197,-0.8662,-0.8917,-0.885,-0.9298,-0.9381,-0.9123,-0.9257,-0.9257,-0.9137,-0.8999,0.0,-0.8379,-0.8147,0.0,0.0,0.0,0.0,0.0,0.0,0.0,0.0,0.0,0.0,0.0,0.0,0.0,0.0,0.0,0.0,0.0,0.0,0.0,0.0,0.0,0.0,-0.7506,-0.7446,-0.7479,-0.7215,0.0,-0.5369,-0.449,-0.3545,-0.3241,0.0,0.0,0.0,0.0,0.0,0.0,0.0,-0.1349,-0.1388,-0.1401,-0.1387,-0.1391,-0.1391,-0.1391,-0.1408,-0.1386,-0.1379,-0.1339,-0.1283,-0.1267,-0.1148,0.0,0.0,0.0,0.0,0.0,0.0,0.0,0.0,0.0,0.0,0.0,0.0,0.0,0.0,0.0,0.0,0.0,0.0,0.0,0.0,0.0,0.0,0.0,0.0,0.0,0.0,0.0,0.0,0.0,-0.6695,-0.695,-0.7935,-0.7335,-0.7122,0.0,0.0,0.0,0.0,0.0,0.0,0.0,0.0,0.0,-0.8115,-0.8504,-0.887,-0.9094,-0.94,-0.9555,-0.958,-0.9791,-0.9893,-0.9849,-0.9856,-0.9849,-0.9781,-0.9693,-0.9456,-0.911,-0.8706,-0.8274,-0.7777,0.0,0.0,0.0,0.0,-0.7647,-0.7617,-0.8033,-0.8051,0.0,-0.7529,0.0,0.0,0.0,0.0,0.0,0.0,0.0,0.0,0.0,0.0,-0.7811,-0.7811,-0.7811,-0.7689,-0.7278,-0.6857,-0.5858,0.0,-0.2617,-0.2048,-0.1474,0.0,0.0,0.0,0.0,-0.1359,-0.1296,-0.1369,-0.1421,-0.1389,-0.1391,-0.1391,-0.1391,-0.1379,-0.1415,-0.1415,-0.1363,-0.1324,-0.1309,-0.1237,-0.1164,0.0,0.0,0.0,0.0,0.0,0.0,0.0,0.0,0.0,0.0,0.0,0.0,0.0,0.0,0.0,0.0,0.0,0.0,0.0,0.0,0.0,0.0,0.0,0.0,0.0,0.0,0.0,0.0,-0.7455,-0.7709,-0.8896,-0.7971,-0.7769,0.0,0.0,0.0,0.0,0.0,0.0,-0.7919,-0.837,-0.873,-0.8988,-0.9357,-0.9625,-0.9778,-0.992,-1.0049,-1.0098,-1.0139,-1.0263,-1.0334,-1.0334,-1.0314,-1.0273,-1.0158,-0.9981,-0.9727,-0.9179,-0.8751,-0.8435,-0.8241,-0.8083,-0.8063,-0.8423,-0.8463,-0.8423,-0.891,-0.8961,-0.8751,-0.8268,-0.8149,-0.811,-0.7472,0.0,0.0,0.0,0.0,-0.7757,-0.7646,-0.7777,-0.7929,-0.7929,-0.7929,-0.7861,-0.7716,-0.7604,-0.6684,0.0,-0.2678,-0.1949,-0.1306,0.0,0.0,0.0,0.0,-0.132,-0.1335,-0.1351,-0.1391,-0.1391,-0.1391,-0.1391,-0.1391,-0.1391,-0.1391,-0.1391,-0.1414,-0.1392,-0.1328,-0.1312,-0.1295,-0.124,0.0,0.0,0.0,0.0,0.0,0.0,0.0,0.0,0.0,0.0,0.0,0.0,0.0,0.0,0.0,0.0,0.0,0.0,0.0,0.0,0.0,0.0,0.0,0.0,0.0,0.0,0.0,0.0,0.0,-0.8767,-0.821,0.0,0.0,0.0,0.0,-0.8819,-0.916,-0.9226,-0.8855,-0.9296,-0.9612,-0.9761,-0.9866,-1.009,-1.0246,-1.0388,-1.0463,-1.047,-1.0616,-1.0616,-1.048,-1.048,-1.0409,-1.028,-1.0273,-1.0259,-1.0198,-0.9588,-0.9161,-0.8893,-0.8869,-0.8855,-0.8835,-0.871,-0.8659,-0.8638,-0.8576,-0.8443,-0.834,-0.8443,-0.8391,-0.8297,-0.8259,-0.816,0.0,0.0,-0.8067,-0.8275,-0.8269,-0.8282,-0.8299,-0.8299,-0.8299,-0.799,-0.6958,-0.6799,-0.6444,0.0,-0.4598,-0.3889,-0.1834,0.0,-0.1305,-0.1372,-0.1316,-0.1323,-0.1377,-0.1387,-0.1391,-0.1391,-0.1391,-0.1391,-0.1391,-0.1391,-0.1391,-0.1391,-0.1389,-0.1387,-0.1386,-0.1331,-0.1287,-0.1296,-0.1176,0.0,0.0,0.0,0.0,0.0,0.0,0.0,0.0,0.0,0.0,0.0,0.0,0.0,0.0,0.0,0.0,0.0,0.0,0.0,0.0,0.0,0.0,0.0,0.0,0.0,0.0,0.0,0.0,-0.9312,-0.8849,0.0,-0.9816,-0.9289,-0.9231,-1.0039,-0.9874,-0.9669,-0.9583,-0.9988,-1.0202,-1.0253,-1.0402,-1.0507,-1.0565,-1.0612,-1.0639,-1.0639,-1.0694,-1.069,-1.0639,-1.0639,-1.0612,-1.0558,-1.046,-1.0415,-1.0392,-1.0086,-0.9781,-0.9486,-0.9296,-0.9225,-0.9218,-0.9161,-0.9144,-0.9133,-0.9079,-0.9028,-0.8977,-0.8985,-0.8767,-0.8591,-0.8641,-0.8634,-0.8562,-0.8457,-0.848,-0.853,-0.8431,-0.8408,-0.8408,-0.8408,-0.8408,-0.8327,-0.8048,-0.8014,-0.7653,-0.6511,-0.4988,-0.3387,-0.1833,-0.1513,-0.1482,-0.1453,-0.144,-0.1434,-0.1391,-0.1391,-0.1391,-0.1391,-0.1391,-0.1345,-0.1211,-0.1211,-0.1204,-0.1145,-0.1144,-0.1137,-0.1164,-0.1104,-0.1035,-0.0916,-0.0833,-0.0732,0.0,0.0,0.0,0.0,0.0,0.0,0.0,0.0,0.0,0.0,0.0,0.0,0.0,0.0,0.0,0.0,0.0,0.0,0.0,0.0,0.0,0.0,0.0,0.0,0.0,0.0,-0.9415,-0.9852,-0.9475,-0.949,-1.0257,-0.9813,-0.9807,-1.055,-1.0271,-1.0114,-1.0206,-1.0463,-1.0568,-1.0568,-1.0666,-1.0721,-1.0721,-1.0721,-1.0721,-1.0721,-1.0721,-1.0721,-1.0721,-1.0721,-1.0721,-1.0714,-1.0612,-1.0568,-1.0558,-1.0412,-1.0232,-1.0019,-0.9724,-0.9574,-0.9523,-0.9476,-0.9459,-0.9452,-0.9398,-0.9381,-0.9357,-0.9258,-0.9077,-0.8869,-0.8868,-0.8885,-0.8861,-0.8815,-0.8788,-0.8764,-0.8662,-0.8598,-0.856,-0.856,-0.856,-0.8587,-0.8689,-0.875,-0.8433,-0.7304,-0.5445,-0.3681,-0.2428,-0.19,-0.1573,-0.1533,-0.1518,-0.1504,-0.1484,-0.1463,-0.1451,-0.1451,-0.1352,-0.1256,-0.1121,-0.1031,-0.0936,-0.088,-0.0879,-0.0918,-0.0904,-0.0885,-0.0824,-0.0684,-0.0619,-0.0545,-0.0465,0.0,0.0,0.0,0.0,0.0,0.0,0.0,0.0,0.0,0.0,0.0,0.0,0.0,0.0,0.0,0.0,0.0,0.0,0.0,0.0,0.0,0.0,0.0,-0.8585,-0.9333,-0.9981,-1.0257,-1.0003,-1.0084,-1.0701,-1.0347,-1.0071,-1.0283,-1.0422,-1.0565,-1.0711,-1.0724,-1.0727,-1.0727,-1.0731,-1.0734,-1.0734,-1.0734,-1.0734,-1.0734,-1.0734,-1.0734,-1.0734,-1.0734,-1.0734,-1.0734,-1.0727,-1.0727,-1.0714,-1.0561,-1.0493,-1.0463,-1.0171,-0.9903,-0.9812,-0.9676,-0.9618,-0.9595,-0.9445,-0.9391,-0.9364,-0.9272,-0.9221,-0.919,-0.8988,-0.8892,-0.8888,-0.8885,-0.8885,-0.8885,-0.8885,-0.8828,-0.8716,-0.8716,-0.8716,-0.8716,-0.8716,-0.8832,-0.8549,-0.7376,-0.615,-0.4896,-0.3729,-0.2487,-0.1671,-0.162,-0.1594,0.0,-0.1622,-0.1521,-0.1484,-0.1483,-0.1273,-0.1078,-0.1076,-0.0852,-0.0672,-0.0672,-0.0672,-0.0672,-0.0671,-0.0675,-0.07,-0.0674,-0.0629,-0.0531,-0.038,0.0,0.0,0.0,0.0,0.0,0.0,0.0,0.0,0.0,0.0,0.0,0.0,0.0,0.0,0.0,0.0,0.0,0.0,0.0,0.0,0.0,-1.036,-0.9773,-0.9727,-0.9785,-0.9863,-1.0081,-1.0198,-1.04,-1.0566,-1.0524,-1.0551,-1.0595,-1.0636,-1.0677,-1.0717,-1.0759,-1.082,-1.082,-1.0989,-1.104,-1.104,-1.104,-1.104,-1.104,-1.104,-1.104,-1.104,-1.104,-1.104,-1.1036,-1.0931,-1.082,-1.0806,-1.0721,-1.0592,-1.0473,-1.029,-1.0124,-0.992,-0.9879,-0.9856,-0.9758,-0.9717,-0.9632,-0.954,-0.9496,-0.9408,-0.9289,-0.914,-0.9093,-0.9072,-0.8967,-0.8885,-0.8885,-0.8885,-0.8851,-0.8821,-0.8821,-0.8821,-0.8821,-0.8821,-0.8854,-0.8826,-0.8491,-0.6764,-0.5015,-0.3807,-0.3252,-0.2661,-0.1788,-0.1656,0.0,-0.1607,-0.159,-0.1513,-0.1281,-0.1223,-0.1019,-0.0629,-0.0538,-0.0446,-0.0395,-0.0395,-0.0392,-0.0429,-0.0421,-0.0337,-0.0216,-0.0159,-0.0155,0.0,0.0,0.0,0.0,0.0,0.0,0.0,0.0,0.0,0.0,0.0,0.0,0.0,0.0,0.0,0.0,0.0,0.0,0.0,0.0,0.0,0.0,-1.1694,-1.1061,-1.0627,-1.0258,-1.007,-1.0219,-1.0443,-1.0585,-1.0585,-1.0666,-1.0748,-1.0812,-1.0749,-1.0843,-1.0904,-1.0989,-1.1036,-1.1036,-1.1121,-1.1231,-1.1231,-1.1231,-1.1231,-1.1231,-1.1231,-1.1231,-1.1231,-1.1231,-1.1231,-1.1158,-1.1077,-1.1036,-1.1026,-1.0877,-1.0765,0.0,0.0,0.0,0.0,0.0,-0.9889,-0.9822,-0.9822,-0.9768,-0.969,-0.9629,-0.9551,-0.9449,-0.9354,-0.9306,-0.9275,-0.9069,-0.9028,-0.9015,-0.8898,-0.8885,-0.8885,-0.8885,-0.8885,-0.8885,-0.8885,-0.8491,-0.8156,-0.8156,-0.6644,0.0,-0.3804,-0.3164,-0.253,-0.1853,-0.1718,-0.1745,-0.1675,-0.1548,-0.1369,-0.1239,-0.0975,-0.0715,-0.0415,-0.032,0.0,0.0,0.0,-0.0174,-0.0169,-0.017,0.0,0.0,0.0,0.0,0.0,0.0,0.0,0.0,-0.0128,-0.0086,0.0,0.0,0.0,0.0,0.0,0.0,0.0,0.0,0.0,0.0,0.0,0.0,0.0,0.0,0.0,0.0,-1.2926,-1.212,-1.1185,-1.0666,-1.0442,-1.0504,-1.0636,-1.0721,-1.0721,-1.0734,-1.0802,-1.087,-1.0894,-1.1029,-1.1155,0.0,0.0,0.0,0.0,-1.1282,-1.1282,-1.1282,-1.1282,-1.1282,-1.1282,-1.1282,-1.1282,-1.1282,-1.1282,-1.1212,-1.1196,-1.1189,-1.1175,-1.1033,-1.0894,-1.085,-1.0612,-1.0415,-1.0287,-1.0134,-0.9916,-0.9846,-0.9846,0.0,0.0,-0.9676,-0.9635,-0.9605,-0.9452,-0.9408,-0.9374,-0.9279,-0.9234,-0.9207,-0.9022,-0.8932,-0.8929,-0.8912,-0.8908,-0.8902,-0.8888,-0.7934,-0.7096,-0.7096,-0.6089,-0.486,-0.3804,-0.2688,-0.1963,-0.1795,-0.1828,-0.1809,-0.1755,-0.1442,-0.1203,-0.1094,0.0,0.0,-0.0337,-0.0142,0.0,0.0,0.0,0.0,0.0,0.0,0.0,0.0,0.0,0.0,0.0,0.0,0.0,0.0,0.0,0.0,0.0,0.0,0.0,0.0,0.0,0.0,0.0,0.0,0.0,0.0,0.0,0.0,0.0,0.0,0.0,-1.326,-1.242,-1.1626,-1.1242,-1.1114,-1.0972,-1.0673,-1.0704,-1.0721,-1.0721,-1.0833,-1.085,-1.088,-1.1056,-1.1134,-1.1231,-1.128,-1.1348,-1.1348,-1.1467,-1.1531,-1.1531,-1.1531,-1.1531,-1.1531,0.0,0.0,-1.1531,-1.1531,-1.1531,-1.1525,-1.1399,-1.1348,-1.1335,-1.1182,-1.1053,-1.085,-1.0612,-1.0473,-1.0432,-1.029,-1.0137,-0.9943,-0.9943,-0.9862,-0.9815,-0.9788,-0.9781,-0.9754,-0.9608,-0.9564,0.0,-0.9381,-0.9337,-0.933,-0.9303,-0.9296,-0.9266,-0.914,-0.9169,-0.9079,-0.8908,-0.7934,-0.7096,-0.7096,-0.5421,-0.3858,-0.3636,-0.3413,-0.2912,-0.1963,-0.179,-0.1674,-0.1451,-0.1332,-0.1094,-0.0585,-0.0475,-0.0311,-0.01,-0.005,0.0,0.0,0.0,0.0,0.0,0.0,0.0,0.0,0.0,0.0,0.0,0.0,0.0,0.0,0.0,0.0,0.0,0.0,0.0,0.0,0.0,0.0,0.0,0.0,0.0,0.0,0.0,-1.5474,-1.5648,0.0,-1.4629,-1.3897,-1.3423,-1.2754,-1.1644,-1.1385,-1.1206,-1.0727,-1.0721,-1.0751,-1.0759,-1.0836,-1.0941,-1.1158,-1.1236,-1.1311,-1.1389,-1.1463,-1.1504,-1.1504,-1.1579,-1.1619,-1.1619,-1.1619,-1.1619,-1.1619,-1.1619,-1.1619,-1.1619,-1.1619,-1.1619,-1.1616,-1.1538,-1.1504,-1.1494,-1.1341,-1.1148,-1.0863,-1.0778,-1.0626,-1.0483,-1.0412,-1.0293,-1.0154,-1.0014,-0.9936,-0.9862,-0.9846,-0.9822,-0.9805,-0.9737,-0.9717,-0.9686,-0.9537,-0.9496,-0.9479,-0.9401,-0.9381,-0.9361,-0.9344,-0.9265,-0.919,-0.9062,-0.8035,-0.693,-0.6366,-0.4806,-0.3413,-0.28,-0.2688,-0.2521,-0.1907,-0.1795,-0.1683,-0.1346,-0.1177,-0.0947,-0.0438,-0.0272,-0.016,0.0,0.0,0.0,0.0,0.0,0.0,0.0,0.0,0.0,0.0,0.0,0.0,0.0,0.0,0.0,0.0,0.0,0.0,0.0,0.0,0.0,0.0,0.0,0.0,0.0,-1.5286,-1.5864,-1.6537,-1.6568,-1.6653,-1.7076,-1.65,-1.5649,-1.4785,-1.4476,-1.377,-1.2176,-1.1806,-1.1496,-1.1003,-1.0811,-1.0812,-1.087,-1.0931,-1.1134,-1.1372,-1.1443,-1.1531,-1.1653,-1.1687,-1.1708,-1.1708,-1.1708,-1.1691,-1.166,-1.166,-1.1647,-1.1619,-1.1619,-1.1619,-1.1619,-1.1619,-1.1619,-1.1619,-1.1619,-1.1619,-1.1606,-1.1453,-1.125,-1.0961,-1.0904,-1.0799,-1.0575,-1.0548,-1.0429,-1.0266,-1.0171,-1.0034,-0.9967,-0.9845,-0.9846,-0.9822,-0.9822,-0.9822,-0.9795,-0.9683,-0.9649,-0.9622,-0.95,-0.9466,-0.9459,-0.9432,-0.9334,-0.9292,-0.9262,-0.812,-0.6905,-0.5947,-0.4594,-0.3301,-0.2297,-0.1906,-0.1739,-0.1795,-0.1739,-0.157,-0.129,-0.0953,-0.0673,-0.0336,-0.0111,0.0,0.0,0.0,0.0,0.0,0.0,0.0,0.0,0.0,0.0,0.0,0.0,0.0,0.0,0.0,0.0,0.0,0.0,0.0,-1.3065,-1.3627,-1.463,-1.5993,-1.5974,-1.5953,0.0,-1.7802,-1.8079,-1.8102,-1.9149,-1.9798,-1.858,-1.757,-1.649,-1.5299,-1.4059,-1.3084,-1.2598,-1.2479,-1.2294,-1.1733,-1.1175,-1.086,-1.088,-1.1189,-1.1355,-1.1389,-1.1633,-1.1789,-1.1806,-1.1938,-1.2013,-1.2013,-1.2013,-1.1945,-1.1809,-1.1809,-1.1745,-1.1619,-1.1619,-1.1619,-1.1619,-1.1619,-1.1619,-1.1619,-1.1619,-1.1619,-1.1606,-1.1453,-1.1372,-1.1314,-1.105,-1.086,-1.0813,-1.0744,-1.0521,-1.0297,-1.0405,-1.027,-0.9984,-0.9967,-0.9869,-0.9822,-0.9822,-0.9822,-0.9819,-0.9802,-0.9798,-0.9791,-0.9778,-0.9771,-0.9741,-0.9612,-0.9571,-0.952,-0.9384,-0.8314,-0.7304,-0.719,-0.5248,-0.358,-0.3413,-0.2241,-0.1458,-0.1739,-0.157,-0.1234,-0.0953,-0.0673,-0.0336,-0.0056,0.0,0.0,0.0,0.0,0.0,0.0,0.0,0.0,0.0,0.0,0.0,0.0,0.0,0.0,0.0,0.0,0.0,0.0,0.0,0.0,-1.5253,-1.5829,-1.6407,-1.7076,-1.7573,-1.8067,-1.8635,-1.903,-1.9369,-1.963,-1.9699,-1.9518,-1.8936,-1.7167,-1.5623,0.0,-1.4118,-1.315,-1.2637,-1.2643,-1.2473,-1.1876,-1.1661,-1.1525,-1.1405,-1.1324,-1.1331,-1.1511,-1.1714,-1.183,-1.183,-1.1979,-1.2135,-1.2135,-1.2135,-1.2033,-1.1965,-1.1874,-1.1799,-1.1742,-1.1657,-1.1619,-1.1619,-1.1619,-1.1619,-1.1619,-1.1619,-1.1619,-1.1613,-1.1552,-1.147,-1.1369,-1.1155,-1.0968,-1.0809,-1.0744,-1.0643,-1.0531,-1.0504,-1.0409,-1.0276,-1.0044,-0.9943,-0.9876,-0.9846,-0.9822,-0.9822,-0.9822,-0.9822,-0.9822,-0.9822,-0.9822,-0.9805,-0.9747,-0.9669,-0.9591,-0.953,-0.9042,-0.8102,-0.665,-0.5467,-0.4299,-0.2806,-0.1849,-0.1346,-0.1514,-0.1402,-0.1177,-0.0953,-0.0785,-0.0503,-0.0055,0.0,0.0,0.0,0.0,0.0,0.0,0.0,0.0,0.0,0.0,0.0,0.0,0.0,0.0,0.0,0.0,0.0,0.0,0.0,0.0,-1.6885,-1.7417,-1.7816,-1.8117,-1.8901,-1.9626,-1.9765,-1.9953,-2.0281,-2.0708,-2.0124,-1.9489,-1.91,-1.7039,-1.5446,-1.5252,-1.4222,-1.3255,-1.2851,-1.2873,-1.2758,-1.2149,-1.2088,-1.2026,-1.1909,-1.159,-1.1475,-1.1599,-1.1789,-1.1894,-1.1894,-1.2077,-1.2182,-1.2182,-1.2182,-1.2162,-1.2125,-1.2013,-1.1915,-1.183,-1.1728,-1.1657,-1.1619,-1.1619,-1.1619,-1.1619,-1.1619,-1.1619,-1.1619,-1.1619,-1.1555,-1.144,-1.1287,-1.1094,-1.0894,-1.0812,-1.0727,-1.0649,-1.0578,-1.0527,-1.0456,-1.0239,-1.0054,-0.9967,-0.9856,-0.9852,-0.9822,-0.9822,-0.9822,-0.9822,-0.9822,-0.9822,-0.9822,-0.9822,-0.9741,-0.9666,-0.9666,-0.9551,-0.8881,-0.7035,-0.6107,-0.5023,-0.3163,-0.1911,-0.1234,-0.129,-0.1177,-0.1009,-0.0785,-0.0673,-0.0502,-0.0055,0.0,0.0,0.0,0.0,0.0,0.0,0.0,0.0,0.0,0.0,0.0,0.0,0.0,0.0,0.0,0.0,0.0,0.0,0.0,0.0,-1.723,-1.783,-1.8591,-1.9414,-1.9924,-2.0281,-2.0568,-2.0862,-2.1076,-2.1089,-2.1039,-2.0589,-1.9234,-1.7876,-1.6608,-1.5581,-1.4241,-1.3368,-1.3364,-1.3368,-1.3238,-1.2815,-1.251,-1.2316,-1.2427,-1.2113,-1.18,-1.1609,-1.1891,-1.2054,-1.2054,-1.2332,-1.2488,-1.2488,-1.2488,-1.2423,-1.2284,-1.2277,-1.2125,-1.183,-1.1826,-1.1752,-1.1619,-1.1619,-1.1619,-1.1619,-1.1619,-1.1619,-1.1619,-1.1619,-1.1616,-1.1596,-1.1443,-1.1379,-1.1335,-1.0978,-1.0755,-1.0521,-1.0663,-1.0616,-1.049,-1.048,-1.0283,-0.9987,-0.998,-0.9876,-0.9822,-0.9822,-0.9822,-0.9822,-0.9822,-0.9822,-0.9822,-0.9822,-0.9819,-0.9815,-0.9815,-0.9703,-0.9542,-0.9476,-0.737,-0.5553,-0.5494,-0.2941,-0.1009,-0.1234,-0.0785,-0.0449,-0.0393,-0.0168,0.0,0.0,0.0,0.0,0.0,0.0,0.0,0.0,0.0,0.0,0.0,0.0,0.0,0.0,0.0,0.0,0.0,0.0,0.0,0.0,0.0,0.0,-1.814,-1.911,-1.9947,-1.9984,-2.0435,-2.0842,-2.0942,-2.1042,-2.1109,-2.1109,-2.0802,-2.0458,-2.0145,-1.8825,-1.7541,-1.6685,-1.5504,-1.4426,-1.3669,-1.3551,-1.3417,-1.3051,-1.3049,-1.2942,-1.2729,-1.2259,0.0,-1.18,-1.2105,-1.2247,-1.2132,-1.2342,-1.2501,-1.2501,-1.2501,-1.2478,-1.243,-1.2338,-1.2189,-1.1982,-1.1786,-1.1664,-1.1619,-1.1619,-1.1619,-1.1619,-1.1619,-1.1619,-1.1619,-1.1619,-1.1619,-1.1603,-1.145,-1.1392,-1.1365,-1.1165,-1.0965,-1.0785,-1.0738,-1.0687,-1.0626,-1.0524,-1.0361,-1.0181,-1.0017,-0.9879,-0.9822,-0.9822,-0.9822,-0.9822,-0.9822,-0.9822,-0.9822,-0.9822,-0.9822,-0.9822,-0.9822,-0.9785,-0.948,-0.8605,-0.7681,-0.6776,-0.5891,-0.3944,-0.2133,-0.0971,-0.0565,-0.0393,-0.0393,-0.0167,0.0,0.0,0.0,0.0,0.0,0.0,0.0,0.0,0.0,0.0,0.0,0.0,0.0,0.0,0.0,0.0,0.0,0.0,0.0,0.0,0.0,0.0,-1.9403,-2.0245,-2.0865,-2.0903,-2.1078,-2.1299,-2.1299,-2.1092,-2.0922,-2.0815,-2.0327,-1.986,-1.9555,-1.8191,-1.692,-1.6285,-1.5219,-1.4317,-1.3751,-1.3685,-1.3579,-1.3405,-1.3433,-1.3421,-1.3203,-1.2904,0.0,-1.2232,-1.2594,-1.2681,-1.2508,-1.2647,-1.2733,-1.2733,-1.2579,-1.2501,-1.2501,-1.2413,-1.2264,-1.2132,-1.1813,-1.167,-1.1619,-1.1619,-1.1619,-1.1619,-1.1619,-1.1619,-1.1619,-1.1619,-1.1619,-1.1609,-1.1511,-1.147,-1.1453,-1.1301,-1.1185,-1.1077,-1.0873,-1.0765,-1.0704,-1.0605,-1.0473,-1.0337,-1.0236,-1.0,-0.99,-0.99,-0.9863,-0.9822,-0.9822,-0.9822,-0.9822,-0.9822,-0.9822,-0.9822,-0.9822,-0.9822,-0.9549,-0.8672,-0.8136,-0.7544,-0.6636,-0.4772,-0.2928,-0.145,-0.0747,-0.0398,-0.0281,-0.0111,0.0,0.0,0.0,0.0,0.0,0.0,0.0,0.0,0.0,0.0,0.0,0.0,0.0,0.0,0.0,0.0,0.0,0.0,0.0,0.0,0.0,0.0,-2.0867,-2.1267,-2.1391,-2.1956,-2.1859,-2.1607,-2.1587,-2.1098,-2.0548,-2.0247,-1.97,-1.8918,-1.7563,-1.6164,-1.5051,-1.4685,-1.3669,-1.3175,-1.3803,-1.377,-1.3734,-1.3896,-1.3778,-1.3746,-1.39,-1.3932,0.0,-1.2922,0.0,-1.3416,-1.32,-1.3184,-1.312,-1.312,-1.2733,-1.2501,-1.2501,-1.2494,-1.2345,-1.2135,-1.1904,-1.1755,-1.1619,-1.1619,-1.1619,-1.1619,-1.1619,-1.1619,-1.1619,-1.1619,-1.1619,-1.1619,-1.1619,-1.1619,-1.1603,-1.1457,-1.1399,-1.1352,-1.106,-1.086,-1.0731,-1.0721,-1.0616,-1.049,-1.049,-1.029,-0.9997,-0.9987,-0.9883,-0.9832,-0.9822,-0.9822,-0.9822,-0.9822,-0.9822,-0.9822,-0.9822,-0.9822,-0.9822,-0.9822,-0.8802,-0.7874,-0.7806,-0.5459,-0.3352,-0.2646,-0.1471,-0.0466,-0.0056,0.0,0.0,0.0,0.0,0.0,0.0,0.0,0.0,0.0,0.0,0.0,0.0,0.0,0.0,0.0,0.0,0.0,0.0,0.0,0.0,0.0,0.0,0.0,-2.1046,-2.1732,-2.225,-2.2118,-2.1859,-2.1553,-2.1327,-2.0632,-1.994,-1.9646,-1.8764,-1.7928,-1.759,-1.6874,-1.607,-1.5059,-1.4826,-1.4536,-1.3977,-1.3981,-1.4058,-1.4103,-1.418,-1.4196,-1.4115,-1.4347,0.0,0.0,-1.3835,-1.3652,-1.3427,-1.3476,-1.3586,-1.3586,-1.3123,-1.2969,-1.2969,-1.2549,-1.225,-1.2135,-1.1904,-1.1755,-1.1619,-1.1619,-1.1619,-1.1619,-1.1619,-1.1619,-1.1619,-1.1619,-1.1619,-1.1619,-1.1619,-1.1619,-1.1613,-1.1575,-1.1491,-1.1365,-1.1175,-1.1012,-1.0803,-1.0758,-1.0616,-1.049,-1.049,-1.0365,-1.0198,-1.0017,-0.996,-0.9903,-0.9849,-0.9822,-0.9822,-0.9822,-0.9822,-0.9822,-0.9822,-0.9822,-0.9822,-0.9822,-0.9546,-0.8972,-0.8055,-0.7053,-0.5671,-0.3468,-0.2664,-0.1759,-0.0175,0.0,0.0,0.0,0.0,0.0,0.0,0.0,0.0,0.0,0.0,0.0,0.0,0.0,0.0,0.0,0.0,0.0,0.0,0.0,0.0,0.0,0.0,0.0,-2.1018,-2.1527,-2.1776,-2.1853,-2.1756,-2.1513,-2.0946,-1.9999,-1.9032,-1.8343,-1.7462,-1.6814,-1.6814,-1.5893,-1.5094,-1.4887,-1.4484,-1.412,-1.4067,-1.4111,-1.4265,-1.4497,-1.4542,-1.4546,-1.4525,-1.4704,-1.4777,0.0,-1.4446,-1.4231,-1.402,-1.4038,-1.3975,-1.3975,-1.3586,-1.3355,-1.3355,-1.3038,-1.2765,-1.2456,-1.2366,-1.2062,-1.1711,-1.1711,-1.1677,-1.1619,0.0,-1.1619,-1.1619,-1.1619,-1.1619,-1.1619,-1.1619,-1.1619,-1.1619,-1.1619,-1.1565,-1.147,-1.1314,-1.1165,-1.1006,-1.0792,-1.0663,-1.0592,-1.0592,-1.049,-1.0341,-1.0192,-1.0041,-0.9953,-0.9863,-0.9822,-0.9822,-0.9822,-0.9822,-0.9822,-0.9822,-0.9822,-0.9822,-0.9822,-0.9822,-0.9576,-0.8839,-0.8107,-0.6854,-0.4616,-0.3619,-0.2461,-0.0661,-0.0297,-0.0177,0.0,0.0,0.0,0.0,0.0,0.0,0.0,0.0,0.0,0.0,0.0,0.0,0.0,0.0,0.0,0.0,0.0,0.0,0.0,0.0,0.0,-2.075,-2.0956,-2.0683,-2.1285,-2.141,-2.1227,-2.0315,-1.9178,-1.7983,-1.6827,-1.6119,-1.5705,-1.5665,-1.4248,-1.3383,-1.4323,-1.3364,-1.2909,-1.3989,-1.4164,-1.4375,-1.4903,-1.4834,-1.481,-1.4984,-1.5,-1.5013,-1.5037,-1.5041,-1.4952,-1.4753,-1.4585,-1.4442,-1.4365,-1.3975,-1.374,-1.3663,-1.3663,-1.3425,-1.2957,-1.2957,-1.2578,-1.1934,-1.1913,-1.1765,-1.1647,-1.163,-1.1619,-1.1619,-1.1619,-1.1619,-1.1619,-1.1619,-1.1619,-1.1619,-1.1619,-1.1619,-1.1599,-1.1443,-1.1304,-1.1145,-1.0846,-1.0734,-1.0721,-1.0721,-1.0626,-1.049,-1.0348,-1.0212,-1.0007,-0.9897,-0.9849,-0.9846,-0.9825,-0.9822,-0.9822,-0.9822,-0.9822,-0.9822,-0.9822,-0.9822,-0.9822,-0.9822,-0.89,-0.7551,-0.5716,-0.4492,-0.308,-0.1296,-0.0724,-0.0415,-0.0119,0.0,0.0,0.0,0.0,0.0,0.0,0.0,0.0,0.0,0.0,0.0,0.0,0.0,0.0,0.0,0.0,0.0,0.0,0.0,0.0,-1.9973,-2.0265,-2.0195,-2.0329,-2.0191,-1.9813,-1.8948,-1.8041,-1.7166,-1.6179,-1.5518,-1.5037,-1.4796,-1.3842,-1.3226,-1.3637,-1.2925,-1.2726,-1.3798,-1.4083,-1.4375,-1.4903,-1.494,-1.4992,-1.5175,-1.5191,0.0,0.0,-1.5419,-1.5273,-1.494,-1.4875,-1.4741,-1.4442,-1.4288,-1.4053,-1.3663,-1.3663,-1.3582,-1.3415,-1.3415,-1.3089,-1.254,-1.2409,-1.2185,-1.1786,-1.167,0.0,-1.1619,-1.1619,-1.1619,-1.1619,-1.1619,-1.1619,-1.1619,-1.1619,-1.1619,-1.1599,-1.1443,-1.1372,-1.1304,-1.0938,-1.0756,-1.0721,-1.0721,-1.07,-1.0649,-1.0497,-1.0436,-1.0351,-1.0017,-0.9947,-0.9916,-0.9849,-0.9822,-0.9822,-0.9822,-0.9822,-0.9822,-0.9822,-0.9822,-0.9822,-0.9822,-0.9636,-0.8653,-0.6204,-0.5592,-0.449,-0.179,-0.086,-0.049,-0.0429,-0.0184,0.0,0.0,0.0,0.0,0.0,0.0,0.0,0.0,0.0,0.0,0.0,0.0,0.0,0.0,0.0,0.0,0.0,0.0,0.0,-1.7936,-1.8262,-1.8262,-1.8262,-1.8348,-1.8298,-1.7346,-1.6676,-1.6009,-1.5118,-1.4703,-1.4462,-1.4322,-1.3444,-1.2788,-1.3029,-1.2339,-1.2117,-1.3197,-1.3583,-1.4026,-1.4745,-1.4996,-1.5143,-1.5154,-1.5325,-1.5419,-1.5508,-1.5516,-1.5439,-1.526,-1.5159,-1.4988,-1.4745,-1.4741,-1.4588,-1.4353,-1.4353,-1.4237,-1.4007,-1.4007,-1.3539,-1.2774,-1.2771,-1.2349,-1.1826,-1.1759,-1.1687,-1.1619,-1.1619,-1.1619,-1.1619,-1.1619,-1.1619,-1.1619,-1.1619,-1.1619,-1.1609,-1.1535,-1.1457,-1.1355,-1.1131,-1.0962,-1.0756,-1.0744,-1.0721,-1.0687,-1.0534,-1.049,-1.0443,-1.0226,-1.011,-0.9967,-0.9896,-0.988,-0.9822,-0.9822,-0.9822,-0.9822,-0.9822,-0.9822,-0.9822,-0.9822,-0.9822,-0.9147,-0.7243,-0.6326,-0.5161,-0.3018,-0.1727,-0.0926,-0.0803,-0.0432,-0.0247,-0.0247,-0.0123,-0.0062,-0.0247,-0.0123,-0.0062,-0.0247,-0.0123,0.0,0.0,0.0,0.0,0.0,0.0,0.0,0.0,0.0,-0.0123,-1.5873,-1.6133,-1.6133,-1.6133,-1.6428,-1.654,-1.5856,-1.5365,-1.4842,-1.3968,-1.3786,-1.3786,-1.3786,-1.279,-1.2106,-1.2636,-1.181,-1.15,-1.2621,-1.3157,-1.3734,-1.455,-1.5,-1.5252,-1.5293,-1.5463,0.0,-1.5626,-1.5593,-1.5536,-1.5459,-1.5317,-1.5155,-1.4972,-1.4964,-1.4964,-1.4964,-1.4964,-1.4814,-1.4515,-1.4515,-1.4057,-1.3239,-1.3127,-1.2657,-1.2028,-1.1843,-1.1748,-1.1619,-1.1619,-1.1619,-1.1619,-1.1619,-1.1619,-1.1619,-1.1619,-1.1619,-1.1619,-1.1619,-1.1541,-1.1413,-1.126,-1.1094,-1.0853,-1.0765,-1.0721,-1.0697,-1.0575,-1.0541,-1.0507,-1.0365,-1.0236,-1.0065,-1.0004,-0.9896,-0.9863,-0.9829,-0.9822,-0.9822,-0.9822,-0.9822,-0.9822,-0.9822,-0.9822,-0.939,-0.8102,-0.6754,-0.5406,-0.4059,-0.2528,-0.1482,-0.1235,-0.0864,-0.0556,-0.0494,-0.0247,-0.0247,-0.0494,-0.0247,-0.0247,-0.0617,-0.037,-0.0185,-0.0185,-0.0123,-0.0123,-0.0185,-0.0123,-0.0123,-0.0185,-0.0185,-0.037,-1.4753,-1.5057,-1.5057,-1.5057,-1.478,-1.462,-1.4603,-1.4271,-1.3707,-1.2966,-1.2833,-1.2833,-1.2833,-1.152,-1.0913,-1.2459,-1.1578,-1.1171,-1.2414,-1.3185,-1.3756,-1.4391,-1.4843,-1.5305,-1.5472,-1.5646,-1.5817,-1.5901,-1.5845,-1.561,-1.5281,-1.5248,-1.5155,-1.4972,-1.4964,-1.4964,-1.4964,-1.4964,-1.4968,-1.4968,-1.4968,-1.4733,-1.4257,-1.3714,-1.3168,-1.2554,-1.2041,-1.1748,0.0,-1.1619,-1.1619,-1.1619,-1.1619,-1.1619,-1.1619,-1.1619,-1.1619,-1.1619,-1.1619,-1.1609,-1.1572,-1.1419,-1.1179,-1.0853,-1.0765,-1.0721,-1.0717,-1.0704,-1.07,-1.0663,-1.051,-1.0463,-1.0385,-1.0051,-0.9977,-0.9926,-0.9849,-0.9822,-0.9822,-0.9822,-0.9822,-0.9822,-0.9822,-0.9822,-0.939,-0.8102,-0.6754,-0.5406,-0.4059,-0.2774,-0.1915,-0.1915,-0.1359,-0.0803,-0.0556,-0.0494,-0.0494,-0.0494,-0.0494,-0.0617,-0.0926,-0.0926,-0.0926,-0.0926,-0.0617,-0.0617,-0.0926,-0.0617,-0.0617,-0.0926,-0.0926,-0.0926,-1.3241,-1.3833,-1.4207,-1.3752,-1.3398,-1.3317,-1.3769,-1.3579,-1.3193,-1.2781,-1.2705,-1.2534,-1.1972,-1.094,-1.0441,-1.1238,-1.0564,-1.0302,-1.1293,-1.1967,-1.271,-1.3677,-1.446,-1.5078,-1.5476,-1.5772,-1.5967,-1.604,-1.5979,-1.578,-1.5423,-1.5301,-1.5155,-1.4972,-1.4964,-1.4964,-1.4964,-1.4964,-1.4964,-1.4964,-1.4964,-1.4818,-1.4357,-1.3797,-1.3179,-1.2653,-1.2045,-1.1748,0.0,-1.1619,-1.1619,-1.1619,-1.1619,-1.1619,-1.1619,-1.1619,-1.1619,-1.1619,-1.1619,-1.1619,-1.1596,-1.144,-1.1311,-1.1168,-1.0931,-1.0729,-1.0721,-1.0721,-1.0721,-1.0707,-1.0643,-1.0561,-1.0439,-1.0236,-1.0188,-1.0144,-0.993,-0.9896,-0.9869,-0.9839,-0.9822,-0.9822,-0.9822,-0.9822,-0.9636,-0.9143,-0.7917,-0.6938,-0.6385,-0.4429,-0.3142,-0.3142,-0.2036,-0.1235,-0.1111,-0.0926,-0.0803,-0.0803,-0.0803,-0.0864,-0.0988,-0.0988,-0.0988,-0.0988,-0.0864,-0.0864,-0.0988,-0.0864,-0.0864,-0.0988,-0.0988,-0.1117,-1.2147,-1.2746,-1.3238,-1.2661,-1.227,-1.217,-1.2753,-1.2578,-1.2189,-1.1935,-1.1886,-1.1666,-1.102,-1.0236,-0.9889,-1.0431,-0.9897,-0.975,-1.0647,-1.133,-1.2125,-1.3165,-1.4034,-1.4761,-1.5301,-1.5772,-1.5962,-1.5962,-1.5995,-1.5833,-1.5532,-1.5338,-1.5155,-1.4972,-1.4964,-1.4964,-1.4964,-1.4964,-1.4964,-1.4964,-1.4964,-1.4814,-1.4584,-1.3797,-1.3255,-1.2877,-1.2118,-1.1748,0.0,-1.1619,-1.1619,-1.1619,-1.1619,-1.1619,-1.1619,-1.1619,-1.1619,-1.1619,-1.1619,-1.1619,-1.1603,-1.1494,-1.1426,-1.1345,-1.1087,-1.0907,-1.0778,-1.0731,-1.0721,-1.0721,-1.0721,-1.0639,-1.0524,-1.0378,-1.0341,-1.03,-1.0151,-1.0017,-0.9957,-0.9849,-0.9852,-0.9822,-0.9822,-0.9822,-0.9822,-0.9822,-0.8714,-0.7919,-0.7919,-0.5529,-0.3875,-0.3875,-0.2528,-0.1606,-0.1482,-0.1297,-0.1173,-0.1173,-0.1173,-0.1173,-0.1297,-0.1297,-0.1297,-0.1297,-0.1173,-0.1173,-0.1297,-0.1173,-0.1176,-0.1305,-0.1305,-0.1443,-1.1585,-1.1906,-1.204,-1.2036,-1.15,-1.1108,-1.1426,-1.1019,-1.0406,-1.0031,-0.9946,-0.9946,-0.9903,-0.9213,-0.9038,-1.0269,-1.001,-0.9937,-1.0838,-1.1736,-1.2495,-1.3031,-1.3742,-1.4391,-1.4919,-1.5622,-1.5962,-1.5962,-1.5878,0.0,-1.5524,-1.5338,-1.5155,-1.4972,-1.4964,-1.4964,-1.4964,-1.4964,-1.4964,-1.4964,-1.4964,-1.4964,-1.496,-1.3946,-1.3405,-1.3249,-1.2265,-1.1748,0.0,-1.1619,-1.1619,-1.1619,-1.1619,-1.1619,-1.1619,-1.1619,-1.1619,-1.1619,-1.1619,-1.1619,-1.1619,-1.1616,-1.1514,-1.1362,-1.1206,-1.106,-1.0847,-1.0761,-1.0721,-1.0721,-1.0721,-1.0717,-1.068,-1.0524,-1.049,-1.0453,-1.031,-1.0158,-0.9987,-0.9984,-0.9862,-0.9822,-0.9822,-0.9822,-0.9822,-0.9822,-0.8714,-0.7919,-0.7919,-0.5529,-0.3875,-0.3875,-0.2774,-0.1853,-0.1544,-0.1482,-0.1482,-0.1482,-0.1482,-0.1667,-0.1977,-0.1977,-0.1977,-0.1977,-0.1667,-0.1667,-0.1977,-0.1667,-0.1679,-0.2018,-0.2018,-0.205,-1.0665,-1.098,-1.1273,-1.1147,-1.0765,-1.0571,-1.1038,-1.0813,-1.0401,-0.9987,-0.9903,-0.9733,-0.913,-0.8784,-0.8935,-0.9905,-0.9925,-1.0119,-1.1017,-1.1813,-1.2548,-1.3206,-1.4456,-1.5382,-1.5675,-1.591,-1.5962,-1.5962,-1.5878,-1.5699,-1.5524,-1.5338,-1.5155,-1.4972,-1.4964,-1.4964,-1.4964,-1.4964,-1.4964,-1.4964,-1.4964,-1.4891,-1.458,-1.3759,-1.3155,-1.2869,-1.2015,-1.166,-1.1619,-1.1619,-1.1619,-1.1619,-1.1619,-1.1619,-1.1619,-1.1619,-1.1619,-1.1619,-1.1619,-1.1619,-1.1619,-1.1619,-1.1586,-1.1518,-1.1365,-1.1145,-1.085,-1.0765,-1.0721,-1.0721,-1.0721,-1.0721,-1.0707,-1.066,-1.0649,-1.0609,-1.0456,-1.0385,-1.029,-1.0024,-0.995,-0.9883,-0.9839,-0.9822,-0.9822,-0.9822,-0.9454,-0.9207,-0.9207,-0.7673,-0.6263,-0.5345,-0.406,-0.2897,-0.1914,-0.1853,-0.1729,-0.1544,-0.1729,-0.1791,-0.1667,-0.1853,-0.1977,-0.1977,-0.1915,-0.1915,-0.1977,-0.1871,-0.1894,-0.205,-0.2071,-0.2091,-0.9868,-1.0253,-1.0534,-1.0416,-1.0172,-1.0015,-1.0228,-1.0041,-0.9767,-0.9451,-0.9428,-0.9257,-0.8696,-0.8612,-0.8837,-0.9478,-0.9644,-1.0022,-1.0992,-1.1748,-1.2568,-1.3559,-1.4737,-1.5541,-1.5723,-1.5845,-1.6016,-1.5947,-1.5837,-1.5666,-1.5423,-1.5301,-1.5155,-1.4972,-1.4964,-1.4964,-1.4964,-1.4964,-1.4891,-1.4741,-1.4741,-1.4588,-1.4118,-1.3405,-1.2958,-1.2643,-1.1894,-1.1619,0.0,-1.1619,-1.1619,-1.1619,-1.1619,-1.1619,-1.1619,-1.1619,-1.1619,-1.1619,-1.1619,-1.1619,-1.1619,-1.1619,-1.1582,-1.1504,-1.1352,-1.1138,-1.085,-1.0765,-1.0721,-1.0721,-1.0721,-1.0721,-1.0707,-1.0649,-1.0677,-1.0677,-1.0524,-1.049,-1.0436,-1.0253,-1.0175,-1.0086,-0.9934,-0.9845,-0.9886,-0.9829,-0.9822,-0.9822,-0.9822,-0.8714,-0.7551,-0.6754,-0.4977,-0.357,-0.2774,-0.2284,-0.1915,-0.1729,-0.1915,-0.1915,-0.1667,-0.1915,-0.1977,-0.1977,-0.1987,-0.1992,-0.1992,-0.2033,-0.2063,-0.2082,-0.2112,-0.2126,0.0,-0.9657,-0.9791,-0.9791,-0.9681,-0.9482,-0.9137,-0.8934,0.0,-0.8649,-0.8612,-0.862,-0.8661,-0.8649,-0.8767,-0.9141,-0.9404,-0.989,-1.0895,-1.1703,-1.2698,-1.4087,-1.4712,-1.509,-1.526,-1.5651,-1.5955,-1.5784,-1.5748,-1.5589,-1.5256,-1.5228,-1.5143,-1.4972,-1.4964,-1.4964,-1.4964,-1.4964,-1.4818,-1.4365,-1.4365,-1.4133,-1.3652,-1.2953,-1.266,0.0,-1.1894,-1.1619,-1.1619,-1.1619,-1.1619,-1.1619,-1.1619,-1.1619,-1.1619,-1.1619,-1.1619,-1.1619,-1.1619,-1.1619,-1.1619,-1.1619,-1.1525,-1.1379,-1.1226,-1.107,-1.085,-1.0765,-1.0721,-1.0721,-1.0721,-1.0721,-1.0683,-1.0541,-1.0616,-1.068,-1.0538,-1.05,-1.0487,-1.048,-1.0361,-1.0215,-0.9997,-0.997,-0.9923,-0.9842,-0.9822,-0.9822,-0.9822,-0.8778,-0.7978,-0.7795,-0.5529,-0.3937,-0.3753,-0.2652,-0.1977,-0.1977,-0.1977,-0.1977,-0.1977,-0.1978,-0.1979,-0.1979,-0.2007,-0.2022,-0.2025,-0.2082,-0.211,-0.2113,-0.2142,-0.2222,-0.8475,0.0,-0.8922,-0.8922,-0.8946,-0.8954,0.0,-0.8759,-0.8771,-0.8649,-0.8612,-0.8735,-0.9143,-0.8946,-0.91,-1.0148,-1.0473,-1.0871,-1.1671,-1.2873,-1.4002,-1.4883,-1.5342,-1.5601,-1.5642,-1.576,-1.5821,-1.5776,-1.552,-1.5329,-1.5244,-1.5106,-1.5009,-1.4968,-1.4964,-1.4964,-1.4964,-1.4964,-1.4818,-1.4365,-1.4365,-1.3975,-1.3267,-1.2878,-1.2511,-1.2192,-1.1821,-1.1619,-1.1619,-1.1619,-1.1619,-1.1619,-1.1619,-1.1619,-1.1619,-1.1619,-1.1619,-1.1619,-1.1619,-1.1619,-1.1619,-1.1619,-1.1596,-1.1538,-1.1385,-1.1155,-1.085,-1.0765,-1.0721,-1.0721,-1.0721,-1.0721,-1.0711,-1.0673,-1.0694,-1.0711,-1.0673,-1.0575,-1.046,-1.0351,-1.0209,-0.9994,-0.99,-0.9876,-0.9863,-0.9825,-0.9822,-0.9822,-0.9822,-0.9515,-0.8593,-0.6569,-0.5835,-0.4613,-0.259,-0.2161,-0.1977,-0.1977,-0.1977,-0.1977,-0.1977,-0.1997,-0.2009,-0.2009,-0.2038,-0.2065,-0.2088,-0.2102,-0.2121,-0.2144,-0.2218,-0.2222,-0.8065,-0.8418,-0.8706,-0.8792,-0.8877,-0.8922,-0.8832,-0.8755,-0.8678,-0.8629,-0.8612,-0.8722,-0.9043,-0.9084,-0.9368,-1.0298,-1.0796,-1.1362,-1.2487,-1.353,-1.444,-1.5155,-1.5411,-1.5593,0.0,-1.5703,-1.5654,-1.5654,-1.5398,-1.5204,-1.5118,-1.5021,-1.4964,-1.4964,-1.4964,-1.4964,-1.4964,-1.4814,-1.4511,-1.4053,-1.3898,-1.3395,-1.2706,-1.2543,-1.2315,-1.1945,-1.1786,-1.1681,-1.1619,-1.1619,-1.1619,-1.1619,-1.1619,-1.1619,-1.1619,-1.1619,-1.1619,-1.1619,-1.1619,-1.1619,-1.1619,-1.1619,-1.1619,-1.1592,-1.1436,-1.128,-1.1121,-1.0965,-1.0924,-1.0907,-1.0843,-1.0759,-1.0789,-1.0649,-1.067,-1.07,-1.0629,-1.0551,-1.047,-1.0392,-1.0256,-1.0107,-0.9893,-0.9866,-0.9866,-0.9866,-0.9866,-0.9846,-0.9856,-0.9866,-0.9268,-0.7856,-0.6632,-0.53,-0.3918,-0.268,-0.199,-0.1977,-0.1977,-0.1982,-0.1995,-0.201,-0.2032,-0.206,-0.2076,-0.21,-0.213,-0.213,-0.2138,-0.2222,-0.2222,-0.223,-0.7988,-0.8491,-0.8926,-0.9031,-0.9096,-0.9129,-0.9104,-0.8865,-0.8694,-0.8694,-0.8694,-0.8727,-0.8978,-0.9271,-0.9722,-1.0322,-1.0867,-1.178,-1.3283,-1.3912,-1.446,-1.5118,-1.5224,-1.5358,-1.5662,-1.5557,-1.5472,-1.5472,-1.5301,-1.513,-1.4976,-1.4964,-1.4964,-1.4964,-1.4968,-1.4891,-1.4891,-1.4592,-1.413,-1.3586,-1.3252,-1.279,-1.2288,-1.224,-1.2077,-1.183,0.0,0.0,-1.1619,-1.1619,-1.1619,-1.1619,-1.1619,-1.1619,-1.1619,-1.1619,-1.1619,-1.1619,-1.1619,-1.1619,-1.1619,-1.1619,-1.1619,-1.1596,-1.1463,-1.1426,-1.1399,-1.1267,-1.1199,-1.1134,-1.1012,-1.0982,-1.0911,-1.0629,-1.066,-1.0714,-1.0561,-1.0507,-1.049,-1.049,-1.0378,-1.0239,-1.0107,-1.0024,-1.0024,-1.0024,-0.9975,-0.9937,-1.0004,-0.9889,-0.967,-0.93,-0.7253,-0.5748,-0.5336,-0.3274,-0.201,-0.1991,-0.199,-0.2003,-0.2031,-0.2033,-0.2059,-0.2115,-0.2116,-0.2129,-0.2222,-0.2227,-0.2227,-0.2222,-0.2227,-0.2173,-0.8343,-0.8914,-0.9253,-0.893,-0.9092,-0.9326,-0.9133,-0.9056,-0.9015,-0.9015,-0.9015,-0.921,-0.989,-1.0053,-1.0367,-1.1159,-1.2,-1.2901,-1.3912,-1.4249,-1.4546,-1.496,-1.5143,-1.5182,-1.5317,-1.5297,-1.5281,-1.5281,-1.511,-1.4996,-1.4968,-1.4964,-1.4964,-1.4964,-1.4665,-1.4519,-1.4519,-1.4442,-1.3975,-1.3197,-1.2984,-1.2681,-1.2281,-1.202,-1.1874,-1.1823,0.0,-1.164,-1.1619,-1.1619,-1.1619,-1.1619,-1.1619,-1.1619,-1.1619,-1.1619,-1.1619,-1.1619,-1.1619,-1.1619,-1.1619,-1.1619,-1.1619,-1.1616,-1.1592,-1.1586,-1.1579,-1.1555,-1.1362,-1.1158,-1.1134,-1.1131,-1.1087,-1.0917,-1.083,-1.0803,-1.0717,-1.0582,-1.049,-1.049,-1.0378,-1.0273,-1.0249,-1.0246,-1.0246,-1.0246,-1.0226,-1.0219,-1.0243,-1.011,-0.9137,-0.6885,-0.619,-0.5008,-0.2769,-0.2207,-0.2027,-0.2049,-0.2114,-0.2064,-0.2094,-0.2095,-0.2112,-0.2214,-0.2215,-0.2217,-0.2222,-0.2181,-0.218,-0.2223,-0.2181,-0.2182,-0.8126,-0.8658,-0.9096,-0.9226,-0.9669,-1.003,-0.986,-0.9742,-0.9673,-0.9673,-0.9673,-0.9803,-1.0229,-1.0542,-1.109,-1.2182,-1.2954,-1.3624,-1.4229,-1.4469,-1.4676,-1.4935,0.0,-1.513,-1.5228,-1.5147,-1.513,-1.5154,-1.507,-1.4964,-1.4964,-1.4964,-1.4891,-1.4669,-1.4519,-1.4207,-1.3667,-1.3667,-1.3509,-1.312,-1.2814,-1.2543,-1.2166,-1.2108,-1.1945,-1.1718,0.0,-1.1691,-1.1619,-1.1619,-1.1619,-1.1619,-1.1619,-1.1619,-1.1619,-1.1619,-1.1619,-1.1619,-1.1619,-1.1619,-1.1619,-1.1619,-1.1619,-1.1619,-1.1619,-1.1619,-1.1619,-1.1619,-1.1518,-1.1392,-1.1307,-1.1287,-1.125,-1.1101,-1.1006,-1.086,-1.0793,-1.066,-1.049,-1.049,-1.0378,-1.028,-1.028,-1.028,-1.0307,-1.0382,-1.0331,-1.031,-1.0385,-1.0266,-0.9727,-0.852,-0.7016,-0.5577,-0.4377,-0.2905,-0.2066,-0.2128,-0.2079,-0.2095,-0.2108,-0.2125,-0.214,-0.2222,-0.1967,-0.1906,-0.1906,-0.1933,-0.1933,-0.1907,-0.2125,-0.2202,-0.802,-0.8475,-0.895,-0.9441,-1.0038,-1.0465,-1.0542,-1.0355,-1.0261,-1.0375,-1.0412,-1.0452,-1.0595,-1.1122,-1.1894,-1.2982,-1.3648,-1.4119,-1.4391,-1.4627,-1.4818,-1.4952,-1.4964,-1.5021,-1.5159,-1.5049,-1.5025,-1.5167,-1.5045,-1.4964,-1.4964,-1.4891,-1.4741,-1.4442,-1.4211,-1.3744,-1.3123,-1.3046,-1.2965,-1.2965,-1.2587,-1.2281,-1.2064,-1.2111,-1.1945,-1.1626,-1.1735,-1.1718,-1.1619,-1.1619,-1.1619,-1.1619,-1.1619,-1.1619,-1.1619,-1.1619,-1.1619,-1.1619,-1.1619,-1.1619,-1.1619,-1.1619,-1.1619,-1.1619,-1.1619,-1.1619,-1.1619,-1.1619,-1.1619,-1.1592,-1.1474,-1.1443,-1.1406,-1.1253,-1.1131,-1.1043,-1.1006,-1.0789,-1.0599,-1.0599,-1.0483,-1.0385,-1.0385,-1.0385,-1.0419,-1.0527,-1.0453,-1.0422,-1.0531,-1.0419,-1.0199,-0.994,-0.7658,-0.5949,-0.5315,-0.3235,-0.1978,-0.1956,-0.2041,-0.212,-0.212,-0.2142,-0.2158,-0.203,-0.1777,-0.1584,-0.145,-0.1611,-0.1677,-0.1581,-0.2,-0.2219,-0.838,-0.867,-0.895,-0.9441,-0.9615,-0.992,-1.0745,-1.0584,-1.04,-1.1009,-1.1147,-1.1151,-1.1163,-1.1878,-1.2661,-1.3254,-1.3937,-1.4399,-1.4428,0.0,-1.4952,-1.4964,-1.4964,-1.4968,-1.4984,-1.4976,-1.4972,-1.4984,-1.4976,-1.4964,-1.4964,-1.4669,-1.4442,-1.4365,-1.3586,-1.3123,-1.312,-1.2733,-1.2579,-1.2575,-1.2223,-1.2084,-1.2054,-1.1789,-1.165,-1.1619,-1.163,-1.163,-1.1619,-1.1619,-1.1619,-1.1619,-1.1619,-1.1619,-1.1619,-1.1619,-1.1619,-1.1619,-1.1619,-1.1619,-1.1619,-1.1619,-1.1619,-1.1619,-1.1619,-1.1619,-1.1619,-1.1619,-1.1619,-1.1616,-1.1606,-1.1603,-1.1565,-1.1409,-1.1365,-1.1321,-1.1179,-1.1026,-1.0847,-1.0847,-1.0792,-1.0687,-1.0687,-1.0687,-1.069,-1.0704,-1.0697,-1.069,-1.0704,-1.0571,-1.0016,-0.8773,-0.7186,-0.5175,-0.2632,-0.1934,-0.1613,-0.1611,-0.2016,-0.2218,-0.2218,-0.2221,-0.2032,-0.1647,-0.1649,-0.1453,-0.1121,-0.1491,-0.1693,-0.1582,-0.202,-0.2228,-0.8,-0.8641,-0.9202,-0.9405,-0.9876,-1.0408,-1.0867,-1.1155,-1.1464,-1.1955,-1.2056,-1.2056,-1.2056,-1.243,-1.2909,-1.3453,-1.3953,-1.4351,-1.4574,-1.4814,-1.4964,-1.4964,-1.4964,-1.4964,-1.4964,-1.4964,-1.4964,-1.4964,-1.4741,-1.4669,-1.4669,-1.4207,-1.3821,-1.3586,-1.3278,-1.2965,-1.2733,-1.249,-1.2369,-1.2369,-1.2257,-1.2152,-1.2054,-1.1847,-1.1701,-1.1619,-1.1619,-1.1619,-1.1619,-1.1619,-1.1619,-1.1619,-1.1619,-1.1619,-1.1619,-1.1619,-1.1619,-1.1619,-1.1619,-1.1619,-1.1619,-1.1619,-1.1619,-1.1619,-1.1619,-1.1619,-1.1619,-1.1619,-1.1619,-1.1619,-1.1619,-1.1619,-1.1606,-1.1548,-1.146,-1.1375,-1.1318,-1.1185,-1.1084,-1.1084,-1.1036,-1.0995,-1.0995,-1.0995,-1.0965,-1.0806,-1.0796,-1.0759,-1.0731,-1.0555,-0.9831,-0.8344,-0.5878,-0.3579,-0.1671,-0.1353,-0.1291,-0.1279,-0.1414,-0.1548,-0.1548,-0.1494,-0.1436,-0.1306,-0.1048,-0.0848,-0.071,-0.1152,-0.1215,-0.0905,-0.1553,-0.1763,-0.7797,-0.85,-0.9238,-0.9417,-0.9967,-1.0555,-1.0959,-1.1542,-1.2097,-1.2621,-1.269,-1.2686,-1.2664,-1.2807,-1.3009,-1.3358,-1.3873,-1.4282,-1.4578,-1.4773,-1.4907,-1.496,-1.4964,-1.4964,-1.4964,-1.4891,-1.4814,-1.4814,-1.4438,-1.4207,-1.4207,-1.3744,-1.3355,-1.3123,-1.2919,-1.2741,-1.2433,-1.2291,-1.222,-1.222,-1.2169,-1.2091,-1.1982,-1.1833,-1.1711,-1.1619,-1.1619,-1.1619,-1.1619,-1.1619,-1.1619,-1.1619,-1.1619,-1.1619,-1.1619,-1.1619,-1.1619,-1.1619,-1.1619,-1.1619,-1.1619,-1.1619,-1.1619,-1.1619,-1.1619,-1.1619,-1.1619,-1.1619,-1.1619,-1.1619,-1.1619,-1.1619,-1.1619,-1.1619,-1.1538,-1.1463,-1.1463,-1.1345,-1.1236,-1.1236,-1.1126,-1.1023,-1.1023,-1.0885,-1.0783,-1.062,-1.0607,-1.0571,-1.047,-0.9931,-0.8744,-0.6675,-0.4518,-0.2641,-0.1229,-0.0963,-0.0896,-0.0887,-0.0818,-0.0885,-0.1084,-0.1099,-0.104,-0.0905,-0.0638,-0.043,-0.036,-0.0799,-0.0866,-0.0494,-0.1211,-0.1353,-0.7901,-0.8336,-0.8906,-0.936,-0.9702,-1.0135,-1.0979,-1.1538,-1.2036,-1.2917,-1.2962,-1.2817,-1.2821,-1.2946,0.0,-1.3095,-1.3726,-1.4233,-1.4404,-1.459,-1.4769,-1.494,-1.496,-1.496,-1.496,-1.4584,-1.4361,-1.4361,-1.3972,-1.366,-1.366,-1.327,-1.3116,-1.3116,-1.2592,-1.2288,-1.2288,-1.2135,-1.2135,-1.2057,-1.1901,-1.183,-1.1826,-1.1684,-1.1619,-1.1619,-1.1619,-1.1619,-1.1619,-1.1619,-1.1619,-1.1619,-1.1619,-1.1619,-1.1619,-1.1619,-1.1619,-1.1619,-1.1619,-1.1619,-1.1619,-1.1619,-1.1619,-1.1619,-1.1619,-1.1619,-1.1619,-1.1619,-1.1619,-1.1619,-1.1619,-1.1619,-1.1619,-1.1619,-1.1619,-1.1619,-1.1619,-1.1501,-1.1392,-1.1392,-1.0991,-1.0612,-1.0612,-1.0266,-0.9989,-0.9989,-0.9989,-0.9989,-0.9989,-0.866,-0.6565,-0.3569,-0.322,-0.2591,-0.1192,-0.0702,-0.0491,-0.0491,-0.021,-0.0349,-0.1032,-0.1115,-0.0918,-0.0501,-0.0501,-0.036,0.0,-0.0438,-0.058,-0.0501,-0.0931,-0.1074,-0.7746,-0.8371,-0.908,-0.9341,-1.0075,-1.0789,-1.1038,-1.1618,-1.2315,-1.2936,-1.2816,-1.2567,-1.2406,-1.2429,0.0,-1.2621,-1.2978,-1.3248,-1.3417,-1.3593,-1.3724,-1.3769,-1.3773,-1.3773,-1.3773,-1.3702,-1.3631,-1.3631,-1.3251,-1.3021,-1.3021,-1.2645,-1.2419,-1.2419,-1.2227,-1.2132,-1.2132,-1.1976,-1.1901,-1.1898,-1.1752,-1.1735,-1.1826,-1.1684,-1.1619,-1.1619,-1.1619,-1.1619,-1.1619,-1.1619,-1.1619,-1.1619,-1.1619,-1.1619,-1.1619,-1.1619,-1.1619,-1.1619,-1.1619,-1.1619,-1.1619,-1.1619,-1.1619,-1.1619,-1.1619,-1.1619,-1.1619,-1.1619,-1.1619,-1.1619,-1.1619,-1.1404,-1.126,-1.1548,-1.1404,-1.1188,-1.1188,-1.0934,-1.0755,-1.0755,-1.0649,-1.055,-1.055,-1.0407,-1.0306,-1.0144,-1.0129,-1.0061,-0.985,-0.8427,-0.6587,-0.4469,-0.3219,-0.193,-0.0421,-0.0212,-0.0142,-0.014,-0.0071,-0.0071,-0.0349,-0.0353,-0.0285,-0.0143,-0.0144,-0.0073,0.0,-0.0438,-0.0435,-0.0143,-0.0578,-0.0578,-0.7897,-0.859,-0.935,-0.9682,-1.0292,-1.086,-1.1119,-1.1779,-1.2436,-1.2877,-1.2704,-1.2437,-1.226,-1.2271,0.0,-1.2377,-1.2622,-1.2884,-1.298,-1.3092,-1.3181,-1.3327,-1.3334,-1.3334,-1.3334,-1.3182,-1.3033,-1.3033,-1.266,-1.2437,-1.2437,-1.2213,-1.2135,-1.2135,-1.2003,-1.1969,-1.1969,-1.1823,-1.1745,-1.1745,-1.166,-1.1664,-1.1745,-1.1657,-1.1619,-1.1619,-1.1619,-1.1619,-1.1619,-1.1619,-1.1619,-1.1619,-1.1619,-1.1619,-1.1619,-1.1619,-1.1619,-1.1619,-1.1619,-1.1619,-1.1619,-1.1619,-1.1619,-1.1619,-1.1619,-1.1619,-1.1619,-1.1619,-1.1619,-1.1548,-1.1404,-1.1188,-1.1044,-1.1332,-1.1041,-1.0822,-1.0822,-1.0675,-1.0527,-1.0527,-1.0383,-1.0239,-1.0239,-1.0095,-0.9997,-0.9852,-0.9841,-0.9552,-0.8765,-0.7254,-0.5603,-0.3955,-0.2319,-0.1014,-0.0071,0.0,0.0,0.0,0.0,0.0,0.0,0.0,0.0,0.0,0.0,0.0,0.0,-0.0219,-0.0218,0.0,-0.0218,-0.0218,-0.8177,-0.8855,-0.9596,-1.0231,-1.0396,-1.0633,-1.1287,-1.1801,-1.2266,-1.2663,-1.2544,-1.2355,-1.2166,-1.229,-1.2381,-1.2173,-1.2474,-1.2733,-1.2889,-1.2838,-1.2967,-1.3122,-1.3141,-1.3141,-1.3141,-1.284,-1.2618,-1.2618,-1.2246,-1.202,-1.202,-1.202,-1.202,-1.202,-1.1884,-1.1813,-1.1813,-1.1684,-1.1619,-1.1619,-1.1619,-1.1619,-1.1619,-1.1619,-1.1619,-1.1619,-1.1619,-1.1619,-1.1619,-1.1619,-1.1619,-1.1619,-1.1619,-1.1619,-1.1619,-1.1619,-1.1619,-1.1619,-1.1619,-1.1619,-1.1619,-1.1619,-1.1619,-1.1619,-1.1619,-1.1619,-1.1619,-1.1548,-1.1548,-1.1476,-1.1041,-1.0897,-1.0897,-1.0897,-1.0678,-1.0455,-1.0455,-1.0455,-1.0383,-1.0383,-1.0095,-0.9879,-0.9879,-0.9518,-0.9304,-0.9304,-0.9304,-0.8794,-0.7415,-0.5891,-0.4293,-0.2693,-0.1166,-0.0146,0.0,0.0,0.0,0.0,0.0,0.0,0.0,0.0,0.0,0.0,0.0,0.0,0.0,0.0,0.0,0.0,0.0,0.0,-0.7919,-0.844,-0.9109,-1.0,-1.0458,-1.0705,-1.0958,-1.1107,-1.1423,-1.2008,-1.1906,-1.1652,-1.1736,-1.1736,-1.1794,-1.176,-1.1832,-1.1842,-1.1877,-1.1883,-1.1894,-1.1928,-1.2004,-1.2004,-1.2004,-1.1859,-1.1859,-1.1859,-1.1787,-1.1714,-1.1714,-1.1714,-1.1714,-1.1714,-1.1684,-1.1664,-1.1664,-1.1636,-1.1619,-1.1619,-1.1619,-1.1619,-1.1619,-1.1619,-1.1619,-1.1619,-1.1619,-1.1619,-1.1619,-1.1619,-1.1619,-1.1619,-1.1619,-1.1619,-1.1619,-1.1619,-1.1619,-1.1619,-1.1619,-1.1619,-1.1619,-1.1619,-1.1619,-1.1619,-1.1619,-1.1619,-1.1548,-1.1188,-1.1116,-1.1041,-1.0675,-1.0386,-1.017,-1.017,-1.0095,-1.0023,-1.0023,-0.9807,-0.9593,-0.9593,-0.9521,-0.9449,-0.9449,-0.9377,-0.9304,-0.9304,-0.9304,-0.9157,-0.8868,-0.7487,-0.5891,-0.4366,-0.2766,-0.1311,-0.0073,0.0,0.0,0.0,0.0,0.0,0.0,0.0,0.0,0.0,0.0,0.0,0.0,0.0,0.0,0.0,0.0,0.0,-0.779,-0.8405,-0.9035,-1.0108,-1.05,-1.0741,-1.0819,-1.0772,-1.0904,-1.1406,-1.1375,-1.1328,-1.1484,-1.1511,-1.1535,-1.1606,-1.1619,-1.1619,-1.1619,-1.1619,-1.1619,-1.1619,-1.1619,-1.1619,-1.1619,-1.1619,-1.1619,-1.1619,-1.1619,-1.1619,-1.1619,-1.1619,-1.1619,-1.1619,-1.1619,-1.1619,-1.1619,-1.1619,-1.1619,-1.1619,-1.1619,-1.1619,-1.1619,-1.1619,-1.1619,-1.1619,-1.1619,-1.1619,-1.1619,-1.1619,-1.1619,-1.1619,-1.1619,-1.1619,-1.1619,-1.1619,-1.1619,-1.1619,-1.1619,-1.1619,-1.1619,-1.1619,-1.1619,-1.1619,-1.1619,-1.1476,-1.126,-1.1044,-1.0897,-1.0678,-1.0311,-1.0095,-0.9879,-0.9663,-0.959,-0.959,-0.959,-0.9449,-0.9304,-0.9304,-0.9304,-0.9304,-0.9304,-0.9304,-0.9304,-0.9304,-0.8649,-0.8213,-0.8213,-0.6177,-0.4436,-0.3638,-0.2112,-0.0875,-0.0073,0.0,0.0,0.0,0.0,0.0,0.0,0.0,0.0,0.0,0.0,0.0,0.0,0.0,0.0,0.0,0.0,0.0,-0.7543,-0.8312,-0.9121,-1.0168,-1.0551,-1.0687,-1.0714,-1.0721,-1.0755,-1.0816,-1.1023,-1.1172,-1.1324,-1.1352,-1.1392,-1.1518,-1.1541,-1.1548,-1.1575,-1.1582,-1.1589,-1.1616,-1.1619,-1.1619,-1.1619,-1.1619,-1.1619,-1.1619,-1.1619,-1.1619,-1.1619,-1.1619,-1.1619,-1.1619,-1.1619,-1.1619,-1.1619,-1.1619,-1.1619,-1.1619,-1.1619,-1.1619,-1.1619,-1.1619,-1.1619,-1.1619,-1.1619,-1.1619,-1.1619,-1.1619,-1.1619,-1.1619,-1.1619,-1.1619,-1.1619,-1.1619,-1.1619,-1.1619,-1.1619,-1.1619,-1.1619,-1.1619,-1.1619,-1.1619,-1.1548,-1.126,-1.0972,-1.0825,-1.0606,-1.0311,-0.9879,-0.9807,-0.9735,-0.9377,-0.9304,-0.9304,-0.9304,-0.9304,-0.9304,-0.9304,-0.9304,-0.9304,-0.9304,-0.9304,-0.9304,-0.9304,-0.8213,-0.727,-0.7053,-0.4509,-0.262,-0.2329,-0.0948,0.0,0.0,0.0,0.0,0.0,0.0,0.0,0.0,0.0,0.0,0.0,0.0,0.0,0.0,0.0,0.0,0.0,0.0,0.0,-0.6776,-0.7885,-0.9127,-0.9914,-1.0317,-1.0558,-1.069,-1.0721,-1.0724,-1.0748,-1.087,-1.1023,-1.1165,-1.1261,-1.1199,-1.1219,-1.1223,-1.127,-1.1402,-1.1419,-1.147,-1.1603,-1.1619,-1.1619,-1.1619,-1.1619,-1.1619,-1.1619,-1.1619,-1.1619,-1.1619,-1.1619,-1.1619,-1.1619,-1.1619,-1.1619,-1.1619,-1.1619,-1.1619,-1.1619,-1.1619,-1.1619,-1.1619,-1.1619,-1.1619,-1.1619,-1.1619,-1.1619,-1.1619,-1.1619,-1.1619,-1.1619,-1.1619,-1.1619,-1.1619,-1.1619,-1.1619,-1.1619,-1.1619,-1.1619,-1.1619,-1.1619,-1.1619,-1.1548,-1.1188,-1.1044,-1.0897,-1.0242,-1.0023,-0.9879,-0.9521,-0.9377,-0.9377,-0.9304,-0.9304,-0.9304,-0.9304,-0.9304,-0.9304,-0.9304,-0.9304,-0.9304,-0.9304,-0.9304,-0.9304,-0.9304,-0.916,-0.8504,-0.7197,-0.5454,-0.3857,-0.2475,-0.0948,0.0,0.0,0.0,0.0,0.0,0.0,0.0,0.0,0.0,0.0,0.0,0.0,0.0,0.0,0.0,0.0,0.0,0.0,0.0,-0.6987,-0.7868,-0.8764,-0.9595,-1.0025,-1.0307,-1.0538,-1.066,-1.0721,-1.0721,-1.0772,-1.0867,-1.1016,-1.1043,-1.107,-1.1151,-1.1231,-1.1185,-1.1253,-1.1263,-1.1287,-1.1355,-1.1362,-1.1399,-1.1484,-1.1491,-1.1528,-1.1613,-1.1619,-1.1619,-1.1619,-1.1619,-1.1619,-1.1619,-1.1619,-1.1619,-1.1619,-1.1619,-1.1619,-1.1619,-1.1619,-1.1619,-1.1619,-1.1619,-1.1619,-1.1619,-1.1619,-1.1619,-1.1619,-1.1619,-1.1619,-1.1619,-1.1619,-1.1619,-1.1619,-1.1619,-1.1619,-1.1548,-1.1332,-1.126,-1.126,-1.1038,-1.0966,-1.0962,-1.0746,-1.0534,-1.0314,-1.0023,-0.9735,-0.9518,-0.9377,-0.9304,-0.9304,-0.9304,-0.9304,-0.9304,-0.9304,-0.9304,-0.9304,-0.9304,-0.9304,-0.9304,-0.9304,-0.9304,-0.9304,-0.9304,-0.7851,-0.6471,-0.5818,-0.3567,-0.1821,-0.1093,-0.0438,0.0,0.0,0.0,0.0,0.0,0.0,0.0,0.0,0.0,0.0,0.0,0.0,0.0,0.0,0.0,0.0,0.0,0.0,0.0,-0.7007,-0.7614,-0.8147,-0.9045,-0.9547,-0.991,-1.0246,-1.047,-1.0619,-1.0656,-1.0694,-1.0755,-1.0803,-1.0823,-1.0928,-1.1033,-1.105,-1.1063,-1.1101,-1.1107,-1.1121,-1.1158,-1.1231,-1.1209,-1.1321,-1.1369,-1.144,-1.1552,-1.1596,-1.1619,-1.1619,-1.1619,-1.1619,-1.1619,-1.1619,-1.1619,-1.1619,-1.1619,-1.1619,-1.1619,-1.1619,-1.1619,-1.1619,-1.1619,-1.1619,-1.1619,-1.1619,-1.1619,-1.1619,-1.1619,-1.1619,-1.1619,-1.1619,-1.1619,-1.1619,-1.1476,-1.1476,-1.1404,-1.1041,-1.0897,-1.0822,-1.0599,-1.0527,-1.0455,-1.0383,-1.0167,-0.9879,-0.9807,-0.9518,-0.9304,-0.9304,-0.9304,-0.9304,-0.9304,-0.9304,-0.9304,-0.9304,-0.9304,-0.9304,-0.9304,-0.9304,-0.9157,-0.8794,-0.8721,-0.8721,-0.8721,-0.6398,-0.4729,-0.4729,-0.2258,-0.0438,-0.0073,0.0,0.0,0.0,0.0,0.0,0.0,0.0,0.0,0.0,0.0,0.0,0.0,0.0,0.0,0.0,0.0,0.0,0.0,0.0,0.0,-0.6281,-0.6759,-0.7214,-0.8116,-0.8828,-0.9371,-0.9754,-1.0086,-1.0341,-1.0477,-1.0619,-1.0721,-1.0731,-1.0731,-1.0734,-1.0741,-1.0744,-1.0795,-1.0873,-1.089,-1.1012,-1.1148,-1.1231,-1.1165,-1.1241,-1.1307,-1.1396,-1.1402,-1.1538,-1.1619,-1.1619,-1.1619,-1.1619,-1.1619,-1.1619,-1.1619,-1.1619,-1.1619,-1.1619,-1.1619,-1.1619,-1.1619,-1.1619,-1.1619,-1.1619,-1.1619,-1.1619,-1.1619,-1.1619,-1.1619,-1.1619,-1.1619,-1.1619,-1.1619,-1.1548,-1.1188,-1.1044,-1.0972,-1.0675,-1.0527,-1.0527,-1.0527,-1.0527,-1.0455,-1.0023,-0.9951,-0.9807,-0.9449,-0.9304,-0.9304,-0.9304,-0.9304,-0.9304,-0.9304,-0.9304,-0.9304,-0.9304,-0.9304,-0.9304,-0.9304,-0.9304,-0.8868,-0.7342,-0.7125,-0.7125,-0.7125,-0.5746,-0.4729,-0.4729,-0.3202,-0.1602,-0.0146,0.0,0.0,0.0,0.0,0.0,0.0,0.0,0.0,0.0,0.0,0.0,0.0,0.0,0.0,0.0,0.0,0.0,0.0,0.0,0.0,-0.6023,-0.6407,-0.6831,-0.7638,-0.8286,-0.8838,-0.9289,-0.9774,-1.0175,-1.0327,-1.0473,-1.0605,-1.0704,-1.0721,-1.0721,-1.0721,-1.0721,-1.0741,-1.0729,-1.0802,-1.0819,-1.0873,-1.088,-1.0917,-1.1016,-1.1073,-1.1145,-1.124,-1.1385,-1.1474,-1.1474,-1.1565,-1.1619,-1.1619,-1.1619,-1.1619,-1.1619,-1.1619,-1.1619,-1.1619,-1.1619,-1.1619,-1.1619,-1.1619,-1.1619,-1.1619,-1.1619,-1.1619,-1.1619,-1.1619,-1.1619,-1.1548,-1.1332,-1.1188,-1.1188,-1.0822,-1.0675,-1.0603,-1.0239,-1.0095,-1.0095,-0.9807,-0.9735,-0.9735,-0.9593,-0.9518,-0.9521,-0.9377,-0.9304,-0.9304,-0.9304,-0.9304,-0.9304,-0.9304,-0.9304,-0.9304,-0.9304,-0.9304,-0.9304,-0.9304,-0.8504,-0.7632,-0.7125,-0.6181,-0.5528,-0.5528,-0.4147,-0.3129,-0.3129,-0.1821,-0.0583,-0.0073,0.0,0.0,0.0,0.0,0.0,0.0,0.0,0.0,0.0,0.0,0.0,0.0,0.0,0.0,0.0,0.0,0.0,0.0,0.0,0.0,-0.5759,-0.6098,-0.6505,-0.7258,-0.778,-0.8265,-0.892,-0.9351,-0.9687,-1.0002,-1.0249,-1.0466,-1.0616,-1.0683,-1.0721,-1.0721,-1.0721,-1.0721,-1.0721,-1.0721,-1.0721,-1.0721,-1.0721,-1.0761,-1.0796,-1.085,-1.0989,-1.1084,-1.1229,0.0,-1.1314,-1.1409,-1.1491,-1.1541,-1.1541,-1.1565,-1.1619,-1.1619,-1.1619,-1.1619,-1.1619,-1.1619,-1.1619,-1.1619,-1.1619,-1.1619,-1.1476,-1.1476,-1.1619,-1.1476,-1.1404,-1.1332,-1.0969,-1.0822,-1.0822,-1.0458,-1.0311,-1.0239,-0.9807,-0.9735,-0.9663,-0.9377,-0.9304,-0.9304,-0.9304,-0.9304,-0.9304,-0.9304,-0.9304,-0.9304,-0.9304,-0.9304,-0.9304,-0.9304,-0.9304,-0.9304,-0.9304,-0.9304,-0.9304,-0.9304,-0.8068,-0.6833,-0.6326,-0.4946,-0.3929,-0.3929,-0.2548,-0.1748,-0.2256,-0.0948,0.0,0.0,0.0,0.0,0.0,0.0,0.0,0.0,0.0,0.0,0.0,0.0,0.0,0.0,0.0,0.0,0.0,0.0,0.0,0.0,0.0,0.0,0.0,0.0,0.0,-0.6883,-0.7234,-0.7587,-0.8472,0.0,-0.8979,-0.9496,-0.9937,-1.029,-1.0449,-1.0602,-1.0704,-1.0711,-1.0717,-1.0721,-1.0721,-1.0721,-1.0721,-1.0721,-1.0721,-1.0721,-1.0721,-1.0789,-1.0873,-1.0873,-1.1077,-1.1155,-1.1155,-1.1231,-1.1229,-1.1379,-1.1389,-1.1463,-1.1609,-1.1616,-1.1619,-1.1619,-1.1619,-1.1619,-1.1619,-1.1619,-1.1548,-1.1548,-1.1188,-1.1188,-1.1548,-1.1116,-1.0972,-1.0969,-1.0603,-1.0455,-1.0455,-1.0023,-0.9879,-0.9807,-0.9449,-0.9304,-0.9304,-0.9304,-0.9304,-0.9304,-0.9304,-0.9304,-0.9304,-0.9304,-0.9304,-0.9304,-0.9304,-0.9304,-0.9304,-0.9304,-0.9304,-0.9304,-0.9232,-0.9232,-0.9232,-0.9232,-0.7923,-0.6398,-0.4875,-0.3275,-0.2256,-0.2256,-0.0948,-0.051,-0.2039,-0.0948,0.0,0.0,0.0,0.0,0.0,0.0,0.0,0.0,0.0,0.0,0.0,0.0,0.0,0.0,0.0,0.0,0.0,0.0,0.0,0.0,0.0,0.0,-0.5426,0.0,0.0,0.0,0.0,0.0,0.0,0.0,-0.8313,-0.8932,-0.9222,-0.9486,-1.0004,-1.0142,-1.024,-1.0521,-1.0649,-1.0721,-1.0721,-1.0721,-1.0721,-1.0721,-1.0721,-1.0721,-1.0721,-1.0758,-1.0782,0.0,-1.0924,-1.1006,-1.1006,-1.1104,-1.1251,-1.1223,-1.1335,-1.1413,-1.1453,-1.1562,-1.1619,-1.1619,-1.1619,-1.1619,-1.1619,-1.1332,-1.1188,-1.1116,-1.0822,-1.0675,-1.0818,-1.0675,-1.0675,-1.0603,-1.0239,-1.0095,-1.0023,-0.959,-0.9446,-0.9446,-0.9302,-0.9304,-0.9304,-0.9304,-0.9304,-0.9304,-0.9304,-0.9304,-0.9304,-0.9304,-0.9304,-0.9304,-0.9304,-0.9304,-0.9304,-0.9304,-0.9304,-0.9013,-0.7849,-0.7632,-0.7632,-0.7632,-0.5452,-0.3492,-0.3057,-0.1676,-0.0656,-0.0656,-0.0292,-0.0146,-0.0583,-0.0292,0.0,0.0,0.0,0.0,0.0,0.0,0.0,0.0,0.0,0.0,0.0,0.0,0.0,0.0,0.0,0.0,0.0,0.0,0.0,0.0,0.0,0.0,0.0,0.0,0.0,0.0,0.0,0.0,-0.7458,-0.7594,-0.7824,0.0,-0.8757,-0.9015,-0.9571,-0.9781,-0.9941,-1.0175,-1.0395,-1.0578,-1.0704,-1.0721,-1.0721,-1.0721,-1.0721,-1.0721,-1.0721,-1.0721,-1.0721,-1.0721,-1.0802,-1.0786,-1.0786,-1.0931,-1.1006,-1.107,-1.1158,-1.1267,-1.1389,-1.148,-1.1555,-1.1619,-1.1619,-1.1476,-1.1332,-1.1116,-1.0897,-1.075,-1.0383,-1.0239,-1.0239,-1.0095,-1.0095,-1.0239,-0.9807,-0.9663,-0.9593,-0.9377,-0.9304,-0.9304,-0.9304,-0.9304,-0.9304,-0.9304,-0.9304,-0.9304,-0.9304,-0.9304,-0.9304,-0.9304,-0.9304,-0.9157,-0.8504,-0.8794,-0.9157,-0.8504,-0.8357,-0.8068,-0.7197,-0.5962,-0.5235,-0.5891,-0.4,-0.2329,-0.2329,-0.102,0.0,0.0,0.0,0.0,0.0,0.0,0.0,0.0,0.0,0.0,0.0,0.0,0.0,0.0,0.0,0.0,0.0,0.0,0.0,0.0,0.0,0.0,0.0,0.0,0.0,0.0,0.0,0.0,-0.6358,-0.6536,0.0,0.0,-0.7149,0.0,-0.7584,-0.7499,-0.7478,0.0,-0.834,-0.8618,-0.9019,-0.9266,-0.9513,-0.9669,-0.9985,-1.0321,-1.0649,-1.0711,-1.0721,-1.0721,-1.0721,-1.0721,-1.0721,-1.0721,-1.0721,-1.0721,-1.0721,-1.0721,-1.0721,-1.0721,-1.0782,-1.085,-1.0873,-1.1008,-1.1338,-1.1375,-1.146,-1.1524,-1.1537,-1.1332,-1.0969,-1.0897,-1.075,-1.038,-1.0023,-0.9807,-0.9807,-0.9449,-0.9518,-0.9807,-0.9449,-0.9304,-0.9304,-0.9304,-0.9304,-0.9304,-0.9304,-0.9304,-0.9304,-0.9304,-0.9304,-0.9304,-0.9304,-0.9304,-0.923,-0.9085,-0.9013,-0.8721,-0.7125,-0.7923,-0.8649,-0.7125,-0.6906,-0.6908,-0.6543,-0.429,-0.2693,-0.393,-0.3057,-0.2039,-0.2039,-0.0875,0.0,0.0,0.0,0.0,0.0,0.0,0.0,0.0,0.0,0.0,0.0,0.0,0.0,0.0,0.0,0.0,0.0,0.0,0.0,0.0,0.0,0.0,0.0,0.0,0.0,0.0,0.0,0.0,-0.6678,-0.6922,-0.7177,-0.6898,0.0,0.0,-0.7,-0.697,-0.7082,0.0,-0.727,-0.7432,-0.8136,-0.8408,-0.8618,-0.8882,-0.9384,-0.9927,-1.0463,-1.0643,-1.0721,-1.0721,-1.0721,-1.0721,-1.0721,-1.0721,-1.0721,-1.0721,-1.0721,-1.0721,-1.0721,-1.0721,-1.0734,-1.0765,-1.0816,-1.0907,-1.1033,-1.1274,-1.1265,-1.0941,-1.1061,-1.0897,-1.0599,-1.0242,-1.0095,-1.0023,-0.959,-0.9449,-0.9377,-0.9302,-0.9377,-0.9374,-0.9302,-0.9304,-0.9304,-0.9304,-0.9304,-0.9304,-0.9304,-0.9304,-0.9304,-0.9304,-0.9304,-0.9304,-0.9304,-0.9304,-0.9013,-0.7776,-0.7415,-0.7125,-0.5528,-0.6326,-0.705,-0.5528,-0.6108,-0.6324,-0.3782,-0.2765,-0.2039,-0.1094,-0.0656,-0.0438,-0.0438,-0.0219,0.0,0.0,0.0,0.0,0.0,0.0,0.0,0.0,0.0,0.0,0.0,0.0,0.0,0.0,0.0,0.0,0.0,0.0,0.0,0.0,0.0,0.0,0.0,0.0,0.0,0.0,0.0,0.0,-0.7251,-0.7366,-0.7553,-0.7404,0.0,0.0,0.0,-0.7085,-0.7011,-0.7452,-0.7247,-0.7196,-0.7867,-0.8041,-0.814,-0.8442,-0.8933,-0.9378,-0.9676,-1.0103,-1.0385,-1.0321,-1.0321,-1.0415,-1.0493,-1.0565,-1.0636,-1.0714,-1.0721,-1.0721,-1.0721,-1.0721,-1.0721,-1.0721,-1.0795,-1.0803,-1.088,-1.0958,-1.0894,-1.0828,-1.0755,-1.053,-1.0167,-1.0023,-0.9807,-0.959,-0.9377,-0.9304,-0.9304,-0.9304,-0.9304,-0.9304,-0.9304,-0.9304,-0.9304,-0.9304,-0.9304,-0.9304,-0.9304,-0.9304,-0.9304,-0.9304,-0.9304,-0.9157,-0.836,-0.7632,-0.6833,-0.6036,-0.5818,-0.5454,-0.3929,-0.4655,-0.5456,-0.3856,-0.4073,-0.4218,-0.262,-0.1675,-0.0948,-0.0146,0.0,0.0,0.0,0.0,0.0,0.0,0.0,0.0,0.0,0.0,0.0,0.0,0.0,0.0,0.0,0.0,0.0,0.0,0.0,0.0,0.0,0.0,0.0,0.0,0.0,0.0,0.0,0.0,0.0,0.0,0.0,0.0,0.0,0.0,0.0,0.0,0.0,-0.7631,0.0,0.0,0.0,-0.7671,-0.7412,0.0,0.0,0.0,0.0,0.0,0.0,0.0,0.0,-0.9317,0.0,-0.9866,-0.9866,-1.0025,-1.0178,-1.027,-1.0409,-1.0619,-1.0582,-1.0585,-1.067,-1.0704,-1.0721,-1.0721,-1.0654,-1.0648,-1.0769,-1.0568,-1.049,-1.0534,-1.0414,-1.0132,-0.9772,-0.9798,-0.959,-0.9304,-0.9304,-0.9304,-0.9304,-0.9304,-0.9304,-0.9304,-0.9304,-0.9304,-0.9304,-0.9304,-0.9304,-0.9304,-0.9304,-0.9085,-0.8868,-0.8868,-0.8649,-0.8213,-0.6908,-0.5673,-0.4657,-0.4293,-0.4221,-0.3857,-0.2257,-0.3057,-0.3857,-0.2257,-0.2111,-0.2184,-0.1893,-0.0875,0.0,0.0,0.0,0.0,0.0,0.0,0.0,0.0,0.0,0.0,0.0,0.0,0.0,0.0,0.0,0.0,0.0,0.0,0.0,0.0,0.0,0.0,0.0,0.0,0.0,0.0,0.0,0.0,0.0,0.0,0.0,0.0,0.0,0.0,0.0,0.0,0.0,0.0,-0.8201,0.0,0.0,0.0,-0.7434,-0.7075,0.0,0.0,0.0,0.0,0.0,0.0,0.0,0.0,-0.7977,-0.8353,-0.8808,-0.9265,-0.9493,-0.9717,-0.9859,-0.9774,-0.9883,-1.03,-1.0076,-1.0097,-1.0497,-1.0646,-1.0721,-1.0721,-1.0389,-1.0266,-1.0282,-1.0081,-0.9816,-0.9493,-0.9672,-0.9578,-0.9229,-0.933,-0.9377,-0.9304,-0.9304,-0.9304,-0.9304,-0.9304,-0.9304,-0.9304,-0.9304,-0.9304,-0.9304,-0.9304,-0.9304,-0.9304,-0.9304,-0.8432,-0.727,-0.727,-0.6326,-0.5165,-0.502,-0.4875,-0.4439,-0.2984,-0.2547,-0.2184,-0.0656,-0.1384,-0.2184,-0.0656,-0.1311,-0.1893,-0.0583,-0.0146,0.0,0.0,0.0,0.0,0.0,0.0,0.0,0.0,0.0,0.0,0.0,0.0,0.0,0.0,0.0,0.0,0.0,0.0,0.0,0.0,0.0,0.0,0.0,0.0,0.0,0.0,0.0,0.0,0.0,0.0,0.0,0.0,0.0,0.0,0.0,0.0,0.0,0.0,0.0,0.0,-0.7573,0.0,-0.7489,0.0,0.0,0.0,0.0,0.0,0.0,0.0,-0.7716,0.0,0.0,0.0,-0.8088,0.0,0.0,0.0,-0.9276,-0.9412,-0.9554,-0.9744,-0.972,-0.9734,-0.9903,-1.0136,-1.0234,-1.0123,-0.9994,-0.9927,-0.9927,-0.9654,-0.9446,-0.9313,-0.9366,-0.9275,-0.9139,-0.9253,-0.9304,-0.9304,-0.9304,-0.9304,-0.9304,-0.9304,-0.9304,-0.9304,-0.9304,-0.9304,-0.9157,-0.8288,-0.7996,-0.7851,-0.6908,-0.6181,-0.5673,-0.5673,-0.4583,-0.3275,-0.3275,-0.2694,-0.1821,-0.1166,-0.0948,-0.0802,-0.0146,-0.051,-0.0802,-0.0146,-0.051,-0.0802,-0.0146,0.0,0.0,0.0,0.0,0.0,0.0,0.0,0.0,0.0,0.0,0.0,0.0,0.0,0.0,0.0,0.0,0.0,0.0,0.0,0.0,0.0,0.0,0.0,0.0,0.0,0.0,0.0,0.0,0.0,0.0,0.0,0.0,0.0,0.0,0.0,-0.872,0.0,0.0,0.0,0.0,0.0,0.0,0.0,0.0,0.0,0.0,0.0,0.0,0.0,0.0,0.0,0.0,-0.7492,0.0,0.0,0.0,0.0,0.0,0.0,0.0,-0.8876,-0.9022,-0.9071,-0.9111,-0.915,-0.929,-0.9576,-0.9747,-0.9666,-0.9573,-0.9525,-0.9525,-0.9282,-0.9123,-0.9126,-0.9073,-0.9035,-0.9038,-0.919,-0.9258,-0.9258,-0.9291,-0.9304,-0.9304,-0.9304,-0.9085,-0.8649,-0.8649,-0.8432,-0.7923,-0.727,-0.6761,-0.6181,-0.5093,-0.4439,-0.4003,-0.3567,-0.2622,-0.1675,-0.1675,-0.0875,0.0,0.0,0.0,0.0,0.0,0.0,0.0,0.0,0.0,0.0,0.0,0.0,0.0,0.0,0.0,0.0,0.0,0.0,0.0,0.0,0.0,0.0,0.0,0.0,0.0,0.0,0.0,0.0,0.0,0.0,0.0,0.0,0.0,0.0,0.0,0.0,0.0,0.0,0.0,0.0,0.0,0.0,0.0,0.0,0.0,0.0,0.0,0.0,0.0,-0.8217,0.0,0.0,0.0,0.0,-0.7891,0.0,0.0,0.0,0.0,0.0,0.0,0.0,0.0,0.0,0.0,0.0,0.0,0.0,0.0,0.0,0.0,-0.8031,-0.8002,0.0,-0.8098,-0.8202,-0.8679,-0.8974,-0.9248,-0.9521,-0.9254,-0.9117,-0.9117,-0.879,-0.8592,-0.8595,-0.872,-0.8783,-0.8791,-0.903,-0.9141,-0.9147,-0.9256,-0.9304,-0.9304,-0.9304,-0.8432,-0.705,-0.705,-0.6181,-0.502,-0.6471,-0.6036,-0.4802,-0.4729,-0.3711,-0.2111,-0.0656,-0.0146,-0.0073,-0.0073,-0.0073,0.0,0.0,0.0,0.0,0.0,0.0,0.0,0.0,0.0,0.0,0.0,0.0,0.0,0.0,0.0,0.0,0.0,0.0,0.0,0.0,0.0,0.0,0.0,0.0,0.0,0.0,0.0,0.0,0.0,0.0,0.0,0.0,0.0,0.0,0.0,0.0,0.0,0.0,0.0,0.0,0.0,0.0,0.0,0.0,0.0,0.0,0.0,0.0,-0.9364,-0.8659,0.0,0.0,0.0,0.0,0.0,0.0,0.0,0.0,0.0,0.0,0.0,0.0,0.0,0.0,0.0,0.0,0.0,0.0,0.0,0.0,0.0,0.0,0.0,0.0,-0.7648,0.0,-0.8008,-0.8441,-0.873,-0.8802,-0.8792,-0.8787,-0.8787,-0.8653,-0.8587,-0.859,-0.8712,-0.8769,-0.878,-0.9024,-0.9133,-0.9141,-0.9256,-0.8721,-0.7776,-0.7776,-0.6833,-0.5456,-0.5456,-0.451,-0.3202,-0.371,-0.3564,-0.2984,-0.1967,-0.1239,-0.0656,-0.0146,0.0,0.0,0.0,0.0,0.0,0.0,0.0,0.0,0.0,0.0,0.0,0.0,0.0,0.0,0.0,0.0,0.0,0.0,0.0,0.0,0.0,0.0,0.0,0.0,0.0,0.0,0.0,0.0,0.0,0.0,0.0,0.0,0.0,0.0,0.0,0.0,0.0,0.0,0.0,0.0,0.0,0.0,0.0,0.0,0.0,0.0,0.0,0.0,0.0,0.0,-0.9449,-0.9534,0.0,-0.893,-0.8716,0.0,-0.7892,0.0,0.0,0.0,0.0,0.0,0.0,0.0,0.0,0.0,0.0,0.0,0.0,-0.6661,0.0,0.0,0.0,0.0,0.0,0.0,-0.6996,-0.7044,-0.7079,0.0,0.0,-0.7988,-0.8244,-0.8342,-0.8505,-0.8587,-0.8587,-0.8587,-0.8587,-0.859,-0.8668,-0.8706,-0.8712,-0.8913,-0.9005,-0.9014,-0.9174,-0.8375,-0.6933,-0.6966,-0.5744,-0.3857,-0.3857,-0.2912,-0.153,-0.2111,-0.1966,-0.1311,-0.0365,0.0,0.0,0.0,0.0,0.0,0.0,0.0,0.0,0.0,0.0,0.0,0.0,0.0,0.0,0.0,0.0,0.0,0.0,0.0,0.0,0.0,0.0,0.0,0.0,0.0,0.0,0.0,0.0,0.0,0.0,0.0,0.0,0.0,0.0,0.0,0.0,0.0,0.0,0.0,0.0,0.0,0.0,0.0,0.0,0.0,0.0,0.0,0.0,0.0,0.0,0.0,0.0,0.0]},{"header":{"parameterUnit":"m.s-1","parameterCategory":1,"la1":30.6,"la2":29.2853,"lo1":-89.7004,"lo2":-87.6739,"dy":0.0162,"dx":0.0183,"nx":112,"ny":82,"refTime":"2024-08-18T12:00:00:Z","depth":0,"parameterNumber":3,"parameterNumberName":"V-component_of_WINDS"},"data":[0.0,0.0,0.0,0.0,0.0,0.0,0.0,0.0,0.0,0.0,0.0,0.0,0.0,0.0,0.0,0.0,0.0,0.0,0.0,0.0,0.0,0.0,0.0,0.0,0.0,0.0,0.0,0.0,0.0,0.0,0.0,0.0,0.0,0.0,0.0,0.0,0.0,0.0,0.0,0.0,0.0,0.0,0.0,0.0,0.0,0.0,0.0,0.0,0.0,0.0,0.0,0.0,0.0,0.0,0.0,0.0,0.0,0.0,0.0,0.0,0.0,0.0,0.0,0.0,0.0,0.0,0.0,0.0,0.0,0.0,0.0,0.0,0.0,0.0,0.0,0.0,0.0,0.0,0.0,0.0,0.0,0.0,0.0,0.0,0.0,0.0,0.0,0.0,0.0,0.0,3.1254,3.6067,4.151,4.4792,4.4792,4.4433,4.1422,3.4909,0.0,0.0,0.0,0.0,0.0,0.0,0.0,0.0,0.0,0.0,0.0,0.0,0.0,0.0,0.0,0.0,0.0,0.0,0.0,0.0,0.0,0.0,0.0,0.0,0.0,0.0,0.0,0.0,0.0,0.0,0.0,0.0,0.0,0.0,0.0,0.0,0.0,0.0,0.0,0.0,0.0,0.0,0.0,0.0,0.0,0.0,0.0,0.0,0.0,0.0,0.0,0.0,0.0,0.0,0.0,0.0,0.0,0.0,0.0,0.0,0.0,0.0,0.0,0.0,0.0,0.0,0.0,0.0,0.0,0.0,0.0,0.0,0.0,0.0,0.0,0.0,0.0,0.0,0.0,0.0,0.0,0.0,0.0,0.0,0.0,0.0,0.0,0.0,0.0,0.0,0.0,0.0,0.0,0.0,0.0,0.0,0.0,0.0,0.0,0.0,0.0,0.0,0.0,0.0,3.2147,3.9353,4.2928,4.4792,4.4792,4.2829,3.9552,3.4793,0.0,0.0,0.0,0.0,0.0,0.0,0.0,0.0,0.0,0.0,0.0,0.0,0.0,0.0,0.0,0.0,0.0,0.0,0.0,0.0,0.0,0.0,0.0,0.0,0.0,0.0,0.0,0.0,0.0,0.0,0.0,0.0,0.0,0.0,0.0,0.0,0.0,0.0,0.0,0.0,0.0,0.0,0.0,0.0,0.0,0.0,0.0,0.0,0.0,0.0,0.0,0.0,0.0,0.0,0.0,0.0,0.0,0.0,0.0,0.0,0.0,0.0,0.0,0.0,0.0,0.0,0.0,0.0,0.0,0.0,0.0,0.0,0.0,0.0,0.0,0.0,0.0,0.0,0.0,0.0,0.0,0.0,0.0,0.0,0.0,0.0,0.0,0.0,0.0,0.0,0.0,0.0,0.0,0.0,0.0,0.0,0.0,0.0,0.0,0.0,0.0,0.0,0.0,3.1347,3.4925,4.0325,4.2811,4.3899,4.3433,4.1489,3.8443,3.4113,3.1366,0.0,0.0,0.0,0.0,0.0,0.0,0.0,0.0,0.0,0.0,0.0,0.0,0.0,0.0,0.0,0.0,0.0,0.0,0.0,0.0,0.0,0.0,0.0,0.0,0.0,0.0,0.0,0.0,0.0,0.0,0.0,0.0,0.0,0.0,0.0,0.0,0.0,0.0,0.0,0.0,0.0,0.0,0.0,0.0,0.0,0.0,0.0,0.0,0.0,0.0,0.0,0.0,0.0,0.0,0.0,0.0,0.0,0.0,0.0,0.0,0.0,0.0,0.0,0.0,0.0,0.0,0.0,0.0,0.0,0.0,0.0,0.0,0.0,0.0,0.0,0.0,0.0,0.0,0.0,0.0,0.0,0.0,0.0,0.0,0.0,0.0,0.0,0.0,0.0,0.0,0.0,0.0,0.0,0.0,0.0,0.0,0.0,0.0,0.0,0.0,0.0,0.0,3.4692,3.7271,4.0286,4.217,4.285,4.1981,4.0178,3.7342,3.3254,2.9531,0.0,0.0,0.0,0.0,0.0,0.0,0.0,0.0,0.0,0.0,0.0,0.0,0.0,0.0,0.0,0.0,0.0,0.0,0.0,0.0,0.0,0.0,0.0,0.0,0.0,0.0,0.0,0.0,0.0,0.0,0.0,0.0,0.0,0.0,0.0,0.0,0.0,0.0,0.0,0.0,0.0,0.0,0.0,0.0,0.0,0.0,0.0,0.0,0.0,0.0,0.0,0.0,0.0,0.0,0.0,0.0,0.0,0.0,0.0,0.0,0.0,0.0,0.0,0.0,0.0,0.0,0.0,0.0,0.0,0.0,0.0,0.0,0.0,0.0,0.0,0.0,0.0,0.0,0.0,0.0,0.0,0.0,0.0,0.0,0.0,0.0,0.0,0.0,0.0,0.0,0.0,0.0,0.0,0.0,0.0,0.0,0.0,0.0,0.0,0.0,0.0,0.0,3.4478,3.7722,3.9582,4.1296,4.1937,4.1063,3.8712,3.5806,3.2302,2.8126,0.0,0.0,0.0,0.0,0.0,0.0,0.0,0.0,0.0,0.0,0.0,0.0,0.0,0.0,0.0,0.0,0.0,0.0,0.0,0.0,0.0,0.0,0.0,0.0,0.0,0.0,0.0,0.0,0.0,0.0,0.0,0.0,0.0,0.0,0.0,0.0,0.0,0.0,0.0,0.0,0.0,0.0,0.0,0.0,0.0,0.0,0.0,0.0,0.0,0.0,0.0,0.0,0.0,0.0,0.0,0.0,0.0,0.0,0.0,0.0,0.0,0.0,0.0,0.0,0.0,0.0,0.0,0.0,0.0,0.0,0.0,0.0,0.0,0.0,0.0,0.0,0.0,0.0,0.0,0.0,0.0,0.0,0.0,0.0,0.0,0.0,0.0,0.0,0.0,0.0,0.0,0.0,0.0,0.0,0.0,0.0,0.0,0.0,0.0,0.0,0.0,0.0,3.3511,3.6355,0.0,4.0427,4.112,4.0271,3.7832,3.5103,3.2175,0.0,0.0,0.0,0.0,0.0,0.0,0.0,0.0,0.0,0.0,0.0,0.0,0.0,0.0,0.0,0.0,0.0,0.0,0.0,0.0,0.0,0.0,0.0,0.0,0.0,0.0,0.0,0.0,0.0,0.0,0.0,0.0,0.0,0.0,0.0,0.0,0.0,0.0,0.0,0.0,0.0,0.0,0.0,0.0,0.0,0.0,0.0,0.0,0.0,0.0,0.0,0.0,0.0,0.0,0.0,0.0,0.0,0.0,0.0,0.0,0.0,0.0,0.0,0.0,0.0,0.0,0.0,0.0,0.0,0.0,0.0,0.0,0.0,0.0,0.0,0.0,0.0,0.0,0.0,0.0,0.0,0.0,0.0,0.0,0.0,0.0,0.0,0.0,0.0,0.0,0.0,0.0,0.0,0.0,0.0,0.0,0.0,0.0,0.0,0.0,0.0,0.0,3.0593,3.358,3.6223,0.0,4.0112,4.0558,3.9477,3.6983,3.4266,3.139,0.0,0.0,0.0,0.0,0.0,0.0,0.0,0.0,0.0,0.0,0.0,0.0,0.0,0.0,0.0,0.0,0.0,0.0,0.0,0.0,0.0,0.0,0.0,0.0,0.0,0.0,0.0,0.0,0.0,0.0,0.0,0.0,0.0,0.0,0.0,0.0,0.0,0.0,0.0,0.0,0.0,0.0,0.0,0.0,0.0,0.0,0.0,0.0,0.0,0.0,0.0,0.0,0.0,0.0,0.0,0.0,0.0,0.0,0.0,0.0,0.0,0.0,0.0,0.0,0.0,0.0,0.0,0.0,0.0,0.0,0.0,0.0,0.0,0.0,0.0,0.0,0.0,0.0,0.0,0.0,0.0,0.0,0.0,0.0,0.0,0.0,0.0,0.0,0.0,0.0,0.0,0.0,0.0,0.0,0.0,0.0,0.0,0.0,0.0,0.0,0.0,0.0,3.1561,3.4982,3.7769,3.9517,4.0484,4.0331,3.8656,3.6125,3.3161,0.0,0.0,0.0,0.0,0.0,0.0,0.0,0.0,0.0,0.0,0.0,0.0,0.0,0.0,0.0,0.0,0.0,0.0,0.0,0.0,0.0,0.0,0.0,0.0,0.0,0.0,0.0,0.0,0.0,0.0,0.0,0.0,0.0,0.0,0.0,0.0,0.0,0.0,0.0,0.0,0.0,0.0,0.0,0.0,0.0,0.0,0.0,0.0,0.0,0.0,0.0,0.0,0.0,0.0,0.0,0.0,0.0,0.0,0.0,0.0,0.0,0.0,0.0,0.0,0.0,0.0,0.0,0.0,0.0,0.0,0.0,0.0,0.0,0.0,0.0,0.0,0.0,0.0,0.0,0.0,0.0,0.0,0.0,0.0,0.0,0.0,0.0,0.0,0.0,0.0,0.0,0.0,0.0,0.0,0.0,0.0,0.0,0.0,0.0,0.0,0.0,0.0,0.0,3.1556,3.5025,3.7834,3.9572,4.0552,4.0623,3.9509,3.7051,3.4374,3.1514,0.0,0.0,0.0,0.0,0.0,0.0,0.0,0.0,0.0,0.0,0.0,0.0,0.0,0.0,0.0,0.0,0.0,0.0,0.0,0.0,0.0,0.0,0.0,0.0,0.0,0.0,0.0,0.0,0.0,0.0,0.0,0.0,0.0,0.0,0.0,0.0,0.0,0.0,0.0,0.0,0.0,0.0,0.0,0.0,0.0,0.0,0.0,0.0,0.0,0.0,0.0,0.0,0.0,0.0,0.0,0.0,0.0,0.0,0.0,0.0,0.0,0.0,0.0,0.0,0.0,0.0,0.0,0.0,0.0,0.0,0.0,0.0,0.0,0.0,0.0,0.0,0.0,0.0,0.0,0.0,0.0,0.0,0.0,0.0,0.0,0.0,0.0,0.0,0.0,0.0,0.0,0.0,0.0,0.0,0.0,0.0,0.0,0.0,0.0,0.0,0.0,0.0,3.208,3.5558,3.8388,4.0121,4.0793,4.0744,3.9876,3.7789,3.5111,3.1786,0.0,0.0,0.0,0.0,0.0,0.0,0.0,0.0,0.0,0.0,0.0,0.0,0.0,0.0,0.0,0.0,0.0,0.0,0.0,0.0,0.0,0.0,0.0,0.0,0.0,0.0,0.0,0.0,0.0,0.0,0.0,0.0,0.0,0.0,0.0,0.0,0.0,0.0,0.0,0.0,0.0,0.0,0.0,0.0,0.0,0.0,0.0,0.0,0.0,0.0,0.0,0.0,0.0,0.0,0.0,0.0,0.0,0.0,0.0,0.0,0.0,0.0,0.0,0.0,0.0,0.0,0.0,0.0,0.0,0.0,0.0,0.0,0.0,0.0,0.0,0.0,0.0,0.0,0.0,0.0,0.0,0.0,0.0,0.0,0.0,0.0,0.0,0.0,0.0,0.0,0.0,0.0,0.0,0.0,0.0,0.0,0.0,0.0,0.0,0.0,0.0,0.0,3.2861,3.6355,3.9169,4.0903,4.1097,4.0758,3.9878,3.8258,3.5545,3.1425,0.0,0.0,0.0,0.0,0.0,0.0,0.0,0.0,0.0,0.0,0.0,0.0,0.0,0.0,0.0,0.0,0.0,0.0,0.0,0.0,0.0,0.0,0.0,0.0,0.0,0.0,0.0,0.0,0.0,0.0,0.0,0.0,0.0,0.0,0.0,0.0,0.0,0.0,0.0,0.0,0.0,0.0,0.0,0.0,0.0,0.0,0.0,0.0,0.0,0.0,0.0,0.0,0.0,0.0,0.0,0.0,0.0,0.0,0.0,0.0,3.2075,0.0,0.0,0.0,0.0,0.0,0.0,0.0,0.0,0.0,0.0,0.0,0.0,0.0,0.0,0.0,0.0,0.0,0.0,0.0,0.0,0.0,0.0,0.0,0.0,0.0,0.0,0.0,0.0,0.0,0.0,0.0,0.0,0.0,0.0,0.0,0.0,0.0,0.0,0.0,0.0,0.0,3.2935,3.6428,3.9229,4.0927,4.1106,4.0758,3.9878,3.8258,3.6325,3.4003,2.9553,0.0,0.0,0.0,0.0,0.0,0.0,0.0,0.0,0.0,0.0,0.0,0.0,0.0,0.0,0.0,0.0,0.0,0.0,0.0,0.0,0.0,0.0,0.0,0.0,0.0,0.0,0.0,0.0,0.0,0.0,0.0,0.0,0.0,0.0,0.0,0.0,0.0,0.0,0.0,0.0,0.0,0.0,0.0,0.0,0.0,0.0,0.0,0.0,0.0,0.0,0.0,0.0,0.0,0.0,0.0,0.0,0.0,0.0,0.0,0.0,3.5021,0.0,0.0,0.0,0.0,0.0,0.0,0.0,0.0,0.0,0.0,0.0,0.0,0.0,0.0,0.0,0.0,0.0,0.0,0.0,0.0,0.0,0.0,0.0,0.0,0.0,0.0,0.0,0.0,0.0,0.0,0.0,0.0,0.0,0.0,0.0,0.0,0.0,0.0,0.0,0.0,3.3067,3.6788,3.9665,4.0953,4.1109,4.0914,4.0464,3.9234,3.777,3.6052,3.2657,0.0,0.0,0.0,0.0,0.0,0.0,0.0,0.0,0.0,0.0,0.0,0.0,0.0,0.0,0.0,0.0,0.0,0.0,0.0,0.0,0.0,0.0,0.0,0.0,0.0,0.0,0.0,0.0,0.0,0.0,0.0,0.0,0.0,0.0,0.0,0.0,0.0,0.0,0.0,0.0,0.0,0.0,0.0,0.0,0.0,0.0,0.0,0.0,0.0,0.0,0.0,0.0,0.0,4.3777,4.5015,4.6618,4.6772,4.7117,4.7338,4.2462,4.0611,4.0825,3.7838,0.0,0.0,0.0,0.0,0.0,0.0,0.0,0.0,0.0,0.0,0.0,0.0,0.0,0.0,0.0,0.0,0.0,0.0,0.0,0.0,0.0,0.0,0.0,0.0,3.7687,3.8473,0.0,0.0,0.0,0.0,0.0,0.0,0.0,0.0,0.0,0.0,0.0,0.0,3.3812,3.7432,4.0132,4.1012,4.1109,4.1109,4.1109,4.0307,3.9214,3.7828,3.5974,3.3651,0.0,0.0,0.0,0.0,0.0,0.0,0.0,0.0,0.0,0.0,0.0,0.0,0.0,0.0,0.0,0.0,0.0,0.0,0.0,0.0,0.0,0.0,0.0,0.0,0.0,0.0,0.0,0.0,0.0,0.0,0.0,0.0,2.9664,3.146,0.0,0.0,0.0,0.0,0.0,0.0,0.0,0.0,0.0,0.0,0.0,0.0,0.0,4.1735,4.3174,4.7021,4.8702,4.8337,5.2067,5.2865,5.1086,5.1836,5.1836,5.1163,5.0394,0.0,4.3616,4.2408,0.0,0.0,0.0,0.0,0.0,0.0,0.0,0.0,0.0,0.0,0.0,0.0,0.0,0.0,0.0,0.0,0.0,0.0,0.0,0.0,0.0,0.0,4.3399,4.3052,4.3245,4.3408,0.0,3.7607,3.2464,3.1422,3.116,0.0,0.0,0.0,0.0,0.0,0.0,0.0,3.6362,3.8549,4.0132,4.1012,4.1109,4.1109,4.1109,4.0307,3.9702,3.9488,3.7183,3.5621,3.5172,3.2871,0.0,0.0,0.0,0.0,0.0,0.0,0.0,0.0,0.0,0.0,0.0,0.0,0.0,0.0,0.0,0.0,0.0,0.0,0.0,0.0,0.0,0.0,0.0,0.0,0.0,0.0,0.0,0.0,0.0,2.9143,3.2348,3.4369,3.3963,3.3329,0.0,0.0,0.0,0.0,0.0,0.0,0.0,0.0,0.0,4.4878,4.703,4.875,4.998,5.2307,5.3509,5.3643,5.553,5.6107,5.55,5.5895,5.5857,5.5472,5.4972,5.2951,4.9759,4.6973,4.4372,4.1961,0.0,0.0,0.0,0.0,4.0038,3.9884,4.1813,4.1909,0.0,3.9424,0.0,0.0,0.0,0.0,0.0,0.0,0.0,0.0,0.0,0.0,4.4297,4.4297,4.4297,4.4457,4.5001,4.2101,3.8621,0.0,3.5215,3.4099,3.1411,0.0,0.0,0.0,0.0,3.5579,3.7106,3.9195,4.0678,4.1051,4.1109,4.1109,4.1109,4.0758,4.0522,4.0522,3.9019,3.7926,3.7477,3.5428,3.3319,0.0,0.0,0.0,0.0,0.0,0.0,0.0,0.0,0.0,0.0,0.0,0.0,0.0,0.0,0.0,0.0,0.0,0.0,0.0,0.0,0.0,0.0,0.0,0.0,0.0,0.0,0.0,0.0,3.2616,3.5321,3.7233,3.7502,3.7145,0.0,0.0,0.0,0.0,0.0,0.0,4.4913,4.7471,4.951,5.0971,5.3068,5.4587,5.5453,5.6261,5.6992,5.7638,5.7868,5.8204,5.8607,5.8607,5.8492,5.8261,5.7607,5.6607,5.5164,5.1076,4.8395,4.6646,4.4735,4.3613,4.3239,4.49,4.5111,4.49,4.7213,4.7482,4.6369,4.4075,4.3441,4.2972,3.9832,0.0,0.0,0.0,0.0,4.2898,4.2283,4.3549,4.497,4.497,4.497,4.5161,4.58,4.5442,4.4066,0.0,3.9538,3.7977,3.521,0.0,0.0,0.0,0.0,3.7789,3.8219,3.9938,4.1109,4.1109,4.1109,4.1109,4.1109,4.1109,4.1109,4.1109,4.0483,3.9858,3.9255,3.7575,3.5953,3.4431,0.0,0.0,0.0,0.0,0.0,0.0,0.0,0.0,0.0,0.0,0.0,0.0,0.0,0.0,0.0,0.0,0.0,0.0,0.0,0.0,0.0,0.0,0.0,0.0,0.0,0.0,0.0,0.0,0.0,4.1027,4.2734,0.0,0.0,0.0,0.0,4.3589,4.6051,4.8306,5.0221,5.2722,5.4511,5.5357,5.631,5.7223,5.8107,5.8915,5.9338,5.9377,6.0204,6.0204,5.9435,5.9435,5.9031,5.83,5.8261,5.8184,5.7838,5.4376,5.1952,5.0433,5.0298,5.0221,5.0106,4.9394,4.9106,4.899,4.8327,4.7577,4.7,4.7577,4.6693,4.5321,4.5109,4.4572,0.0,0.0,4.4608,4.6635,4.6596,4.6673,4.6769,4.6769,4.6769,4.6803,4.6908,4.6892,4.6588,0.0,4.4215,4.2832,4.2011,0.0,3.8572,3.9292,3.8903,3.9118,4.0699,4.1012,4.1109,4.1109,4.1109,4.1109,4.1109,4.1109,4.1109,4.1109,4.1051,4.1012,4.0973,3.9352,3.8045,3.7126,3.3671,0.0,0.0,0.0,0.0,0.0,0.0,0.0,0.0,0.0,0.0,0.0,0.0,0.0,0.0,0.0,0.0,0.0,0.0,0.0,0.0,0.0,0.0,0.0,0.0,0.0,0.0,0.0,0.0,4.4525,4.6887,0.0,4.5935,4.724,4.8624,4.962,5.1702,5.3469,5.4694,5.6646,5.7857,5.8146,5.8992,5.9588,5.9915,6.0185,6.0339,6.0339,6.0646,6.0627,6.0339,6.0339,6.0185,5.9877,5.9319,5.9069,5.8934,5.7203,5.5472,5.3799,5.2722,5.2318,5.2279,5.1952,5.1856,5.1798,5.1491,5.1202,5.0914,5.0635,4.9404,4.8106,4.8692,4.8654,4.825,4.7356,4.7788,4.8375,4.7817,4.7682,4.7682,4.7682,4.7682,4.7835,4.8418,4.8542,4.866,4.9042,4.6962,4.4911,4.42,4.3313,4.2435,4.1596,4.1225,4.1069,4.1109,4.1109,4.1109,4.1109,4.1109,4.1091,4.1095,4.1095,4.0881,4.0355,4.0335,4.0081,3.9514,3.893,3.7935,3.6492,3.4697,3.1964,0.0,0.0,0.0,0.0,0.0,0.0,0.0,0.0,0.0,0.0,0.0,0.0,0.0,0.0,0.0,0.0,0.0,0.0,0.0,0.0,0.0,0.0,0.0,0.0,0.0,0.0,4.6278,4.7624,5.0506,5.1834,5.0412,5.231,5.39,5.4595,5.6099,5.7357,5.8253,5.9338,5.9935,5.9935,6.0492,6.08,6.08,6.08,6.08,6.08,6.08,6.08,6.08,6.08,6.08,6.0762,6.0185,5.9935,5.9877,5.905,5.803,5.6819,5.5145,5.4299,5.401,5.3741,5.3645,5.3606,5.3299,5.3203,5.3068,5.2173,5.1154,5.0298,5.0616,5.0712,5.0577,4.999,4.9837,4.9702,4.9125,4.8759,4.8548,4.8548,4.8548,4.8702,4.9279,4.9625,5.0056,5.0766,4.874,4.6769,4.6323,4.58,4.5051,4.3899,4.3469,4.3079,4.2494,4.1908,4.1537,4.1537,4.1286,4.1094,4.1098,4.11,4.0868,4.0342,4.0303,4.0048,3.9462,3.8623,3.7764,3.6888,3.5444,3.3296,3.0446,0.0,0.0,0.0,0.0,0.0,0.0,0.0,0.0,0.0,0.0,0.0,0.0,0.0,0.0,0.0,0.0,0.0,0.0,0.0,0.0,0.0,0.0,0.0,4.3158,4.6654,4.9611,5.0412,5.3646,5.508,5.3192,5.5489,5.7484,5.8319,5.9108,5.9915,6.0742,6.0819,6.0839,6.0839,6.0858,6.0877,6.0877,6.0877,6.0877,6.0877,6.0877,6.0877,6.0877,6.0877,6.0877,6.0877,6.0839,6.0839,6.0762,5.9896,5.9511,5.9338,5.7684,5.6522,5.5645,5.4876,5.4549,5.4414,5.3568,5.326,5.3106,5.225,5.1962,5.1788,5.0971,5.075,5.0731,5.0712,5.0712,5.0712,5.0712,5.0067,4.9433,4.9433,4.9433,4.9433,4.9433,5.0087,5.075,5.0874,4.964,4.8621,4.8744,4.7454,4.6396,4.6378,4.5636,0.0,4.5049,4.3567,4.2494,4.2454,4.168,4.1158,4.1099,4.1104,4.1088,4.1069,4.1069,4.1049,4.103,3.8646,3.7747,3.8627,3.6049,3.4742,3.4822,0.0,0.0,0.0,0.0,0.0,0.0,0.0,0.0,0.0,0.0,0.0,0.0,0.0,0.0,0.0,0.0,0.0,0.0,0.0,0.0,0.0,4.6016,4.8577,4.8348,5.154,5.4207,5.5061,5.7104,5.8239,5.7712,5.8931,5.9838,6.0089,6.0319,6.055,6.0781,6.1408,6.1755,6.1755,6.232,6.2608,6.2608,6.2608,6.2608,6.2608,6.2608,6.2608,6.2608,6.2608,6.2608,6.2589,6.1993,6.1755,6.1678,6.08,6.0069,5.9396,5.8357,5.7415,5.6618,5.6387,5.5895,5.5338,5.5107,5.4626,5.4107,5.3857,5.3356,5.2683,5.1837,5.1568,5.1452,5.0856,5.0712,5.0712,5.0712,5.0519,5.0346,5.0346,5.0346,5.0346,5.0346,5.0539,5.0702,5.074,5.0526,5.0356,5.0482,4.962,4.8736,4.8189,4.7412,0.0,4.6027,4.5519,4.474,4.3477,4.3127,4.2468,4.1206,4.109,4.0857,4.0271,4.0232,3.9959,3.9314,3.8611,3.8651,3.9531,3.6347,3.5625,0.0,0.0,0.0,0.0,0.0,0.0,0.0,0.0,0.0,0.0,0.0,0.0,0.0,0.0,0.0,0.0,0.0,0.0,0.0,0.0,0.0,0.0,5.0399,5.3178,5.4043,5.5684,5.7107,5.7953,5.9223,6.0031,6.0031,6.0492,6.0954,6.132,6.1351,6.1493,6.1839,6.232,6.2589,6.2589,6.307,6.3288,6.3288,6.3288,6.3288,6.3288,6.3288,6.3288,6.3288,6.3288,6.3288,6.3281,6.282,6.2589,6.2531,6.1685,6.105,0.0,0.0,0.0,0.0,0.0,5.6445,5.5703,5.5703,5.5395,5.4953,5.4607,5.4164,5.3587,5.2712,5.2442,5.2269,5.1433,5.1202,5.1125,5.0789,5.0712,5.0712,5.0712,5.0712,5.0712,5.0712,5.074,5.0775,5.0775,5.0896,0.0,5.1187,5.0819,5.0386,4.9946,4.9189,4.8465,4.7959,4.7279,4.6464,4.5432,4.4677,4.3685,4.2303,4.1854,0.0,0.0,0.0,3.9882,3.8652,3.8945,0.0,0.0,0.0,0.0,0.0,0.0,0.0,0.0,3.9043,3.9375,0.0,0.0,0.0,0.0,0.0,0.0,0.0,0.0,0.0,0.0,0.0,0.0,0.0,0.0,0.0,0.0,5.4363,5.7326,5.9266,5.8985,5.8846,5.9569,6.0319,6.08,6.08,6.0877,6.1262,6.2043,6.2178,6.2551,6.3262,0.0,0.0,0.0,0.0,6.3577,6.3577,6.3577,6.3577,6.3577,6.3577,6.3577,6.3577,6.3577,6.3577,6.3589,6.3493,6.3455,6.3378,6.257,6.2178,6.1928,6.0185,5.9069,5.8338,5.7473,5.6599,5.5838,5.5838,0.0,0.0,5.4876,5.4645,5.4472,5.3606,5.3356,5.3164,5.2288,5.2038,5.1885,5.1164,5.0981,5.0962,5.0866,5.0846,5.0808,5.0731,5.081,5.0894,5.0894,5.0966,5.1058,5.1187,5.1297,5.1388,5.1394,5.0748,5.0241,5.0243,4.8943,4.7954,4.7761,0.0,0.0,4.4081,4.3281,4.2539,4.1816,4.168,4.0898,3.9238,3.9922,4.0742,4.1601,4.1621,4.3223,4.6445,4.6445,4.6543,4.6641,4.2734,4.2539,0.0,0.0,0.0,0.0,0.0,0.0,0.0,0.0,0.0,0.0,0.0,0.0,0.0,0.0,0.0,5.4705,5.7202,5.9122,6.0289,6.0332,6.0299,6.0531,6.0704,6.08,6.08,6.1435,6.1928,6.2101,6.2704,6.3147,6.3288,6.3974,6.4359,6.4359,6.5032,6.5397,6.5397,6.5397,6.5397,6.5397,0.0,0.0,6.5397,6.5397,6.5397,6.5359,6.4647,6.4359,6.4282,6.3416,6.2685,6.1928,6.0185,5.9396,5.9165,5.8357,5.7492,5.6753,5.6753,5.6291,5.5665,5.5511,5.5472,5.5318,5.4491,5.4241,0.0,5.3203,5.2953,5.2914,5.276,5.2722,5.2549,5.1837,5.1673,5.1491,5.0846,5.081,5.0894,5.0894,5.1041,5.1163,5.1199,5.1214,5.1284,5.1388,5.1258,5.1144,5.1151,5.0861,5.0144,4.8785,4.8357,4.7518,4.5937,4.5644,4.5488,4.5312,4.4648,4.3808,4.2754,4.2871,4.3379,4.4258,4.4277,4.5273,4.7344,4.7344,4.8066,4.9414,4.7871,4.7519,0.0,0.0,0.0,0.0,0.0,0.0,0.0,0.0,0.0,0.0,0.0,4.6414,4.9069,0.0,5.4597,5.7062,5.902,6.0327,6.061,6.1057,6.1209,6.0839,6.08,6.0973,6.1408,6.1851,6.2447,6.3281,6.3724,6.4147,6.4589,6.5013,6.5243,6.5243,6.5667,6.5897,6.5897,6.5897,6.5897,6.5897,6.5897,6.5897,6.5897,6.5897,6.5897,6.5878,6.5436,6.5243,6.5186,6.432,6.3224,6.2005,6.1127,6.0262,5.9454,5.905,5.8377,5.7588,5.7157,5.6714,5.6291,5.5838,5.5703,5.5607,5.5222,5.5107,5.4934,5.4087,5.3857,5.376,5.3318,5.3203,5.3087,5.2654,5.2212,5.1788,5.1395,5.1091,5.0917,5.0932,5.1083,5.1214,5.1291,5.1297,5.1325,5.139,5.1394,5.1398,5.1408,5.1393,5.1085,5.0232,4.9784,4.9023,4.7715,4.6406,4.5644,4.5644,4.4824,4.4141,4.3711,4.4531,4.5215,4.5644,4.6504,4.7598,4.8906,4.8906,4.9785,5.1445,5.0996,5.0801,0.0,0.0,0.0,0.0,0.0,0.0,0.0,4.2428,4.3735,4.6378,4.8807,5.1064,5.3144,5.5041,5.6911,5.8754,6.0298,6.1164,6.0864,6.1454,6.1652,6.0849,6.0923,6.132,6.2043,6.2389,6.3147,6.4493,6.4897,6.5397,6.609,6.6282,6.6397,6.6397,6.6397,6.6301,6.6128,6.6128,6.6051,6.5897,6.5897,6.5897,6.5897,6.5897,6.5897,6.5897,6.5897,6.5897,6.582,6.4955,6.3801,6.2563,6.2235,6.1243,5.9973,5.9819,5.9146,5.8223,5.7684,5.7272,5.6887,5.6195,5.5838,5.5703,5.5703,5.5703,5.5549,5.4914,5.4722,5.4568,5.3876,5.3683,5.3645,5.3491,5.2933,5.2365,5.2192,5.1631,5.1157,5.1199,5.122,5.1222,5.1335,5.1371,5.1396,5.1394,5.1396,5.1402,5.139,5.1397,5.1402,5.1405,5.0683,4.9844,4.8965,4.6973,4.5683,4.5527,4.5019,4.4629,4.4453,4.5976,4.6816,4.6816,4.8359,4.957,5.043,5.0605,5.1465,5.2969,5.3125,5.3203,3.5296,3.7441,3.9923,4.2918,4.33,4.4741,0.0,5.1337,5.0701,5.4102,5.5417,5.6101,5.6763,5.7921,5.9211,6.0518,6.1199,6.1554,6.1576,6.168,6.1458,6.0713,6.1413,6.1985,6.2101,6.3455,6.4397,6.4589,6.5974,6.6859,6.6955,6.7705,6.8129,6.8129,6.8129,6.7744,6.6974,6.6974,6.6609,6.5897,6.5897,6.5897,6.5897,6.5897,6.5897,6.5897,6.5897,6.5897,6.582,6.4955,6.4493,6.4166,6.2666,6.1985,6.1716,6.0935,5.9665,5.8396,5.9011,5.8242,5.6983,5.6887,5.6329,5.5703,5.5703,5.5703,5.5684,5.5588,5.5568,5.553,5.5453,5.5415,5.5241,5.4511,5.428,5.3991,5.3222,5.249,5.197,5.1985,5.155,5.1203,5.1214,5.1318,5.1405,5.1396,5.1402,5.1391,5.1397,5.1402,5.1405,5.1406,5.0683,4.9844,4.8965,4.8633,4.8125,4.7363,4.7949,4.7969,4.7207,4.8086,4.8613,4.8613,4.9551,5.0449,5.1269,5.2031,5.291,5.3867,5.4648,5.5019,4.0128,4.2478,4.4472,4.6286,4.7956,4.9979,5.3177,5.3369,5.3579,5.6015,5.7211,5.7913,5.8064,5.8897,5.987,0.0,6.1766,6.2199,6.1767,6.2145,6.2,6.0744,6.1422,6.2183,6.2682,6.3411,6.4262,6.5282,6.6436,6.709,6.709,6.7936,6.8385,6.8385,6.8385,6.8244,6.7859,6.734,6.6917,6.659,6.6109,6.5897,6.5897,6.5897,6.5897,6.5897,6.5897,6.5897,6.5859,6.5513,6.5051,6.4474,6.3262,6.2204,6.13,6.0935,6.0358,5.9723,5.9569,5.9031,5.828,5.733,5.6753,5.6368,5.5838,5.5703,5.5703,5.5703,5.5703,5.5703,5.5703,5.5703,5.5607,5.528,5.4838,5.4395,5.4049,5.3321,5.2642,5.2274,5.2018,5.1736,5.1388,5.1353,5.1408,5.1403,5.1407,5.1393,5.1397,5.14,5.1228,5.0742,4.9941,4.9297,4.8926,4.8906,4.873,4.8379,4.8691,4.873,4.8379,4.9199,4.9668,4.9668,5.0469,5.1308,5.2168,5.2519,5.3418,5.4765,5.5137,5.5566,4.3561,4.5971,4.797,4.9275,5.1754,5.3922,5.4121,5.4821,5.5721,5.6895,5.7829,5.8458,5.8566,5.9178,5.9997,6.1174,6.2223,6.2696,6.2122,6.2576,6.236,6.073,6.1121,6.1869,6.2727,6.3303,6.4257,6.5782,6.6859,6.7455,6.7455,6.8494,6.909,6.909,6.909,6.8975,6.8763,6.8129,6.7571,6.709,6.6513,6.6109,6.5897,6.5897,6.5897,6.5897,6.5897,6.5897,6.5897,6.5897,6.5532,6.4878,6.4012,6.2916,6.1781,6.132,6.0839,6.0396,5.9992,5.9704,5.93,5.8069,5.7387,5.6887,5.6252,5.5876,5.5703,5.5703,5.5703,5.5703,5.5703,5.5703,5.5703,5.5703,5.5241,5.4818,5.4818,5.4164,5.3427,5.2992,5.2576,5.2161,5.172,5.1507,5.1391,5.1409,5.1393,5.1396,5.14,5.1402,5.1091,5.0293,4.9648,4.916,4.8926,4.8906,4.8906,4.8906,4.9121,4.9258,4.9258,5.0078,5.0644,5.0879,5.1465,5.2305,5.3418,5.3418,5.4199,5.5664,5.5664,5.5996,4.4307,4.6754,4.9891,5.2273,5.4188,5.5721,5.651,5.7317,5.7905,5.7941,5.8001,5.8142,5.8542,5.893,5.9888,6.1917,6.262,6.2892,6.2873,6.2892,6.228,6.0613,6.0477,6.0876,6.177,6.3424,6.4853,6.584,6.7436,6.8359,6.8359,6.9937,7.0821,7.0821,7.0821,7.0456,6.9667,6.9629,6.8763,6.709,6.7071,6.6647,6.5897,6.5897,6.5897,6.5897,6.5897,6.5897,6.5897,6.5897,6.5878,6.5763,6.4897,6.4532,6.4282,6.2659,6.0993,5.9665,6.0473,6.0204,5.9492,5.9435,5.8319,5.7003,5.6964,5.6368,5.5703,5.5703,5.5703,5.5703,5.5703,5.5703,5.5703,5.5703,5.5684,5.5665,5.5665,5.503,5.4463,5.4435,5.3282,5.2284,5.2271,5.1791,5.1396,5.1391,5.14,5.1404,5.1405,5.1406,5.1094,5.0293,5.0176,4.9824,4.8965,4.8906,4.8906,4.8906,4.9687,5.0156,5.0156,5.0937,5.1758,5.2617,5.2656,5.3516,5.5215,5.5215,5.5683,5.6562,5.6562,5.6562,4.6949,4.9945,5.2824,5.4353,5.5955,5.7262,5.7538,5.7813,5.7997,5.7997,5.7152,5.6591,5.7284,5.7299,5.8052,6.0677,6.1896,6.2798,6.3626,6.3751,6.3121,6.1402,6.1721,6.2223,6.2566,6.2699,0.0,6.4853,6.6525,6.773,6.8365,6.9994,7.0898,7.0898,7.0898,7.0764,7.0494,6.9975,6.9129,6.7955,6.684,6.6147,6.5897,6.5897,6.5897,6.5897,6.5897,6.5897,6.5897,6.5897,6.5897,6.5801,6.4936,6.4609,6.4455,6.332,6.2185,6.1166,6.0896,6.0608,6.0262,5.9685,5.8761,5.7742,5.7176,5.6387,5.5703,5.5703,5.5703,5.5703,5.5703,5.5703,5.5703,5.5703,5.5703,5.5703,5.5703,5.5491,5.5168,5.4718,5.4224,5.3734,5.3249,5.3076,5.2828,5.2335,5.1774,5.1405,5.1405,5.0937,5.0508,5.0234,4.9687,4.9219,4.8926,4.9433,4.9766,4.9766,5.0547,5.0996,5.0996,5.1816,5.2402,5.2695,5.3262,5.4141,5.5293,5.5293,5.5742,5.6601,5.6601,5.6601,4.9895,5.2397,5.4355,5.5907,5.7134,5.7927,5.7927,5.7753,5.7483,5.7189,5.5849,5.4938,5.5607,5.5369,5.622,5.9734,6.1041,6.2322,6.4348,6.4382,6.3885,6.3064,6.3197,6.348,6.3824,6.3427,0.0,6.4813,6.6732,6.8007,6.8317,6.994,7.0857,7.0857,7.0885,7.0898,7.0898,7.0398,6.9552,6.8365,6.6994,6.6186,6.5897,6.5897,6.5897,6.5897,6.5897,6.5897,6.5897,6.5897,6.5897,6.584,6.5282,6.5051,6.4955,6.4089,6.3435,6.282,6.1666,6.105,6.0704,6.0146,5.9396,5.8627,5.805,5.708,5.6145,5.6145,5.5934,5.5703,5.5703,5.5703,5.5703,5.5703,5.5703,5.5703,5.5703,5.5703,5.5572,5.5142,5.4849,5.4539,5.4047,5.3871,5.3631,5.3164,5.2651,5.2108,5.1483,5.0957,5.0625,5.0625,5.0137,4.9785,4.9785,5.0312,5.0625,5.0625,5.1406,5.1855,5.1855,5.2695,5.3301,5.3613,5.418,5.4883,5.5762,5.5762,5.6055,5.6601,5.6601,5.6601,5.2804,5.399,5.4654,5.7012,5.7697,5.7792,5.7737,5.7189,5.6455,5.5629,5.4124,5.3056,5.3458,5.3286,5.4503,5.89,6.0106,6.1655,6.4936,6.4783,6.4611,6.5375,6.4821,6.4668,6.5394,6.5547,0.0,6.5714,0.0,6.9021,6.8306,6.986,7.0787,7.0787,7.0857,7.0898,7.0898,7.086,7.0014,6.8385,6.7513,6.6667,6.5897,6.5897,6.5897,6.5897,6.5897,6.5897,6.5897,6.5897,6.5897,6.5897,6.5897,6.5897,6.5801,6.4974,6.4647,6.4378,6.2724,6.1589,6.0858,6.08,6.0204,5.9492,5.9492,5.8357,5.706,5.7003,5.6406,5.5761,5.5703,5.5703,5.5703,5.5703,5.5703,5.5703,5.5703,5.5703,5.5703,5.5703,5.5181,5.4729,5.468,5.4218,5.3841,5.3861,5.3945,5.3396,5.1738,5.1523,5.1523,5.1523,5.1523,5.1523,5.1523,5.1523,5.1523,5.1523,5.2305,5.2773,5.2773,5.3594,5.4453,5.5273,5.5332,5.5762,5.6601,5.6601,5.6601,5.6601,5.6601,5.6601,5.3258,5.5171,5.6667,5.7431,5.7697,5.7645,5.7042,5.5925,5.4785,5.3977,5.1555,4.9593,4.9673,5.1361,5.3396,5.5473,5.9187,6.2652,6.5058,6.5776,6.6139,6.635,6.6713,6.6789,6.6407,6.7496,0.0,0.0,6.8001,6.8636,6.9078,7.0143,7.0718,7.0718,7.0806,7.0834,7.0834,7.0275,6.9475,6.8385,6.7513,6.6667,6.5897,6.5897,6.5897,6.5897,6.5897,6.5897,6.5897,6.5897,6.5897,6.5897,6.5897,6.5897,6.5859,6.5647,6.5166,6.4455,6.3378,6.2454,6.1658,6.1012,6.0204,5.9492,5.9492,5.8781,5.7838,5.7176,5.6849,5.6522,5.5857,5.5703,5.5703,5.5703,5.5703,5.5703,5.5703,5.5703,5.5703,5.5703,5.5553,5.547,5.5552,5.4959,5.453,5.4734,5.4231,5.3721,5.3378,5.334,5.334,5.334,5.334,5.334,5.334,5.334,5.334,5.334,5.3555,5.3672,5.3672,5.4512,5.5078,5.5293,5.5937,5.6387,5.6601,5.6601,5.6601,5.6601,5.6601,5.6601,5.5113,5.6632,5.7666,5.7679,5.7423,5.6784,5.5286,5.3847,5.2289,5.0398,4.7976,4.6195,4.6195,4.8374,5.0956,5.3454,5.7823,6.2086,6.5478,6.6388,6.7114,6.8203,6.8413,6.8432,6.8336,6.9177,6.9521,0.0,6.9072,6.9176,6.9299,7.0172,7.0662,7.0662,7.0718,7.0762,7.0762,7.0345,6.972,6.8883,6.8383,6.7545,6.6417,6.6417,6.6224,6.5897,0.0,6.5897,6.5897,6.5897,6.5897,6.5897,6.5897,6.5897,6.5897,6.5897,6.559,6.5051,6.4166,6.332,6.2416,6.1204,6.0473,6.0069,6.0069,5.9492,5.8646,5.78,5.7311,5.681,5.5934,5.5703,5.5703,5.5703,5.5703,5.5703,5.5703,5.5703,5.5703,5.5703,5.5703,5.5726,5.5808,5.5485,5.5319,5.5551,5.5213,5.4984,5.5113,5.4472,5.4003,5.4004,5.4004,5.4004,5.4004,5.4004,5.4004,5.4004,5.4355,5.457,5.457,5.541,5.5879,5.5879,5.6348,5.6601,5.6601,5.6601,5.6601,5.6601,5.6601,5.6601,5.74,5.7969,5.8005,5.789,5.7073,5.566,5.3269,5.1465,4.9407,4.6232,4.4287,4.3149,4.3039,4.519,4.8257,5.209,5.6206,6.0733,6.5815,6.6636,6.763,7.0113,6.9788,6.9674,7.0495,7.0572,7.0629,7.0744,7.0763,7.0342,6.9406,7.012,7.0588,7.0604,7.0662,7.0688,7.0703,7.0703,7.0292,6.9486,6.9486,6.8702,6.725,6.7135,6.6724,6.6051,6.5955,6.5897,6.5897,6.5897,6.5897,6.5897,6.5897,6.5897,6.5897,6.5897,6.5897,6.5782,6.4897,6.4109,6.3205,6.1512,6.0877,6.08,6.08,6.0262,5.9492,5.8684,5.7915,5.7118,5.6126,5.5857,5.5838,5.5722,5.5703,5.5703,5.5703,5.5703,5.5703,5.5703,5.5703,5.5703,5.5703,5.5798,5.5938,5.6155,5.6286,5.642,5.6587,5.5288,5.4354,5.4355,5.4355,5.4355,5.4355,5.4355,5.4355,5.4355,5.5058,5.5469,5.5469,5.6191,5.6601,5.6601,5.6601,5.6601,5.6601,5.6601,5.6601,5.6601,5.6601,5.6601,5.8005,5.8235,5.8238,5.8213,5.7019,5.5184,5.2776,4.9905,4.7003,4.4452,4.2635,4.1313,4.0653,4.4069,4.7692,4.9807,5.4624,5.9873,6.4917,6.6254,6.763,7.0113,7.0285,7.0533,7.1393,7.147,0.0,0.0,7.2539,7.1852,7.0285,7.0359,7.0487,7.0588,7.062,7.0647,7.0703,7.0703,7.0282,6.9419,6.9419,6.8944,6.8073,6.7363,6.6967,6.684,6.6186,0.0,6.5897,6.5897,6.5897,6.5897,6.5897,6.5897,6.5897,6.5897,6.5897,6.5782,6.4897,6.4493,6.4109,6.2428,6.1389,6.08,6.08,6.0685,6.0396,5.9531,5.9184,5.8704,5.7176,5.6772,5.6599,5.5857,5.5703,5.5703,5.5703,5.5703,5.5703,5.5703,5.5703,5.5703,5.5703,5.5716,5.5817,5.6084,5.6148,5.6266,5.6554,5.6341,5.615,5.6151,5.6152,5.6152,5.6152,5.6152,5.6152,5.6152,5.6289,5.6367,5.6367,5.6523,5.6601,5.6601,5.6601,5.6601,5.6601,5.6601,5.6601,5.6601,5.6601,5.6601,5.8667,5.8812,5.8812,5.8812,5.7105,5.449,5.1101,4.8089,4.5053,4.1679,4.0396,3.9735,3.935,4.2801,4.6111,4.7382,5.1893,5.7008,6.2089,6.3904,6.5987,6.9368,7.0553,7.124,7.1677,7.21,7.2539,7.296,7.2998,7.2635,7.1794,7.1317,7.0894,7.0506,7.0487,7.0519,7.0547,7.0547,7.0371,7.0019,7.0019,6.9653,6.8924,6.8487,6.787,6.7071,6.6686,6.6282,6.5897,6.5897,6.5897,6.5897,6.5897,6.5897,6.5897,6.5897,6.5897,6.584,6.5416,6.4974,6.4397,6.3128,6.2166,6.1389,6.0935,6.08,6.0608,5.9742,5.9492,5.9223,5.7992,5.7338,5.6887,5.6483,5.603,5.5703,5.5703,5.5703,5.5703,5.5703,5.5703,5.5703,5.5703,5.5703,5.5778,5.5959,5.607,5.6169,5.6404,5.6536,5.6594,5.6596,5.66,5.6601,5.6601,5.6601,5.6601,5.6601,5.6601,5.6601,5.6601,5.6601,5.6601,5.6601,5.6601,5.6601,5.6601,5.6601,5.6601,5.6601,5.6601,5.6601,5.9238,5.9431,5.9431,5.9431,5.7057,5.3681,4.972,4.6595,4.3412,3.958,3.8795,3.8795,3.8795,4.1512,4.4212,4.5565,4.9429,5.4104,5.9376,6.1898,6.4611,6.8451,7.0572,7.1756,7.1947,7.275,0.0,7.3514,7.3361,7.3093,7.273,7.2062,7.1298,7.0438,7.04,7.04,7.04,7.04,7.0451,7.0554,7.0554,7.0268,6.9731,6.9553,6.8707,6.7352,6.7167,6.6628,6.5897,6.5897,6.5897,6.5897,6.5897,6.5897,6.5897,6.5897,6.5897,6.5897,6.5897,6.5455,6.4724,6.3858,6.2916,6.1947,6.105,6.08,6.0666,5.9973,5.9781,5.9588,5.8781,5.805,5.7445,5.7099,5.6483,5.5934,5.5742,5.5703,5.5703,5.5703,5.5703,5.5703,5.5703,5.5703,5.5738,5.588,5.602,5.6146,5.6279,5.6486,5.6602,5.6607,5.6595,5.6599,5.6599,5.6601,5.6601,5.6599,5.6601,5.6601,5.6598,5.66,5.6601,5.6601,5.6601,5.6601,5.6601,5.6601,5.6601,5.6601,5.6601,5.66,5.9447,5.9834,5.9834,5.9834,5.6638,5.2717,4.9899,4.596,4.2184,3.9611,3.9059,3.9059,3.9059,4.034,4.2387,4.531,4.846,5.2556,5.8402,6.2032,6.5066,6.7706,7.0206,7.2004,7.2788,7.3609,7.4412,7.5212,7.4545,7.3437,7.189,7.1737,7.1298,7.0438,7.04,7.04,7.04,7.04,7.0419,7.0419,7.0419,7.0448,7.0467,6.9738,6.8949,6.815,6.7429,6.6628,0.0,6.5897,6.5897,6.5897,6.5897,6.5897,6.5897,6.5897,6.5897,6.5897,6.5897,6.584,6.5628,6.4762,6.3397,6.1947,6.105,6.08,6.0781,6.0704,6.0685,6.0473,5.9608,5.9338,5.8896,5.7368,5.6945,5.6656,5.5857,5.5703,5.5703,5.5703,5.5703,5.5703,5.5703,5.5703,5.5738,5.588,5.602,5.6146,5.6279,5.6475,5.6608,5.6608,5.6605,5.6596,5.6599,5.6599,5.6599,5.6599,5.6599,5.6598,5.6594,5.6594,5.6594,5.6594,5.6598,5.6598,5.6594,5.6598,5.6598,5.6594,5.6594,5.6594,5.822,5.9326,6.0041,6.0167,5.6901,5.292,5.0075,4.6027,4.2164,3.963,3.9101,3.9156,3.9311,4.0299,4.1681,4.3453,4.5308,4.8208,5.3129,5.6301,5.9797,6.4344,6.8031,7.0935,7.2807,7.4201,7.5119,7.5462,7.5176,7.424,7.2559,7.1985,7.1298,7.0438,7.04,7.04,7.04,7.04,7.04,7.04,7.04,7.047,7.0566,6.9762,6.9006,6.8271,6.7448,6.6628,0.0,6.5897,6.5897,6.5897,6.5897,6.5897,6.5897,6.5897,6.5897,6.5897,6.5897,6.5897,6.5763,6.4878,6.4147,6.3339,6.1993,6.1235,6.08,6.08,6.08,6.0723,6.0358,5.9896,5.9204,5.805,5.778,5.753,5.6676,5.6483,5.6329,5.5799,5.5703,5.5703,5.5703,5.5703,5.5716,5.5759,5.5887,5.5998,5.6044,5.6271,5.6416,5.6416,5.6526,5.6607,5.6591,5.6594,5.6596,5.6596,5.6596,5.6595,5.6593,5.6593,5.6593,5.6593,5.6595,5.6595,5.6593,5.6595,5.6595,5.6593,5.6593,5.6864,5.6542,5.8091,5.9102,5.9248,5.6215,5.2454,4.9537,4.5743,4.216,3.9812,3.9337,3.9383,3.9568,4.0302,4.1193,4.2227,4.3518,4.587,5.0092,5.3301,5.7046,6.1936,6.6025,6.9444,7.1985,7.4201,7.5499,7.5499,7.5252,7.4488,7.3074,7.2157,7.1298,7.0438,7.04,7.04,7.04,7.04,7.04,7.04,7.04,7.0451,7.0499,6.9762,6.8992,6.8229,6.7435,6.6628,0.0,6.5897,6.5897,6.5897,6.5897,6.5897,6.5897,6.5897,6.5897,6.5897,6.5897,6.5897,6.5801,6.5186,6.4801,6.4339,6.2878,6.1858,6.1127,6.0858,6.08,6.08,6.08,6.0339,5.9685,5.8858,5.8646,5.8415,5.7569,5.7176,5.683,5.6214,5.5876,5.5703,5.5703,5.5703,5.5703,5.5703,5.5808,5.5907,5.5907,5.6135,5.6292,5.6292,5.6486,5.6598,5.6602,5.6606,5.6609,5.6609,5.6609,5.6609,5.6606,5.6606,5.6606,5.6606,5.6609,5.6609,5.6606,5.6609,5.6726,5.6958,5.6958,5.7521,5.4505,5.6014,5.6645,5.6625,5.4104,5.0892,4.8055,4.4818,4.1931,4.0233,3.9892,3.9892,3.9903,4.0108,4.0768,4.2166,4.4013,4.6748,5.099,5.5212,5.8784,6.1306,6.4649,6.7706,7.019,7.3495,7.5499,7.5499,7.4698,0.0,7.3036,7.2157,7.1298,7.0438,7.04,7.04,7.04,7.04,7.04,7.04,7.04,7.04,7.0381,6.9712,6.8963,6.8158,6.7409,6.6628,0.0,6.5897,6.5897,6.5897,6.5897,6.5897,6.5897,6.5897,6.5897,6.5897,6.5897,6.5897,6.5897,6.5878,6.5301,6.4436,6.3551,6.2724,6.1908,6.1031,6.08,6.08,6.08,6.0781,6.0569,5.9685,5.9492,5.9281,5.8473,5.7607,5.7003,5.6983,5.6291,5.5703,5.5703,5.5703,5.5703,5.5703,5.5808,5.5907,5.5907,5.6135,5.6292,5.6292,5.6475,5.6591,5.66,5.6602,5.6602,5.6602,5.6602,5.6596,5.6606,5.6606,5.6606,5.6606,5.6596,5.6596,5.6606,5.6596,5.7006,5.7797,5.7797,5.8714,4.9908,5.1658,5.3034,5.2442,5.0646,4.843,4.62,4.3983,4.1912,4.0244,3.9903,3.9965,4.0147,4.0244,4.137,4.4677,4.5712,4.7608,5.183,5.5575,5.9033,6.2128,6.8012,7.2367,7.3743,7.4851,7.5499,7.5499,7.4698,7.3858,7.3036,7.2157,7.1298,7.0438,7.04,7.04,7.04,7.04,7.04,7.04,7.04,7.0435,7.048,6.9172,6.8474,6.8191,6.6859,6.6128,6.5897,6.5897,6.5897,6.5897,6.5897,6.5897,6.5897,6.5897,6.5897,6.5897,6.5897,6.5897,6.5897,6.5897,6.5705,6.532,6.4455,6.3205,6.1928,6.105,6.08,6.08,6.08,6.08,6.0723,6.0454,6.0396,6.0165,5.93,5.8896,5.8357,5.7214,5.6791,5.6406,5.5799,5.5703,5.5703,5.5703,5.5747,5.5768,5.5768,5.5921,5.6057,5.6152,5.6299,5.6449,5.6589,5.6591,5.6595,5.66,5.6595,5.6593,5.6596,5.661,5.6606,5.6606,5.6608,5.6608,5.6606,5.7157,5.7859,5.8695,5.93,5.9866,4.6424,4.8239,4.9557,4.9003,4.7857,4.6372,4.4524,4.3064,4.1683,4.0333,4.0038,4.0098,4.0263,4.0301,4.1351,4.459,4.5373,4.715,5.1716,5.5269,5.9128,6.379,6.933,7.3113,7.3972,7.4945,7.5348,7.5023,7.4507,7.3705,7.2559,7.1985,7.1298,7.0438,7.04,7.04,7.04,7.04,7.0435,7.0487,7.0487,7.0519,7.0574,6.8963,6.8253,6.8213,6.6602,6.5897,0.0,6.5897,6.5897,6.5897,6.5897,6.5897,6.5897,6.5897,6.5897,6.5897,6.5897,6.5897,6.5897,6.5897,6.5686,6.5243,6.4378,6.3166,6.1928,6.105,6.08,6.08,6.08,6.08,6.0723,6.0396,6.055,6.055,5.9685,5.9492,5.9184,5.8146,5.7703,5.7203,5.6338,5.6195,5.6069,5.5742,5.5703,5.5703,5.5703,5.5808,5.5938,5.602,5.6186,5.6352,5.6475,5.6555,5.6608,5.6595,5.6608,5.6608,5.6596,5.6608,5.6606,5.6606,5.6899,5.7055,5.7055,5.8226,5.9065,5.9612,6.0471,6.0881,0.0,4.543,4.6061,4.6061,4.5545,4.4609,4.2985,4.203,0.0,4.0473,4.0301,4.0339,4.053,4.0473,4.1027,4.3004,4.4006,4.6279,5.1257,5.5059,5.9739,6.6273,6.9215,7.0992,7.1794,7.4028,7.5061,7.4259,7.4087,7.3342,7.1775,7.1642,7.124,7.0438,7.04,7.04,7.04,7.04,7.047,7.0604,7.0604,7.0651,7.0646,6.9049,6.8309,0.0,6.6602,6.5897,6.5897,6.5897,6.5897,6.5897,6.5897,6.5897,6.5897,6.5897,6.5897,6.5897,6.5897,6.5897,6.5897,6.5897,6.5359,6.4532,6.3666,6.2781,6.1928,6.105,6.08,6.08,6.08,6.08,6.0589,5.9781,6.0204,6.0569,5.9762,5.955,5.9473,5.9435,5.8761,5.7934,5.706,5.6907,5.6637,5.5818,5.5703,5.5703,5.5703,5.5818,5.5879,5.5904,5.6135,5.6308,5.632,5.65,5.6606,5.6606,5.6606,5.6606,5.6606,5.6645,5.6684,5.6684,5.7484,5.7914,5.7992,5.9612,6.0432,6.051,6.133,6.1698,3.9871,0.0,4.1753,4.1753,4.2087,4.2125,0.0,4.1208,4.1266,4.0473,4.0301,4.0874,4.2784,4.2087,4.2813,4.7742,4.927,5.1142,5.4906,6.0561,6.5872,7.0018,7.2176,7.3399,7.359,7.4144,7.4431,7.4221,7.3017,7.2119,7.1718,7.1068,7.061,7.0419,7.04,7.04,7.04,7.04,7.047,7.0604,7.0604,7.0662,7.0719,6.9063,6.8337,6.8275,6.6615,6.5897,6.5897,6.5897,6.5897,6.5897,6.5897,6.5897,6.5897,6.5897,6.5897,6.5897,6.5897,6.5897,6.5897,6.5897,6.5763,6.5436,6.457,6.3262,6.1928,6.105,6.08,6.08,6.08,6.08,6.0742,6.0531,6.0646,6.0742,6.0531,5.9973,5.9319,5.8704,5.7896,5.7041,5.6145,5.6011,5.5934,5.5722,5.5703,5.5703,5.5703,5.5737,5.5827,5.6022,5.6104,5.6256,5.6503,5.658,5.6606,5.6606,5.6606,5.6606,5.6606,5.7192,5.7523,5.7523,5.8363,5.9124,5.9788,6.0198,6.0744,6.1408,6.1601,6.1698,3.7941,3.9603,4.096,4.1361,4.1762,4.1972,4.1552,4.1189,4.0826,4.0377,4.0301,4.0817,4.2545,4.2737,4.4074,4.8449,5.0519,5.3454,5.8746,6.3656,6.7935,7.1298,7.2501,7.3361,0.0,7.3877,7.3647,7.3647,7.2444,7.1527,7.1126,7.0667,7.04,7.04,7.04,7.04,7.04,7.0451,7.0534,7.0647,7.0678,7.0556,7.0266,6.9363,6.8531,6.7744,6.684,6.6244,6.5897,6.5897,6.5897,6.5897,6.5897,6.5897,6.5897,6.5897,6.5897,6.5897,6.5897,6.5897,6.5897,6.5897,6.5897,6.5743,6.4859,6.3974,6.307,6.2185,6.1954,6.1858,6.1493,6.1408,6.1185,6.0396,6.0512,6.0685,6.0281,5.9838,5.9377,5.8934,5.8165,5.7319,5.6464,5.631,5.631,5.631,5.5953,5.5838,5.6252,5.5953,5.5758,5.5896,5.6035,5.6333,5.6916,5.7085,5.6996,5.6626,5.6606,5.6762,5.7133,5.7562,5.8187,5.8987,5.9456,6.0139,6.0998,6.0998,6.1232,6.1698,6.1698,6.1913,3.7578,3.9947,4.1991,4.2488,4.2794,4.2947,4.2832,4.1705,4.0683,4.0683,4.0683,4.1055,4.224,4.3615,4.5496,4.8304,5.1123,5.5422,6.249,6.5452,6.8031,7.1126,7.1622,7.2253,7.3686,7.3189,7.2788,7.2788,7.1985,7.1183,7.0457,7.04,7.04,7.04,7.0419,7.0435,7.0435,7.0538,7.0632,7.0718,7.0643,7.0291,6.9687,6.9417,6.8494,6.709,0.0,0.0,6.5897,6.5897,6.5897,6.5897,6.5897,6.5897,6.5897,6.5897,6.5897,6.5897,6.5897,6.5897,6.5897,6.5897,6.5897,6.5763,6.5013,6.4801,6.4647,6.3897,6.3512,6.3147,6.2454,6.2281,6.1877,6.0281,6.0454,6.0762,5.9896,5.9588,5.9492,5.9492,5.8858,5.8069,5.7319,5.7214,5.7214,5.7214,5.6569,5.6357,5.7099,5.6445,5.5908,5.5951,5.6036,5.6466,5.7389,5.7661,5.7562,5.7016,5.6977,5.7348,5.8168,5.8207,5.8948,6.0568,6.0607,6.0959,6.1698,6.1835,6.1835,6.1698,6.1835,6.2228,3.904,4.1714,4.33,4.2011,4.2775,4.3643,4.2966,4.2603,4.2412,4.2412,4.2412,4.3329,4.6279,4.7043,4.8514,5.2499,5.6454,6.0695,6.5452,6.7037,6.8432,7.0381,7.124,7.1811,7.2062,7.1966,7.189,7.189,7.1087,7.0553,7.0419,7.04,7.04,7.04,7.0503,7.0573,7.0573,7.0588,7.0662,7.0772,7.0057,6.9695,6.9648,6.8167,6.734,6.7051,0.0,6.6013,6.5897,6.5897,6.5897,6.5897,6.5897,6.5897,6.5897,6.5897,6.5897,6.5897,6.5897,6.5897,6.5897,6.5897,6.5897,6.5878,6.5743,6.5705,6.5667,6.5532,6.4436,6.3281,6.3147,6.3128,6.2878,6.1916,6.1812,6.1658,6.0781,6.0012,5.9492,5.9492,5.8858,5.8261,5.8127,5.8107,5.8107,5.8107,5.7992,5.7953,5.8088,5.7338,5.6888,5.7106,5.6517,5.6536,5.7648,5.779,5.805,5.8675,5.8712,5.9104,5.9963,6.0002,6.0471,6.1483,6.1503,6.1562,6.1698,6.2442,6.2423,6.1718,6.2462,6.2481,3.8228,4.0731,4.2794,4.3405,4.5488,4.7188,4.6385,4.5831,4.5507,4.5507,4.5507,4.6118,4.8124,4.9595,5.2174,5.7313,6.0943,6.4095,6.6942,6.8069,6.9043,7.0266,0.0,7.1183,7.1642,7.1259,7.1183,7.1677,7.0896,7.04,7.04,7.04,7.0435,7.0522,7.0573,7.0616,7.0723,7.0723,7.0733,7.0787,7.0426,6.98,6.8994,6.8667,6.7744,6.6455,0.0,6.6301,6.5897,6.5897,6.5897,6.5897,6.5897,6.5897,6.5897,6.5897,6.5897,6.5897,6.5897,6.5897,6.5897,6.5897,6.5897,6.5897,6.5897,6.5897,6.5897,6.5897,6.532,6.4609,6.4128,6.4012,6.3801,6.2954,6.2416,6.1985,6.1601,6.0454,5.9492,5.9492,5.8858,5.83,5.83,5.83,5.8454,5.8877,5.8588,5.8473,5.8896,5.8223,5.7741,5.7872,5.7661,5.7916,5.89,5.9128,5.9163,5.9102,5.9534,5.9983,6.0373,6.0842,6.1291,6.1698,6.2156,6.2393,6.2393,6.3271,6.3252,6.2412,6.2815,6.3047,3.7731,3.9871,4.2106,4.4657,4.7226,4.9232,4.9595,4.8716,4.8017,4.8812,4.8984,4.9175,4.9843,5.2327,5.5957,6.1077,6.421,6.6426,6.7706,6.8814,6.9712,7.0342,7.04,7.0667,7.1317,7.0801,7.0686,7.1355,7.0782,7.04,7.04,7.0435,7.0487,7.0588,7.0635,7.0708,7.0806,7.082,7.0815,7.0815,7.0486,6.9648,6.8417,6.8686,6.7744,6.5936,6.6551,6.6455,6.5897,6.5897,6.5897,6.5897,6.5897,6.5897,6.5897,6.5897,6.5897,6.5897,6.5897,6.5897,6.5897,6.5897,6.5897,6.5897,6.5897,6.5897,6.5897,6.5897,6.5897,6.5743,6.507,6.4897,6.4686,6.382,6.3128,6.2627,6.2416,6.1185,6.0108,6.0108,5.9454,5.8896,5.8896,5.8896,5.9088,5.9704,5.9281,5.9108,5.9723,5.9088,5.8591,5.8616,5.8662,5.9076,5.9999,6.046,6.0417,5.9753,6.0336,6.0705,6.0705,6.1349,6.1798,6.1998,6.265,6.3105,6.3304,6.4179,6.404,6.3007,6.321,6.3555,3.9212,4.0788,4.2106,4.4657,4.5479,4.6672,5.055,4.9526,4.8667,5.1792,5.2442,5.2461,5.2518,5.588,5.9568,6.2357,6.5566,6.7744,6.7878,0.0,7.0342,7.04,7.04,7.0419,7.0495,7.0457,7.0438,7.0495,7.0457,7.04,7.04,7.0522,7.0588,7.0604,7.0718,7.0806,7.0787,7.0857,7.0885,7.0865,6.9321,6.8532,6.8359,6.6859,6.607,6.5897,6.5955,6.5955,6.5897,6.5897,6.5897,6.5897,6.5897,6.5897,6.5897,6.5897,6.5897,6.5897,6.5897,6.5897,6.5897,6.5897,6.5897,6.5897,6.5897,6.5897,6.5897,6.5897,6.5897,6.5878,6.582,6.5801,6.559,6.4705,6.4455,6.4205,6.3397,6.2531,6.1908,6.1908,6.1204,6.0608,6.0608,6.0608,6.0627,6.0704,6.0666,6.0627,6.0704,5.9954,5.9455,5.9592,5.9056,5.9149,6.0274,6.1122,6.158,6.1522,6.1568,6.1601,6.1601,6.1679,6.2076,6.2888,6.2967,6.3401,6.4209,6.508,6.4646,6.3027,6.3835,6.3809,3.7436,4.0435,4.3291,4.4246,4.6462,4.8965,5.1123,5.248,5.3932,5.6243,5.6721,5.6721,5.6721,5.8479,6.0733,6.3293,6.5643,6.7515,6.8566,6.9693,7.04,7.04,7.04,7.04,7.04,7.04,7.04,7.04,7.0487,7.0522,7.0522,7.0616,7.0693,7.0718,7.0777,7.0815,7.0857,7.0385,7.0148,7.0148,6.9513,6.8917,6.8359,6.7186,6.6359,6.5897,6.5897,6.5897,6.5897,6.5897,6.5897,6.5897,6.5897,6.5897,6.5897,6.5897,6.5897,6.5897,6.5897,6.5897,6.5897,6.5897,6.5897,6.5897,6.5897,6.5897,6.5897,6.5897,6.5897,6.5897,6.5897,6.5897,6.582,6.5493,6.4993,6.4512,6.4185,6.3435,6.2858,6.2858,6.2589,6.2358,6.2358,6.2358,6.2185,6.1678,6.162,6.1408,6.0858,6.1027,6.1208,6.131,6.1752,6.183,6.1266,6.2016,6.2272,6.1725,6.1702,6.1699,6.1699,6.2228,6.2659,6.2994,6.4054,6.4779,6.5113,6.5986,6.5516,6.3822,6.4708,6.4644,3.708,4.0205,4.3463,4.4543,4.7401,5.047,5.2401,5.4594,5.6912,5.9376,5.9701,5.9682,6.0226,6.0575,6.153,6.3872,6.562,6.719,6.8585,6.9502,7.0132,7.0381,7.04,7.04,7.04,7.0435,7.0451,7.0451,7.0569,7.0616,7.0616,7.0708,7.0762,7.0806,7.0565,7.0459,7.0514,6.9706,6.9302,6.9302,6.9013,6.8571,6.7955,6.7109,6.6417,6.5897,6.5897,6.5897,6.5897,6.5897,6.5897,6.5897,6.5897,6.5897,6.5897,6.5897,6.5897,6.5897,6.5897,6.5897,6.5897,6.5897,6.5897,6.5897,6.5897,6.5897,6.5897,6.5897,6.5897,6.5897,6.5897,6.5897,6.5897,6.5897,6.5436,6.5013,6.5013,6.4339,6.3724,6.3724,6.3505,6.3325,6.3325,6.3349,6.3168,6.2621,6.2544,6.2333,6.1736,6.226,6.2714,6.285,6.3609,6.3676,6.2605,6.3078,6.3158,6.2552,6.2514,6.2396,6.2119,6.2959,6.3546,6.3822,6.4997,6.5741,6.6014,6.6616,6.6147,6.4725,6.5321,6.5279,3.8833,4.0299,4.2355,4.5751,4.7954,5.0377,5.4571,5.5473,5.6625,6.0771,6.0981,6.0952,6.2667,6.2242,0.0,6.4006,6.5631,6.6961,6.7763,6.8642,6.9483,7.0285,7.0381,7.0381,7.0381,7.0499,7.0585,7.0585,7.0643,7.0684,7.0684,7.0739,7.0767,7.0767,7.0069,6.9687,6.9687,6.8821,6.8385,6.8379,6.7494,6.709,6.7071,6.6263,6.5897,6.5897,6.5897,6.5897,6.5897,6.5897,6.5897,6.5897,6.5897,6.5897,6.5897,6.5897,6.5897,6.5897,6.5897,6.5897,6.5897,6.5897,6.5897,6.5897,6.5897,6.5897,6.5897,6.5897,6.5897,6.5897,6.5897,6.5897,6.5897,6.5897,6.5897,6.5897,6.5897,6.5224,6.4609,6.4609,6.3965,6.3415,6.3415,6.3472,6.3516,6.3516,6.3516,6.3516,6.3516,6.3632,6.3804,6.408,6.4118,6.4166,6.4286,6.4312,6.4314,6.4295,6.4316,6.3925,6.3058,6.3857,6.472,6.5584,6.5603,6.6034,6.6894,6.6893,6.6443,6.5603,6.5618,6.5616,3.8287,4.1608,4.539,4.6433,5.0648,5.4867,5.6132,5.7749,5.986,6.2882,6.3345,6.3176,6.3088,6.2845,0.0,6.4181,6.5245,6.6227,6.7069,6.795,6.8602,6.8831,6.8851,6.8851,6.8851,6.8885,6.8919,6.8919,6.8973,6.8997,6.8997,6.9067,6.9108,6.9108,6.8904,6.8802,6.8802,6.7917,6.7494,6.7475,6.6647,6.6551,6.7071,6.6263,6.5897,6.5897,6.5897,6.5897,6.5897,6.5897,6.5897,6.5897,6.5897,6.5897,6.5897,6.5897,6.5897,6.5897,6.5897,6.5897,6.5897,6.5897,6.5897,6.5897,6.5897,6.5897,6.5897,6.5897,6.5897,6.5897,6.5897,6.5935,6.596,6.591,6.5935,6.5972,6.5972,6.5777,6.5589,6.5589,6.5388,6.5226,6.5226,6.5249,6.5068,6.45,6.4404,6.4434,6.4466,6.455,6.4705,6.4924,6.5526,6.5499,6.4393,6.4863,6.4941,6.4336,6.4883,6.4824,6.3944,6.4745,6.5331,6.5586,6.6191,6.664,6.6894,6.6893,6.6444,6.5605,6.6228,6.6189,4.0626,4.4192,4.8103,4.981,5.3571,5.7201,5.8563,6.0246,6.2167,6.4369,6.4602,6.4356,6.4191,6.3871,0.0,6.4805,6.5315,6.5901,6.6777,6.7353,6.7813,6.8162,6.8201,6.8201,6.8201,6.8211,6.8239,6.8239,6.8309,6.835,6.835,6.8391,6.8385,6.8385,6.8071,6.7878,6.7878,6.7051,6.6609,6.6609,6.6128,6.6147,6.6609,6.6109,6.5897,6.5897,6.5897,6.5897,6.5897,6.5897,6.5897,6.5897,6.5897,6.5897,6.5897,6.5897,6.5897,6.5897,6.5897,6.5897,6.5897,6.5897,6.5897,6.5897,6.5897,6.5897,6.5897,6.5897,6.5897,6.591,6.5935,6.5972,6.5996,6.5947,6.5977,6.5993,6.5993,6.5998,6.6001,6.6001,6.6024,6.6047,6.6047,6.6069,6.5906,6.5434,6.5357,6.538,6.547,6.5576,6.5699,6.5838,6.6405,6.6398,6.5429,6.5801,6.5898,6.5371,6.582,6.5879,6.5351,6.584,6.6113,6.6113,6.6621,6.6894,6.6894,6.6894,6.6621,6.6133,6.666,6.6621,4.439,4.7204,5.0244,5.4537,5.6433,5.8077,6.1274,6.2529,6.3474,6.5148,6.4912,6.469,6.564,6.512,6.4824,6.5678,6.5701,6.589,6.6696,6.6825,6.7098,6.7904,6.8,6.8,6.8,6.8037,6.8079,6.8079,6.8147,6.8167,6.8167,6.8167,6.8167,6.8167,6.7398,6.6994,6.6994,6.6263,6.5897,6.5897,6.5897,6.5897,6.5897,6.5897,6.5897,6.5897,6.5897,6.5897,6.5897,6.5897,6.5897,6.5897,6.5897,6.5897,6.5897,6.5897,6.5897,6.5897,6.5897,6.5897,6.5897,6.5897,6.5897,6.5897,6.5897,6.5897,6.5897,6.591,6.591,6.5923,6.5977,6.6001,6.6001,6.6001,6.6017,6.6013,6.6013,6.6013,6.6024,6.6024,6.6069,6.6102,6.6102,6.6155,6.6205,6.6205,6.6205,6.6235,6.6364,6.6497,6.6619,6.6684,6.6806,6.6894,6.6894,6.6894,6.6894,6.6894,6.6894,6.6894,6.6894,6.6894,6.6894,6.6894,6.6894,6.6894,6.6894,6.6894,6.6894,6.6894,6.6894,6.6894,4.2988,4.6387,5.0374,5.4619,5.7831,6.0327,6.175,6.2199,6.2778,6.4398,6.4635,6.484,6.5718,6.5718,6.5628,6.5853,6.584,6.5897,6.609,6.6128,6.6186,6.6378,6.6384,6.6384,6.6384,6.641,6.641,6.641,6.6423,6.6436,6.6436,6.6436,6.6436,6.6436,6.6263,6.6147,6.6147,6.5994,6.5897,6.5897,6.5897,6.5897,6.5897,6.5897,6.5897,6.5897,6.5897,6.5897,6.5897,6.5897,6.5897,6.5897,6.5897,6.5897,6.5897,6.5897,6.5897,6.5897,6.5897,6.5897,6.5897,6.5897,6.5897,6.5897,6.5897,6.5897,6.591,6.5972,6.5984,6.5977,6.5998,6.6044,6.6077,6.6077,6.6069,6.608,6.608,6.6112,6.6163,6.6163,6.6174,6.6184,6.6184,6.6194,6.6205,6.6205,6.6205,6.6205,6.6245,6.6356,6.6497,6.6615,6.6681,6.6784,6.6894,6.6894,6.6894,6.6894,6.6894,6.6894,6.6894,6.6894,6.6894,6.6894,6.6894,6.6894,6.6894,6.6894,6.6894,6.6894,6.6894,6.6894,4.3348,4.7068,5.1241,5.6247,5.9173,6.0916,6.1358,6.1485,6.1839,6.3078,6.3699,6.4243,6.5128,6.5282,6.5416,6.582,6.5897,6.5897,6.5897,6.5897,6.5897,6.5897,6.5897,6.5897,6.5897,6.5897,6.5897,6.5897,6.5897,6.5897,6.5897,6.5897,6.5897,6.5897,6.5897,6.5897,6.5897,6.5897,6.5897,6.5897,6.5897,6.5897,6.5897,6.5897,6.5897,6.5897,6.5897,6.5897,6.5897,6.5897,6.5897,6.5897,6.5897,6.5897,6.5897,6.5897,6.5897,6.5897,6.5897,6.5897,6.5897,6.5897,6.5897,6.5897,6.5897,6.5923,6.596,6.5996,6.6001,6.6017,6.6036,6.6069,6.6102,6.6134,6.6144,6.6144,6.6144,6.6184,6.6205,6.6205,6.6205,6.6205,6.6205,6.6205,6.6205,6.6205,6.6254,6.629,6.629,6.6432,6.6571,6.6639,6.6744,6.6811,6.6894,6.6894,6.6894,6.6894,6.6894,6.6894,6.6894,6.6894,6.6894,6.6894,6.6894,6.6894,6.6894,6.6894,6.6894,6.6894,6.6894,6.6894,4.3055,4.7441,5.2058,5.7665,5.9838,6.0608,6.0762,6.08,6.0993,6.1735,6.2512,6.3358,6.4224,6.4378,6.4609,6.532,6.5455,6.5493,6.5647,6.5686,6.5724,6.5878,6.5897,6.5897,6.5897,6.5897,6.5897,6.5897,6.5897,6.5897,6.5897,6.5897,6.5897,6.5897,6.5897,6.5897,6.5897,6.5897,6.5897,6.5897,6.5897,6.5897,6.5897,6.5897,6.5897,6.5897,6.5897,6.5897,6.5897,6.5897,6.5897,6.5897,6.5897,6.5897,6.5897,6.5897,6.5897,6.5897,6.5897,6.5897,6.5897,6.5897,6.5897,6.5897,6.591,6.596,6.6008,6.6013,6.6029,6.6036,6.6102,6.6112,6.6123,6.6194,6.6205,6.6205,6.6205,6.6205,6.6205,6.6205,6.6205,6.6205,6.6205,6.6205,6.6205,6.6205,6.629,6.638,6.6404,6.6566,6.6687,6.6697,6.6829,6.6894,6.6894,6.6894,6.6894,6.6894,6.6894,6.6894,6.6894,6.6894,6.6894,6.6894,6.6894,6.6894,6.6894,6.6894,6.6894,6.6894,6.6894,6.6894,3.843,4.472,5.176,5.6222,5.8511,5.9877,6.0627,6.08,6.0819,6.0954,6.1647,6.2512,6.332,6.3462,6.3512,6.3628,6.3647,6.3916,6.4666,6.4762,6.5051,6.5801,6.5897,6.5897,6.5897,6.5897,6.5897,6.5897,6.5897,6.5897,6.5897,6.5897,6.5897,6.5897,6.5897,6.5897,6.5897,6.5897,6.5897,6.5897,6.5897,6.5897,6.5897,6.5897,6.5897,6.5897,6.5897,6.5897,6.5897,6.5897,6.5897,6.5897,6.5897,6.5897,6.5897,6.5897,6.5897,6.5897,6.5897,6.5897,6.5897,6.5897,6.5897,6.591,6.5972,6.5996,6.6001,6.6066,6.608,6.6102,6.6174,6.6194,6.6194,6.6205,6.6205,6.6205,6.6205,6.6205,6.6205,6.6205,6.6205,6.6205,6.6205,6.6205,6.6205,6.6205,6.6225,6.6273,6.6388,6.6515,6.6646,6.6692,6.6829,6.6894,6.6894,6.6894,6.6894,6.6894,6.6894,6.6894,6.6894,6.6894,6.6894,6.6894,6.6894,6.6894,6.6894,6.6894,6.6894,6.6894,6.6894,6.6894,3.9623,4.4624,4.9702,5.4414,5.6857,5.8454,5.9762,6.0454,6.08,6.08,6.1089,6.1627,6.2474,6.2627,6.2781,6.3243,6.3288,6.3435,6.382,6.3878,6.4012,6.4397,6.4436,6.4647,6.5128,6.5166,6.5378,6.5859,6.5897,6.5897,6.5897,6.5897,6.5897,6.5897,6.5897,6.5897,6.5897,6.5897,6.5897,6.5897,6.5897,6.5897,6.5897,6.5897,6.5897,6.5897,6.5897,6.5897,6.5897,6.5897,6.5897,6.5897,6.5897,6.5897,6.5897,6.5897,6.5897,6.591,6.5947,6.596,6.596,6.5958,6.597,6.595,6.5986,6.604,6.6055,6.608,6.6123,6.6155,6.6194,6.6205,6.6205,6.6205,6.6205,6.6205,6.6205,6.6205,6.6205,6.6205,6.6205,6.6205,6.6205,6.6205,6.6205,6.6205,6.6334,6.6443,6.6504,6.6662,6.6772,6.6807,6.6854,6.6894,6.6894,6.6894,6.6894,6.6894,6.6894,6.6894,6.6894,6.6894,6.6894,6.6894,6.6894,6.6894,6.6894,6.6894,6.6894,6.6894,6.6894,6.6894,3.9738,4.3181,4.6201,5.1298,5.4145,5.6203,5.8107,5.9377,6.0223,6.0435,6.0646,6.0993,6.1658,6.1774,6.1973,6.257,6.2666,6.2743,6.2954,6.2993,6.307,6.3281,6.3288,6.357,6.4205,6.4474,6.4878,6.5513,6.5763,6.5897,6.5897,6.5897,6.5897,6.5897,6.5897,6.5897,6.5897,6.5897,6.5897,6.5897,6.5897,6.5897,6.5897,6.5897,6.5897,6.5897,6.5897,6.5897,6.5897,6.5897,6.5897,6.5897,6.5897,6.5897,6.5897,6.5923,6.5923,6.5935,6.5977,6.6001,6.5993,6.599,6.6001,6.6013,6.6024,6.6058,6.6102,6.6112,6.6155,6.6205,6.6205,6.6205,6.6205,6.6205,6.6205,6.6205,6.6205,6.6205,6.6205,6.6205,6.6205,6.6205,6.6235,6.6245,6.6245,6.6245,6.645,6.659,6.659,6.6759,6.6854,6.6894,6.6894,6.6894,6.6894,6.6894,6.6894,6.6894,6.6894,6.6894,6.6894,6.6894,6.6894,6.6894,6.6894,6.6894,6.6894,6.6894,6.6894,6.6894,6.6894,6.6894,3.5622,3.8334,4.0912,4.6028,4.975,5.2808,5.5318,5.7203,5.8646,5.9415,6.0223,6.08,6.0858,6.0858,6.0877,6.0916,6.0935,6.1223,6.2062,6.2159,6.2454,6.3224,6.3288,6.332,6.3346,6.4128,6.4628,6.4666,6.5436,6.5897,6.5897,6.5897,6.5897,6.5897,6.5897,6.5897,6.5897,6.5897,6.5897,6.5897,6.5897,6.5897,6.5897,6.5897,6.5897,6.5897,6.5897,6.5897,6.5897,6.5897,6.5897,6.5897,6.5897,6.5897,6.591,6.5972,6.5996,6.6008,6.5998,6.6001,6.6001,6.6001,6.6001,6.6013,6.608,6.6091,6.6112,6.6184,6.6205,6.6205,6.6205,6.6205,6.6205,6.6205,6.6205,6.6205,6.6205,6.6205,6.6205,6.6205,6.6205,6.6245,6.6372,6.6396,6.6396,6.6396,6.651,6.659,6.659,6.6661,6.6758,6.6894,6.6894,6.6894,6.6894,6.6894,6.6894,6.6894,6.6894,6.6894,6.6894,6.6894,6.6894,6.6894,6.6894,6.6894,6.6894,6.6894,6.6894,6.6894,6.6894,6.6894,3.416,3.6334,3.8738,4.3316,4.699,5.0125,5.2683,5.5434,5.7703,5.8569,5.9396,6.0146,6.0704,6.08,6.08,6.08,6.08,6.0916,6.1235,6.1262,6.1358,6.1666,6.1704,6.1916,6.2474,6.2801,6.3205,6.3743,6.457,6.507,6.507,6.559,6.5897,6.5897,6.5897,6.5897,6.5897,6.5897,6.5897,6.5897,6.5897,6.5897,6.5897,6.5897,6.5897,6.5897,6.5897,6.5897,6.5897,6.5897,6.5897,6.591,6.5947,6.5972,6.5972,6.5993,6.5998,6.6009,6.6047,6.6069,6.6069,6.6112,6.6123,6.6123,6.6163,6.6155,6.6174,6.6194,6.6205,6.6205,6.6205,6.6205,6.6205,6.6205,6.6205,6.6205,6.6205,6.6205,6.6205,6.6205,6.6273,6.634,6.6396,6.6471,6.6528,6.6528,6.6609,6.6665,6.6665,6.6752,6.6853,6.6894,6.6894,6.6894,6.6894,6.6894,6.6894,6.6894,6.6894,6.6894,6.6894,6.6894,6.6894,6.6894,6.6894,6.6894,6.6894,6.6894,6.6894,6.6894,6.6894,6.6894,3.266,3.4584,3.6892,4.1162,4.4124,4.6874,5.0269,5.3029,5.5291,5.6722,5.8127,5.9358,6.0204,6.0589,6.08,6.08,6.08,6.08,6.08,6.08,6.08,6.08,6.08,6.1031,6.162,6.1928,6.232,6.2858,6.3685,0.0,6.4166,6.4705,6.5166,6.5455,6.5455,6.559,6.5897,6.5897,6.5897,6.5897,6.5897,6.5897,6.5897,6.5897,6.5897,6.5897,6.5923,6.5923,6.5897,6.5923,6.5935,6.5947,6.5989,6.5993,6.5993,6.6032,6.6036,6.6047,6.6112,6.6123,6.6134,6.6194,6.6205,6.6205,6.6205,6.6205,6.6205,6.6205,6.6205,6.6205,6.6205,6.6205,6.6205,6.6205,6.6205,6.6205,6.6205,6.6205,6.6205,6.6205,6.6308,6.6407,6.6457,6.6555,6.6622,6.6622,6.6709,6.6754,6.67,6.6829,6.6894,6.6894,6.6894,6.6894,6.6894,6.6894,6.6894,6.6894,6.6894,6.6894,6.6894,6.6894,6.6894,6.6894,6.6894,6.6894,6.6894,6.6894,6.6894,6.6894,6.6894,6.6894,0.0,0.0,0.0,3.9284,4.1027,4.3028,4.8048,0.0,5.125,5.3857,5.6357,5.8357,5.9261,6.0127,6.0704,6.0742,6.0781,6.08,6.08,6.08,6.08,6.08,6.08,6.08,6.08,6.1581,6.2062,6.2062,6.282,6.3262,6.3262,6.3288,6.3685,6.4532,6.4589,6.5013,6.584,6.5878,6.5897,6.5897,6.5897,6.5897,6.5897,6.5897,6.591,6.591,6.5972,6.5972,6.591,6.5984,6.6008,6.5989,6.6009,6.6013,6.6013,6.608,6.6102,6.6112,6.6184,6.6205,6.6205,6.6205,6.6205,6.6205,6.6205,6.6205,6.6205,6.6205,6.6205,6.6205,6.6205,6.6205,6.6205,6.6205,6.6205,6.6205,6.6215,6.6215,6.6215,6.6215,6.6325,6.645,6.6579,6.6658,6.67,6.67,6.6829,6.6853,6.6727,6.6829,6.6894,6.6894,6.6894,6.6894,6.6894,6.6894,6.6894,6.6894,6.6894,6.6894,6.6894,6.6894,6.6894,6.6894,6.6894,6.6894,6.6894,6.6894,6.6894,6.6894,6.6894,6.6894,3.0577,0.0,0.0,0.0,0.0,0.0,0.0,0.0,4.7144,5.0981,5.2299,5.3799,5.7099,5.7888,5.8446,5.9665,6.0396,6.08,6.08,6.08,6.08,6.08,6.08,6.08,6.08,6.1012,6.1146,0.0,6.1954,6.2416,6.2416,6.2974,6.3404,6.3647,6.4282,6.4724,6.4955,6.557,6.5897,6.5897,6.5897,6.5897,6.5897,6.5947,6.5972,6.5984,6.5993,6.5998,6.5974,6.5998,6.5998,6.6009,6.6047,6.6069,6.608,6.6144,6.6165,6.6165,6.6185,6.6205,6.6205,6.6205,6.6205,6.6205,6.6205,6.6205,6.6205,6.6205,6.6205,6.6205,6.6205,6.6205,6.6205,6.6205,6.6205,6.6225,6.6314,6.634,6.634,6.634,6.6495,6.6627,6.6668,6.6776,6.6833,6.6833,6.6874,6.6894,6.6853,6.6874,6.6894,6.6894,6.6894,6.6894,6.6894,6.6894,6.6894,6.6894,6.6894,6.6894,6.6894,6.6894,6.6894,6.6894,6.6894,6.6894,6.6894,6.6894,6.6894,6.6894,6.6894,6.6894,0.0,0.0,0.0,0.0,0.0,0.0,4.2297,4.3066,4.4374,0.0,4.9663,5.1125,5.428,5.5472,5.6376,5.7703,5.8954,5.9992,6.0704,6.08,6.08,6.08,6.08,6.08,6.08,6.08,6.08,6.08,6.1262,6.1562,6.1562,6.1993,6.2416,6.2781,6.3281,6.3897,6.4589,6.5109,6.5532,6.5897,6.5897,6.5923,6.5947,6.5984,6.6001,6.6005,6.6024,6.6047,6.6047,6.6069,6.6069,6.6047,6.6112,6.6134,6.6163,6.6194,6.6205,6.6205,6.6205,6.6205,6.6205,6.6205,6.6205,6.6205,6.6205,6.6205,6.6205,6.6205,6.6205,6.6205,6.6273,6.6235,6.6205,6.6273,6.6272,6.6308,6.6388,6.6471,6.6513,6.6497,6.6599,6.6697,6.6697,6.6808,6.6894,6.6894,6.6894,6.6894,6.6894,6.6894,6.6894,6.6894,6.6894,6.6894,6.6894,6.6894,6.6894,6.6894,6.6894,6.6894,6.6894,6.6894,6.6894,6.6894,6.6894,6.6894,6.6894,6.6894,6.6894,6.6894,6.6894,6.6894,3.5827,3.7065,0.0,0.0,4.0546,0.0,4.3008,4.2527,4.2412,0.0,4.7298,4.8875,5.0827,5.2549,5.3953,5.4838,5.6626,5.8531,6.0396,6.0742,6.08,6.08,6.08,6.08,6.08,6.08,6.08,6.08,6.08,6.08,6.08,6.08,6.1146,6.1928,6.2062,6.2832,6.4301,6.4512,6.4993,6.5775,6.5852,6.5947,6.5989,6.6001,6.6005,6.6005,6.608,6.6112,6.6112,6.6184,6.6155,6.6112,6.6184,6.6205,6.6205,6.6205,6.6205,6.6205,6.6205,6.6205,6.6205,6.6205,6.6205,6.6205,6.6205,6.6205,6.6195,6.6215,6.6225,6.6245,6.6396,6.6325,6.6254,6.6396,6.64,6.6419,6.6436,6.6561,6.6684,6.6642,6.6688,6.6727,6.6727,6.6811,6.6894,6.6894,6.6894,6.6894,6.6894,6.6894,6.6894,6.6894,6.6894,6.6894,6.6894,6.6894,6.6894,6.6894,6.6894,6.6894,6.6894,6.6894,6.6894,6.6894,6.6894,6.6894,6.6894,6.6894,6.6894,6.6894,6.6894,6.6894,3.7873,3.9258,4.07,3.9123,0.0,0.0,3.97,3.9527,4.0162,0.0,4.1497,4.242,4.6144,4.7682,4.8875,5.0375,5.3222,5.6299,5.9338,6.0358,6.08,6.08,6.08,6.08,6.08,6.08,6.08,6.08,6.08,6.08,6.08,6.08,6.0877,6.105,6.1735,6.2255,6.257,6.3935,6.471,6.4944,6.5657,6.6001,6.599,6.6066,6.6069,6.608,6.6144,6.6184,6.6194,6.6185,6.6194,6.6175,6.6185,6.6205,6.6205,6.6205,6.6205,6.6205,6.6205,6.6205,6.6205,6.6205,6.6205,6.6205,6.6205,6.6205,6.6225,6.6323,6.6364,6.6396,6.6528,6.6457,6.6384,6.6528,6.6478,6.6438,6.6611,6.6661,6.6727,6.6827,6.6852,6.6854,6.6854,6.6874,6.6894,6.6894,6.6894,6.6894,6.6894,6.6894,6.6894,6.6894,6.6894,6.6894,6.6894,6.6894,6.6894,6.6894,6.6894,6.6894,6.6894,6.6894,6.6894,6.6894,6.6894,6.6894,6.6894,6.6894,6.6894,6.6894,6.6894,6.6894,4.1123,4.1777,4.2835,4.1989,0.0,0.0,0.0,4.0181,4.0015,4.2536,4.1362,4.1073,4.4902,4.5605,4.6163,4.7875,5.0664,5.3183,5.4876,5.73,5.8896,5.8907,5.8907,5.9069,5.9511,5.9915,6.0319,6.0762,6.08,6.08,6.08,6.08,6.08,6.08,6.1223,6.1658,6.2101,6.3356,6.4239,6.4706,6.5589,6.6021,6.6058,6.608,6.6112,6.6144,6.6194,6.6205,6.6205,6.6205,6.6205,6.6205,6.6205,6.6205,6.6205,6.6205,6.6205,6.6205,6.6205,6.6205,6.6205,6.6205,6.6205,6.6205,6.6291,6.634,6.6407,6.6484,6.6504,6.6515,6.6622,6.6576,6.6534,6.6627,6.6594,6.6585,6.6687,6.6756,6.6829,6.6894,6.6894,6.6894,6.6894,6.6894,6.6894,6.6894,6.6894,6.6894,6.6894,6.6894,6.6894,6.6894,6.6894,6.6894,6.6894,6.6894,6.6894,6.6894,6.6894,6.6894,6.6894,6.6894,6.6894,6.6894,6.6894,6.6894,6.6894,6.6894,6.6894,6.6894,6.6894,6.6894,0.0,0.0,0.0,0.0,0.0,4.3278,0.0,0.0,0.0,4.3786,4.2305,0.0,0.0,0.0,0.0,0.0,0.0,0.0,0.0,5.2837,0.0,5.5953,5.631,5.6857,5.7723,5.8242,5.9031,6.0223,6.0012,6.0031,6.0512,6.0704,6.08,6.08,6.0812,6.117,6.1863,6.2729,6.3534,6.424,6.5288,6.5826,6.5881,6.6054,6.6144,6.6205,6.6205,6.6205,6.6205,6.6205,6.6205,6.6205,6.6205,6.6205,6.6205,6.6205,6.6205,6.6205,6.6205,6.6215,6.6245,6.6245,6.6254,6.629,6.6419,6.6516,6.6595,6.6619,6.6624,6.6646,6.6719,6.6688,6.6646,6.6719,6.6724,6.6702,6.6731,6.6811,6.6894,6.6894,6.6894,6.6894,6.6894,6.6894,6.6894,6.6894,6.6894,6.6894,6.6894,6.6894,6.6894,6.6894,6.6894,6.6894,6.6894,6.6894,6.6894,6.6894,6.6894,6.6894,6.6894,6.6894,6.6894,6.6894,6.6894,6.6894,6.6894,6.6894,6.6894,6.6894,6.6894,6.6894,0.0,0.0,0.0,0.0,4.6509,0.0,0.0,0.0,4.2162,4.0381,0.0,0.0,0.0,0.0,0.0,0.0,0.0,0.0,4.524,4.7375,4.9952,5.2212,5.3837,5.5107,5.5915,5.5434,5.6049,5.8415,5.7146,5.7261,5.9531,6.0377,6.08,6.08,6.0858,6.0938,6.1034,6.1899,6.2416,6.2585,6.4237,6.506,6.515,6.5866,6.6194,6.6205,6.6205,6.6205,6.6205,6.6205,6.6205,6.6205,6.6205,6.6205,6.6205,6.6205,6.6205,6.6205,6.6205,6.6282,6.638,6.638,6.6457,6.6558,6.6569,6.6579,6.661,6.6671,6.6689,6.6722,6.6833,6.6782,6.6722,6.6852,6.6784,6.6731,6.6853,6.6894,6.6894,6.6894,6.6894,6.6894,6.6894,6.6894,6.6894,6.6894,6.6894,6.6894,6.6894,6.6894,6.6894,6.6894,6.6894,6.6894,6.6894,6.6894,6.6894,6.6894,6.6894,6.6894,6.6894,6.6894,6.6894,6.6894,6.6894,6.6894,6.6894,6.6894,6.6894,6.6894,6.6894,6.6894,0.0,0.0,0.0,0.0,0.0,0.0,4.2951,0.0,4.247,0.0,0.0,0.0,0.0,0.0,0.0,0.0,4.3758,0.0,0.0,0.0,4.5577,0.0,0.0,0.0,5.2606,5.3376,5.4184,5.5261,5.5126,5.5917,5.8008,5.9375,6.0349,6.0903,6.0944,6.0955,6.0955,6.1829,6.2276,6.2316,6.4104,6.4966,6.5025,6.5837,6.6205,6.6205,6.6205,6.6205,6.6205,6.6205,6.6205,6.6205,6.6205,6.6205,6.6205,6.63,6.6316,6.6334,6.6419,6.6471,6.6516,6.6516,6.6581,6.6658,6.6658,6.6703,6.6772,6.6806,6.6829,6.6831,6.6894,6.6853,6.6831,6.6894,6.6853,6.6831,6.6894,6.6894,6.6894,6.6894,6.6894,6.6894,6.6894,6.6894,6.6894,6.6894,6.6894,6.6894,6.6894,6.6894,6.6894,6.6894,6.6894,6.6894,6.6894,6.6894,6.6894,6.6894,6.6894,6.6894,6.6894,6.6894,6.6894,6.6894,6.6894,6.6894,6.6894,6.6894,6.6894,6.6894,6.6894,6.6894,4.9452,0.0,0.0,0.0,0.0,0.0,0.0,0.0,0.0,0.0,0.0,0.0,0.0,0.0,0.0,0.0,0.0,4.2489,0.0,0.0,0.0,0.0,0.0,0.0,0.0,5.0337,5.1164,5.2107,5.2338,5.3599,5.6269,5.8004,5.944,6.0601,6.0873,6.0999,6.0999,6.1649,6.1969,6.1988,6.3555,6.429,6.4309,6.5392,6.5876,6.5876,6.6108,6.6205,6.6205,6.6205,6.6215,6.6254,6.6254,6.6282,6.6325,6.638,6.6414,6.6471,6.6563,6.661,6.6638,6.6662,6.6726,6.6756,6.6756,6.6811,6.6894,6.6894,6.6894,6.6894,6.6894,6.6894,6.6894,6.6894,6.6894,6.6894,6.6894,6.6894,6.6894,6.6894,6.6894,6.6894,6.6894,6.6894,6.6894,6.6894,6.6894,6.6894,6.6894,6.6894,6.6894,6.6894,6.6894,6.6894,6.6894,6.6894,6.6894,6.6894,6.6894,6.6894,6.6894,6.6894,6.6894,6.6894,6.6894,6.6894,6.6894,6.6894,6.6894,6.6894,6.6894,6.6894,0.0,0.0,0.0,4.6903,0.0,0.0,0.0,0.0,4.5037,0.0,0.0,0.0,0.0,0.0,0.0,0.0,0.0,0.0,0.0,0.0,0.0,0.0,0.0,0.0,0.0,4.5547,4.5969,0.0,4.8073,4.9342,5.441,5.6261,5.7978,5.9694,6.0566,6.1002,6.1002,6.109,6.1137,6.1157,6.2046,6.2491,6.2549,6.4251,6.5044,6.5083,6.5857,6.6205,6.6205,6.6205,6.6282,6.6384,6.6384,6.6471,6.6569,6.6443,6.6484,6.6585,6.659,6.6635,6.6724,6.6852,6.6894,6.6894,6.6894,6.6894,6.6894,6.6894,6.6894,6.6894,6.6894,6.6894,6.6894,6.6894,6.6894,6.6894,6.6894,6.6894,6.6894,6.6894,6.6894,6.6894,6.6894,6.6894,6.6894,6.6894,6.6894,6.6894,6.6894,6.6894,6.6894,6.6894,6.6894,6.6894,6.6894,6.6894,6.6894,6.6894,6.6894,6.6894,6.6894,6.6894,6.6894,6.6894,6.6894,6.6894,6.6894,6.6894,6.6894,6.6894,6.6894,6.6894,0.0,0.0,5.3106,4.9106,0.0,0.0,0.0,0.0,0.0,0.0,0.0,0.0,0.0,0.0,0.0,0.0,0.0,0.0,0.0,0.0,0.0,0.0,0.0,0.0,0.0,0.0,0.0,0.0,4.6643,0.0,5.2794,5.5652,5.7979,5.9785,6.0635,6.107,6.107,6.1089,6.1099,6.1118,6.1988,6.2394,6.2472,6.4213,6.4986,6.5044,6.5857,6.6245,6.6323,6.6323,6.6407,6.6534,6.6534,6.6586,6.6661,6.6615,6.6623,6.6671,6.6768,6.6805,6.6833,6.6894,6.6894,6.6894,6.6894,6.6894,6.6894,6.6894,6.6894,6.6894,6.6894,6.6894,6.6894,6.6894,6.6894,6.6894,6.6894,6.6894,6.6894,6.6894,6.6894,6.6894,6.6894,6.6894,6.6894,6.6894,6.6894,6.6894,6.6894,6.6894,6.6894,6.6894,6.6894,6.6894,6.6894,6.6894,6.6894,6.6894,6.6894,6.6894,6.6894,6.6894,6.6894,6.6894,6.6894,6.6894,6.6894,6.6894,6.6894,6.6894,6.6894,6.6894,5.3587,5.4068,0.0,5.0644,4.9433,0.0,4.4759,0.0,0.0,0.0,0.0,0.0,0.0,0.0,0.0,0.0,0.0,0.0,0.0,3.7777,0.0,0.0,0.0,0.0,0.0,0.0,4.2375,4.3852,4.5013,0.0,0.0,5.4673,5.73,5.9358,6.0518,6.1099,6.1099,6.1099,6.1099,6.1118,6.1679,6.195,6.1988,6.342,6.4077,6.4135,6.5276,6.5836,6.5965,6.6275,6.649,6.6646,6.6646,6.6694,6.6779,6.6724,6.6729,6.6784,6.6874,6.6894,6.6894,6.6894,6.6894,6.6894,6.6894,6.6894,6.6894,6.6894,6.6894,6.6894,6.6894,6.6894,6.6894,6.6894,6.6894,6.6894,6.6894,6.6894,6.6894,6.6894,6.6894,6.6894,6.6894,6.6894,6.6894,6.6894,6.6894,6.6894,6.6894,6.6894,6.6894,6.6894,6.6894,6.6894,6.6894,6.6894,6.6894,6.6894,6.6894,6.6894,6.6894,6.6894,6.6894,6.6894,6.6894,6.6894,6.6894,6.6894,6.6894,6.6894,6.6894,6.6894]}]]